GFSMA_850_thetae_000.txt.gz
Theta_e
317 316 318 317 317 317 317 317 317 317 317 315 312 311 310 310 309 308 308 311 311 309 307 307 307 307 307 308 309 316 320 319 322 323 323 322 327 326 324 323 325 326 325
315 315 314 316 318 318 317 317 318 318 318 318 317 314 312 311 310 310 311 312 311 310 308 306 306 307 307 307 307 308 314 321 320 322 325 326 325 327 325 324 324 325 325
316 315 314 318 319 318 318 317 318 318 317 318 318 316 315 313 311 311 310 310 310 309 309 307 305 305 306 306 306 307 308 314 321 321 323 326 324 322 326 325 325 325 325
319 318 317 315 317 318 316 318 317 317 318 317 317 317 316 315 313 311 311 311 310 309 309 308 306 305 305 306 306 306 306 306 313 318 320 322 325 325 327 326 325 326 325
317 317 315 314 314 315 315 317 317 318 320 318 317 317 316 316 316 313 311 311 311 310 310 309 308 308 304 305 306 306 306 305 305 306 315 318 319 322 324 327 326 325 326
316 313 312 312 314 314 314 315 316 315 312 312 314 316 315 314 314 314 314 312 311 311 310 309 308 309 307 306 305 305 305 305 305 305 305 309 317 318 319 321 322 325 323
313 312 311 312 312 311 311 311 310 309 310 311 312 314 314 314 316 317 317 315 312 312 310 309 308 308 308 306 305 305 304 304 304 304 304 304 305 310 317 318 321 319 325
312 312 310 309 309 309 309 308 310 310 309 308 310 310 312 311 312 312 313 315 314 313 312 310 309 308 308 308 307 306 304 303 304 303 302 303 303 304 307 311 316 318 320
311 308 307 307 307 307 306 302 304 306 308 308 309 309 309 310 310 310 311 311 312 313 313 312 310 308 308 309 306 305 305 304 303 303 303 302 302 302 303 305 307 310 314
308 307 306 305 305 305 304 304 305 305 304 305 306 307 308 307 306 307 309 310 310 311 312 312 311 310 309 309 306 304 304 304 304 304 304 303 303 301 302 302 304 307 309
306 305 304 304 303 303 302 303 304 303 304 305 306 305 305 304 301 301 303 304 306 308 308 310 310 308 305 304 305 303 304 304 303 303 303 303 303 302 300 301 302 303 306
304 302 302 302 302 302 302 302 303 304 303 303 302 301 301 299 298 298 298 298 298 300 302 304 307 305 305 303 303 303 303 302 302 302 301 301 302 302 300 299 300 301 302
301 301 301 301 301 301 301 301 301 300 300 300 299 299 299 298 297 296 298 297 297 297 298 299 301 303 302 302 303 301 302 302 301 301 300 299 298 299 299 299 299 305 301
300 300 300 300 300 299 299 298 298 298 298 297 297 297 296 295 295 295 295 294 294 295 295 296 298 299 301 301 301 300 300 300 300 300 300 297 299 298 298 298 298 299 300
300 300 299 299 299 298 298 297 297 297 297 296 296 295 295 294 293 293 294 295 295 295 294 294 296 297 297 299 300 300 299 299 299 298 298 297 299 299 299 300 299 300 301
299 297 298 297 297 297 297 296 296 295 295 294 295 294 295 294 294 294 294 294 293 294 294 294 294 294 295 296 297 298 298 298 298 298 298 297 297 298 299 299 299 300 300
296 296 295 293 293 294 293 293 292 291 291 292 292 293 293 293 293 293 293 293 292 292 293 293 293 293 294 294 296 296 296 296 296 296 295 295 295 295 297 298 298 298 298
296 295 294 294 293 292 292 291 291 291 291 291 291 291 291 291 290 291 290 291 291 291 291 291 292 292 292 292 293 293 294 295 295 296 295 295 295 294 293 293 295 297 297
294 293 292 291 290 289 289 289 289 290 290 289 288 288 289 289 290 289 289 289 290 290 290 290 290 290 291 291 291 291 292 293 294 294 294 294 294 293 293 293 292 292 293
292 291 290 289 289 289 289 289 289 288 288 287 286 285 287 288 288 289 289 289 289 289 289 288 288 288 289 290 290 290 290 291 291 292 293 293 293 293 292 292 292 292 291
290 289 289 289 289 289 289 288 288 287 287 286 285 285 284 286 287 287 288 287 287 287 286 286 286 287 288 288 289 291 291 291 292 292 292 292 292 293 293 292 292 291 291
290 289 289 289 289 289 288 288 287 286 286 285 284 283 283 285 285 286 287 286 285 285 284 284 284 284 285 286 287 288 288 289 289 290 290 291 291 291 292 292 293 293 292
289 289 289 289 288 288 287 287 286 285 283 282 281 282 283 284 285 285 285 285 285 285 285 284 284 284 283 284 285 286 286 287 287 288 288 289 290 290 290 291 291 291 291
289 289 289 289 288 287 287 285 284 283 282 280 280 281 282 282 283 283 283 283 283 283 283 283 283 283 284 284 284 284 285 285 286 286 287 288 288 288 288 289 289 290 289
289 289 289 288 288 286 284 284 284 283 281 280 280 280 281 281 281 281 282 282 282 282 282 282 283 283 284 284 283 283 284 284 285 285 286 286 287 287 287 287 287 287 287
289 289 288 288 286 284 284 284 283 282 280 280 280 280 280 280 282 282 282 282 282 282 282 282 283 283 283 283 284 285 285 284 283 283 284 285 286 287 287 287 286 286 286

GFSMA_850_thetae_003.txt.gz
Theta_e
316 315 314 314 314 317 317 317 317 316 318 318 317 317 317 316 315 314 310 308 308 308 310 309 307 307 307 307 308 310 315 320 320 321 322 323 326 328 326 324 323 325 326
315 316 314 314 314 318 319 319 318 316 318 318 317 317 317 317 316 316 314 312 311 309 309 309 308 307 307 307 307 307 308 310 318 320 321 322 323 321 323 327 323 324 326
320 319 317 316 316 315 316 315 314 316 317 316 318 317 317 316 316 316 316 313 311 311 310 309 308 308 307 306 306 307 307 307 309 317 321 321 325 320 324 327 325 323 324
319 317 318 313 312 313 313 314 312 315 316 319 319 318 317 316 317 315 315 314 311 311 311 311 310 309 308 305 306 306 306 306 306 308 315 321 322 325 325 326 327 325 324
315 316 315 311 311 311 313 315 315 315 316 315 313 310 313 317 317 316 317 316 315 313 311 311 310 310 309 307 305 305 306 306 306 305 306 312 319 322 325 325 323 326 325
313 312 312 312 312 311 311 312 312 312 311 310 313 314 313 312 316 314 315 316 315 315 314 313 311 311 309 308 307 304 305 305 305 305 306 305 308 316 319 322 325 326 325
312 313 312 311 309 309 309 309 309 309 309 308 306 305 305 305 308 307 312 313 314 314 314 313 312 311 310 308 307 307 306 304 304 304 304 305 305 305 309 317 319 321 324
313 312 311 309 308 308 308 308 307 305 305 305 305 306 308 307 307 308 311 313 311 312 313 314 313 311 311 309 308 307 306 306 303 303 302 302 303 304 304 306 314 318 320
309 309 308 307 306 306 306 306 305 304 303 303 303 304 306 306 307 306 306 309 311 311 311 311 312 311 311 309 308 307 307 306 304 302 302 302 301 302 303 303 304 307 314
308 308 306 305 304 304 304 304 302 302 303 304 304 305 307 306 302 303 304 304 305 303 306 305 306 309 310 309 308 308 308 307 304 303 303 303 303 301 301 302 302 303 304
307 306 304 302 301 301 300 300 301 302 303 304 303 304 304 303 302 301 299 299 298 298 298 299 298 299 304 307 308 307 308 305 303 303 303 303 303 303 301 302 301 302 303
305 302 300 300 301 301 301 301 301 301 301 301 300 300 300 299 299 299 297 297 296 296 296 296 296 297 298 304 304 302 303 303 302 302 303 303 302 302 302 303 305 305 301
300 300 299 300 300 300 300 300 299 299 298 298 298 298 298 296 297 295 295 296 296 295 295 295 295 296 299 299 301 303 301 301 301 302 302 302 301 301 301 300 301 305 307
301 300 300 300 299 299 299 298 298 297 298 297 297 296 296 295 295 294 294 294 294 294 294 294 294 294 297 298 300 301 302 301 300 301 299 300 300 301 301 299 299 302 305
301 300 300 298 299 298 296 295 294 293 292 293 293 294 294 295 295 294 295 295 295 295 294 293 293 292 294 295 297 297 300 301 300 300 300 299 299 298 298 299 299 300 302
301 297 294 294 293 293 292 291 291 290 289 290 290 291 292 292 293 293 294 294 294 293 293 293 292 292 293 294 294 296 297 299 299 298 298 298 298 298 296 298 299 300 301
298 294 293 293 292 291 290 289 289 289 289 289 290 290 290 289 290 290 291 290 290 291 292 292 292 292 291 292 292 293 294 296 297 298 297 297 296 295 296 296 297 298 299
295 293 293 291 290 289 289 289 289 289 289 289 289 289 288 287 286 289 290 290 290 290 289 290 291 291 291 291 291 292 292 293 295 296 296 295 295 295 294 294 293 294 295
294 292 290 290 289 289 289 289 289 288 288 288 287 287 286 286 285 285 288 289 289 290 290 289 289 289 290 290 291 291 291 291 293 293 294 295 295 294 294 294 293 293 293
292 290 289 289 288 289 289 288 288 288 288 287 287 286 286 285 285 284 286 287 288 288 289 289 288 288 288 289 288 289 289 290 291 291 292 292 293 293 293 293 293 292 292
290 289 289 288 289 289 289 289 288 288 287 286 286 284 283 282 283 285 285 286 287 287 287 287 286 286 286 285 286 287 288 289 291 291 292 292 292 292 292 292 292 292 291
290 290 289 289 289 289 289 288 288 287 286 284 283 282 281 282 283 284 285 285 286 286 285 284 284 284 284 284 284 285 286 287 287 289 290 291 291 291 291 292 292 292 292
290 289 289 289 289 289 288 287 286 284 284 284 282 281 280 280 281 282 282 283 283 284 284 284 284 284 284 283 283 283 283 284 284 286 287 288 289 290 290 290 290 290 291
290 289 289 289 289 288 287 285 284 284 284 283 281 280 280 281 281 281 281 281 282 282 282 282 282 282 282 283 283 283 284 284 284 284 285 285 286 287 288 288 288 288 289
289 289 289 288 288 287 285 284 284 283 282 281 280 280 279 279 280 281 281 281 282 282 282 282 282 282 282 283 283 283 283 283 283 284 284 284 285 285 286 286 287 287 287
289 289 288 288 287 285 284 284 283 281 281 280 279 279 279 280 281 281 280 281 281 281 281 281 281 282 282 282 283 283 283 284 284 284 284 284 284 284 284 286 286 286 286

GFSMA_850_thetae_006.txt.gz
Theta_e
315 316 317 316 317 318 317 317 319 318 317 315 318 317 317 317 316 316 315 315 315 313 312 311 309 308 307 307 307 308 309 312 315 319 319 321 323 325 327 326 324 321 323
320 320 318 317 315 315 314 314 315 315 315 314 316 317 317 317 318 318 317 315 315 315 313 311 311 309 308 308 307 306 307 307 308 310 318 320 322 323 325 327 326 324 321
321 321 319 318 315 311 312 312 312 312 313 315 317 317 318 315 313 314 314 315 316 315 313 312 311 311 310 310 308 307 305 306 307 307 309 317 320 322 324 326 326 326 324
321 318 317 315 314 314 312 312 312 312 313 314 315 315 313 311 312 314 316 315 315 316 314 313 313 311 311 311 310 308 306 305 306 306 306 309 319 321 322 324 323 326 325
317 314 313 312 312 313 312 311 311 311 311 311 311 311 311 311 312 312 313 313 313 314 315 315 314 312 311 311 311 310 308 306 306 306 305 305 308 317 321 324 327 326 325
313 312 312 313 312 310 310 310 309 309 309 308 307 306 305 305 305 305 307 309 310 312 313 313 314 314 311 310 309 309 309 308 305 306 305 305 305 306 313 319 322 325 325
312 313 312 312 311 309 308 308 308 308 307 305 304 304 302 302 301 302 303 306 308 310 311 312 313 313 313 311 310 310 309 309 305 305 305 305 304 304 305 309 316 319 324
312 309 309 309 307 307 306 306 306 305 305 303 302 300 302 300 300 303 303 304 306 307 307 307 310 312 312 312 311 309 309 309 307 306 305 304 303 303 303 304 306 311 317
308 308 307 306 305 303 302 302 302 301 301 300 300 303 304 304 304 303 304 304 304 304 303 302 300 303 308 311 310 310 308 309 308 306 306 304 303 302 302 302 304 305 307
307 307 306 304 301 300 299 298 298 299 298 299 301 302 302 301 302 301 301 300 300 300 299 298 297 297 297 300 307 310 309 309 308 303 304 303 302 302 301 301 302 302 304
306 304 302 301 297 297 297 298 299 299 299 300 298 299 298 298 298 297 297 297 297 297 297 296 295 295 296 298 299 301 308 308 307 306 305 304 302 302 302 301 301 302 302
304 303 302 298 299 299 298 298 298 298 298 298 298 298 298 297 296 296 295 295 295 295 295 295 294 294 295 298 300 304 302 306 307 307 303 302 301 302 302 302 301 306 308
303 302 300 300 300 299 295 297 297 297 297 296 296 295 295 295 295 295 295 295 294 294 294 294 294 293 294 297 298 300 302 302 301 303 303 301 300 300 300 300 301 302 307
301 301 301 300 296 293 295 294 292 291 291 290 290 290 291 292 293 294 294 294 294 294 294 295 294 293 292 294 296 296 299 301 302 301 301 301 301 300 299 300 301 299 301
301 301 300 294 292 291 292 291 290 289 288 288 288 288 289 290 291 291 292 291 290 291 292 293 293 292 292 292 294 295 296 297 299 301 301 301 301 302 302 300 298 298 299
301 300 296 292 291 290 290 289 289 288 288 288 288 288 288 289 289 288 287 288 290 291 290 290 291 291 291 291 292 292 293 294 296 299 299 300 299 297 297 298 298 298 299
299 298 294 293 290 289 289 289 288 288 288 288 288 289 288 288 288 287 287 285 288 289 291 290 289 290 290 291 291 292 292 293 295 296 298 299 298 298 297 295 296 296 298
297 295 293 292 290 289 288 288 288 288 288 288 288 288 287 286 285 286 286 285 284 287 289 290 290 289 290 290 290 291 291 291 292 294 296 298 296 295 294 294 294 294 294
293 294 291 290 289 288 288 288 288 288 288 288 288 287 287 285 285 284 284 284 284 285 288 289 289 289 289 289 289 289 289 290 291 292 292 294 296 295 295 294 294 294 293
294 292 290 289 289 288 289 289 288 288 288 288 287 286 284 283 282 282 283 284 285 285 286 286 287 287 287 288 288 287 288 288 290 290 291 292 292 294 295 294 293 293 293
292 291 289 289 288 288 289 289 288 288 287 286 284 283 283 281 281 282 283 284 285 286 286 287 286 285 286 286 286 285 285 285 287 288 290 291 291 292 292 292 293 292 292
290 291 290 288 289 289 288 288 287 286 284 284 283 283 282 280 280 280 281 282 282 283 283 284 285 285 284 284 284 283 283 284 284 285 287 289 289 290 290 291 292 292 292
293 290 289 289 289 288 288 287 286 285 284 283 282 281 280 280 279 280 280 281 281 281 282 282 282 283 283 283 283 283 283 283 283 284 285 287 288 289 289 289 290 291 291
291 289 289 288 288 288 287 285 284 284 283 282 281 280 279 279 279 279 280 281 281 281 281 281 281 281 281 281 281 282 282 282 283 284 284 284 286 287 288 287 287 288 288
289 289 289 288 288 287 285 283 282 281 280 280 279 279 279 279 279 280 280 280 280 281 281 281 281 282 282 282 282 282 283 283 283 283 283 283 284 284 285 285 285 286 286
289 288 288 288 287 285 284 282 280 279 279 278 278 278 278 278 279 280 280 280 280 280 280 280 280 280 281 281 282 282 283 283 283 283 283 284 284 284 284 285 285 285 286

GFSMA_850_thetae_009.txt.gz
Theta_e
318 316 317 316 316 314 313 312 312 312 312 312 312 312 313 317 318 317 318 317 316 314 314 314 313 311 310 309 308 308 307 307 309 313 317 319 319 322 323 325 326 325 323
320 320 320 319 317 316 314 313 313 312 312 312 312 312 313 315 316 313 315 315 315 316 316 314 313 312 312 311 310 310 309 307 306 307 308 311 318 319 321 323 325 326 325
320 321 321 319 317 314 313 313 312 312 311 311 312 314 313 314 313 312 312 313 314 315 314 314 313 312 312 312 312 311 311 309 308 306 306 307 308 315 320 321 323 326 326
320 319 317 314 313 312 312 312 312 311 311 310 310 310 310 309 309 311 311 309 310 312 313 313 314 314 312 311 311 311 311 310 309 306 305 306 306 308 317 321 322 324 326
317 315 313 312 312 312 312 311 310 309 309 309 309 308 306 304 304 303 302 304 306 307 308 309 311 313 314 314 311 310 310 310 309 309 307 305 306 306 308 317 320 322 323
312 312 312 312 309 310 310 309 308 307 306 306 305 304 304 304 303 301 299 300 301 304 306 308 311 312 313 313 314 313 310 309 309 309 309 305 306 305 305 306 315 320 322
312 312 310 308 308 308 307 305 305 304 303 303 302 302 302 300 300 299 303 304 303 303 303 305 307 309 311 312 313 312 311 310 309 309 309 307 305 306 305 305 305 310 318
310 309 308 307 307 306 304 302 301 300 298 297 297 297 301 300 301 302 300 302 303 303 303 303 303 303 304 307 311 311 311 311 309 312 310 309 307 306 306 304 304 305 307
308 307 306 305 304 303 301 300 298 296 296 296 296 299 300 301 300 299 299 299 300 299 298 297 297 298 299 300 302 307 309 310 309 308 309 309 307 308 306 303 303 303 304
306 306 303 303 303 300 299 297 295 294 295 296 297 298 298 298 298 298 297 296 296 296 295 295 295 296 296 296 297 299 302 305 309 309 307 308 306 306 305 303 301 302 302
304 304 304 305 302 298 298 298 298 293 296 297 297 297 297 296 297 296 296 296 295 294 294 294 295 294 294 295 296 296 297 300 304 304 308 308 306 304 304 302 301 301 302
305 305 304 301 300 299 299 299 296 294 295 295 294 294 293 294 294 294 294 294 294 293 294 293 294 294 293 295 296 297 298 301 302 302 305 307 306 305 304 301 301 302 302
302 301 301 301 300 299 294 292 292 291 291 290 289 289 288 289 290 291 292 292 293 291 291 293 294 294 294 292 294 296 298 301 302 302 301 304 305 304 302 301 300 301 302
302 301 300 298 294 292 291 290 289 289 289 288 288 288 287 288 289 290 290 289 289 290 290 290 291 292 292 292 293 294 296 298 299 300 301 301 302 304 301 298 299 300 300
301 300 297 296 295 292 289 288 288 288 288 288 288 288 288 287 287 288 288 288 287 288 287 288 290 290 292 291 292 292 293 294 297 297 300 300 301 301 302 299 300 299 298
301 300 299 296 292 292 289 288 288 288 288 288 287 287 288 288 288 287 287 286 286 285 286 287 288 289 290 290 290 291 291 292 292 293 295 299 299 300 301 300 301 301 301
299 298 297 293 293 291 289 288 287 288 288 288 288 288 288 287 287 287 286 286 285 285 285 284 286 288 290 289 289 290 290 291 292 292 295 296 299 298 297 297 296 298 300
299 297 296 295 290 289 289 288 288 288 288 288 288 287 287 287 287 286 284 283 283 283 284 284 285 288 288 288 289 289 289 290 291 291 291 293 296 297 297 296 296 294 294
295 296 295 292 290 289 288 288 288 288 288 288 287 287 286 284 283 282 282 282 282 283 284 284 284 288 287 287 288 288 288 289 289 290 291 291 293 295 296 295 294 294 294
296 293 292 290 289 289 288 288 288 288 288 287 286 284 283 283 282 281 281 281 283 284 285 286 285 286 286 287 287 286 286 288 288 287 289 290 291 292 295 295 294 293 293
295 293 291 289 290 288 288 288 288 288 287 285 284 283 283 282 281 280 280 281 281 282 282 283 284 285 285 285 286 285 285 285 286 286 287 289 290 291 291 293 294 293 293
294 291 291 290 289 288 288 288 287 286 285 284 283 282 282 280 280 279 279 280 281 281 281 282 282 283 283 284 284 284 284 284 284 284 285 287 288 289 290 291 292 292 292
293 292 291 289 288 288 288 287 286 284 283 282 281 280 280 279 279 279 279 280 280 280 281 281 281 282 282 282 283 283 282 282 283 283 283 284 286 287 289 288 289 290 291
292 292 289 288 288 288 287 285 284 282 281 280 279 279 278 278 279 279 280 281 280 280 280 281 281 281 281 281 281 281 281 282 282 282 282 283 284 285 285 289 289 287 288
291 288 288 288 288 287 286 284 282 281 281 280 279 279 278 278 279 279 280 280 280 280 280 280 280 280 281 282 282 282 282 282 282 282 282 283 283 284 284 284 285 288 287
289 289 289 288 287 286 284 282 281 280 280 279 279 279 278 278 279 279 279 279 279 279 280 279 279 279 280 280 281 281 282 282 283 283 283 283 283 284 284 284 285 285 285

GFSMA_850_thetae_012.txt.gz
Theta_e
317 317 317 317 317 316 314 313 313 312 312 312 312 311 312 314 314 314 314 316 316 314 312 310 313 313 312 312 312 310 310 309 308 307 307 310 317 319 321 323 324 324 325
319 320 320 320 318 317 315 313 312 312 311 311 311 311 312 312 312 312 312 312 313 314 314 313 313 313 313 312 311 311 311 310 310 308 307 306 307 310 318 319 322 324 325
320 321 320 318 317 315 312 312 311 311 310 310 309 309 309 309 309 309 307 307 308 309 310 313 313 311 312 314 313 311 310 310 310 310 308 306 305 306 307 316 320 322 324
320 318 317 316 313 312 311 309 310 310 309 309 308 308 308 308 306 304 304 303 302 302 303 306 308 311 312 313 314 313 312 310 312 310 310 308 306 306 306 307 314 320 321
315 314 312 313 313 310 308 308 309 308 307 306 306 306 307 305 303 303 302 301 300 300 301 302 304 305 307 308 310 312 313 313 311 311 311 309 309 306 306 306 307 315 320
312 313 313 310 308 308 307 307 307 306 304 302 302 302 302 302 301 301 300 300 302 302 302 303 304 305 306 307 310 311 312 312 313 311 312 314 311 308 305 306 305 306 314
311 310 309 308 308 307 306 305 303 302 302 301 300 301 301 300 299 297 300 300 298 299 300 301 301 302 302 303 306 308 311 312 312 312 310 314 314 311 308 305 306 305 305
310 309 308 308 306 304 303 303 303 300 297 295 294 293 296 295 297 298 294 296 297 296 298 297 296 296 297 298 300 301 304 308 310 311 311 310 313 314 312 308 306 306 304
309 307 307 306 305 305 304 303 300 297 297 295 293 295 297 297 297 295 294 294 295 296 294 295 294 294 294 294 296 296 297 299 303 306 310 310 311 313 313 310 307 306 304
306 305 305 305 304 305 301 299 298 297 297 294 293 295 297 297 297 296 296 295 295 294 294 294 293 293 293 294 294 295 295 295 296 300 303 305 309 309 310 310 308 306 304
304 302 300 302 301 301 299 298 298 297 293 292 292 291 291 291 292 295 294 293 293 292 292 292 293 293 293 294 293 294 295 295 296 296 299 302 306 308 308 310 309 305 304
302 300 301 301 300 299 295 293 292 290 290 289 289 289 288 288 289 290 290 291 291 291 290 290 291 291 293 294 292 293 295 295 295 296 300 302 303 306 308 308 307 305 303
301 300 301 302 300 296 294 292 291 290 288 288 287 287 287 287 287 287 289 288 288 288 288 287 288 290 291 293 293 292 294 296 297 298 299 302 303 303 304 306 306 305 302
300 301 300 300 299 297 297 293 289 288 288 288 287 287 287 287 287 287 287 287 287 286 286 286 285 286 289 291 292 292 292 293 295 297 299 298 300 302 303 303 302 301 300
297 300 300 299 297 298 294 291 288 288 288 287 288 288 288 287 287 288 288 287 286 285 285 285 285 285 286 289 291 291 290 292 293 295 297 297 299 299 301 302 302 300 300
299 299 298 298 297 295 293 290 289 288 288 288 288 288 288 288 288 287 287 287 286 285 284 285 285 285 285 287 289 291 289 293 293 292 292 293 295 298 299 300 301 301 300
298 298 297 296 295 294 290 289 288 288 288 288 288 288 288 287 287 287 286 285 283 283 282 282 282 283 284 285 289 290 290 289 292 292 291 291 292 294 297 299 300 300 300
296 296 295 294 294 294 289 288 288 288 288 288 288 288 287 287 286 284 283 283 282 281 281 283 283 283 284 287 288 288 287 289 288 289 291 291 290 291 292 296 298 297 295
294 294 293 294 293 290 288 289 288 288 288 288 288 287 286 284 283 283 282 282 281 280 282 283 283 284 284 286 288 288 288 287 288 287 288 289 290 290 292 294 296 295 293
293 293 294 292 292 289 289 289 288 288 288 287 287 285 284 283 283 282 281 280 280 280 280 281 282 283 285 285 286 286 286 286 286 286 287 287 289 290 291 294 295 295 294
292 293 293 291 289 290 289 288 288 288 287 286 285 283 282 281 281 280 280 280 280 280 280 281 282 282 283 284 285 285 285 286 285 285 285 286 286 289 291 292 294 294 293
292 291 292 291 291 289 288 288 288 287 286 284 282 281 280 280 279 279 279 279 279 280 280 280 281 281 281 282 283 284 284 284 284 284 284 284 285 287 288 291 292 294 293
292 291 291 291 290 288 288 288 287 286 283 281 281 280 279 279 279 279 279 279 279 280 281 281 281 281 281 282 281 282 282 283 283 283 282 283 284 285 288 287 290 291 292
291 291 291 289 288 288 288 287 286 283 282 281 280 279 279 279 279 278 279 280 280 280 280 280 280 280 280 281 281 281 281 281 282 282 282 282 283 283 285 287 288 288 290
290 289 288 288 289 287 286 285 283 281 281 281 280 279 279 278 278 279 279 279 279 279 279 279 280 279 279 280 281 282 281 281 281 281 281 281 282 283 283 284 285 289 289
290 290 289 288 287 287 285 283 281 281 281 280 279 279 278 278 278 278 278 278 278 279 279 279 279 279 279 279 280 280 281 282 282 282 282 282 283 283 284 284 284 284 285

GFSMA_850_thetae_015.txt.gz
Theta_e
317 317 318 318 319 318 317 316 313 312 311 310 310 310 310 311 312 312 312 312 313 313 313 314 313 313 312 312 312 312 311 311 310 310 309 307 306 310 317 319 322 323 324
319 320 320 320 320 319 317 314 312 310 309 310 309 309 309 309 309 310 310 309 309 309 310 310 311 313 314 313 311 312 313 312 311 311 310 309 308 306 307 313 319 322 323
321 320 321 320 319 314 312 312 308 307 308 309 309 309 308 308 308 307 307 306 306 306 305 305 305 308 310 311 313 312 313 314 313 311 311 310 309 305 305 306 309 318 321
320 319 317 315 313 313 310 309 308 307 308 308 307 307 307 307 306 305 303 303 303 303 303 303 302 302 302 305 307 310 312 313 313 313 312 311 310 309 305 305 306 308 316
315 313 312 313 313 310 309 308 307 306 305 305 304 304 304 304 303 302 302 302 302 301 301 301 300 300 301 302 303 305 308 310 311 312 313 312 310 310 310 305 305 306 307
312 312 310 309 309 309 308 307 305 304 303 303 303 303 302 301 300 302 301 300 299 300 297 296 296 297 298 298 301 303 305 308 310 311 311 313 313 310 311 309 305 305 305
312 309 309 308 308 307 306 305 305 305 304 302 299 298 297 296 298 295 295 299 297 294 294 293 294 295 294 294 295 296 299 302 305 308 309 311 313 313 310 312 309 306 305
310 309 308 306 305 304 304 304 303 300 298 297 296 297 298 298 299 297 299 295 296 293 295 295 293 293 294 294 294 293 294 294 297 301 305 307 310 312 313 311 312 309 306
307 306 305 304 301 301 301 301 299 298 299 298 295 296 297 297 297 297 297 296 297 296 295 294 292 291 292 292 292 293 293 294 294 296 298 300 304 308 312 313 312 312 309
305 303 301 300 299 301 300 299 299 298 295 294 292 294 291 294 294 293 294 295 294 293 293 293 292 291 291 293 293 293 293 294 294 295 295 296 298 302 306 310 312 312 311
304 301 299 297 298 301 300 299 296 296 293 291 292 290 291 291 292 293 290 291 291 291 291 290 291 291 291 291 292 293 293 293 294 294 295 295 297 299 302 305 310 310 310
297 296 296 298 299 299 300 297 295 296 294 291 288 288 289 289 289 290 290 289 289 289 289 289 289 289 289 291 291 292 294 292 293 295 296 298 298 302 304 308 309 308 309
295 294 297 300 300 299 297 295 297 293 289 288 287 288 288 289 289 289 289 288 288 288 288 288 288 288 287 287 290 290 292 292 293 294 295 297 299 301 304 306 308 309 308
292 292 294 299 300 299 296 297 294 289 288 288 288 288 288 288 287 288 289 288 288 288 287 287 287 287 287 287 287 288 291 291 292 293 294 296 298 299 300 302 301 302 305
291 291 295 299 299 297 295 294 291 289 288 287 288 288 288 288 287 287 288 287 287 287 287 286 286 286 286 286 287 287 290 291 291 293 293 294 295 296 298 299 301 301 299
290 292 298 298 297 297 294 292 289 289 288 288 288 288 288 288 287 287 287 286 286 285 285 284 284 284 284 284 286 286 288 290 290 293 294 292 293 294 296 297 298 300 300
290 293 296 296 295 295 293 294 290 288 288 288 288 288 288 287 287 286 286 285 284 283 283 283 283 283 284 285 285 286 288 289 290 290 290 292 291 291 291 294 297 298 300
290 292 295 295 294 293 293 292 289 289 288 288 288 288 287 287 286 285 285 284 283 283 282 282 283 284 284 285 285 286 288 288 290 290 289 288 289 290 290 291 292 295 299
290 291 292 293 293 293 292 289 289 289 288 288 288 287 287 286 285 284 283 283 282 282 282 282 282 282 283 284 285 286 287 288 288 287 287 289 288 288 289 290 292 296 296
290 292 292 292 293 290 289 289 289 289 288 288 287 286 285 284 283 282 282 282 281 281 281 281 282 282 283 283 284 285 286 287 287 286 286 286 286 286 287 290 291 295 296
291 292 292 292 292 291 290 290 289 288 288 287 286 284 282 282 281 280 280 280 280 280 281 281 281 282 283 283 284 283 284 286 286 285 285 286 286 286 286 289 291 294 294
290 291 291 291 291 291 291 289 288 288 287 286 283 282 281 281 280 279 279 279 279 280 280 281 282 282 282 282 283 283 283 283 285 285 285 285 284 285 286 288 290 293 294
290 291 291 291 291 290 288 288 288 287 286 283 282 281 280 279 279 279 279 279 280 280 280 280 281 281 281 281 282 282 283 283 283 285 284 284 284 285 285 287 289 292 293
290 290 290 289 288 288 288 287 287 285 283 282 281 280 279 279 279 278 279 279 280 280 280 280 280 280 281 281 281 281 282 282 282 283 283 284 284 284 284 284 288 290 291
290 290 290 289 289 289 287 287 285 283 282 281 280 279 279 278 278 278 279 279 279 279 279 279 279 280 280 280 280 280 281 282 282 282 283 283 283 284 284 283 285 288 289
289 289 289 289 288 287 287 285 283 282 281 281 279 278 279 278 278 278 278 278 277 279 278 278 278 279 280 280 279 279 280 281 282 283 283 283 283 283 284 284 283 284 288

GFSMA_850_thetae_018.txt.gz
Theta_e
317 318 319 319 319 319 318 317 317 315 314 313 312 310 311 310 309 311 311 310 310 309 310 310 311 312 313 314 313 313 313 313 312 311 311 310 308 307 308 315 318 322 323
319 319 320 320 320 319 317 315 314 313 312 311 311 310 309 309 309 309 310 310 308 307 306 306 306 305 306 309 311 312 312 311 313 313 312 311 310 309 307 306 310 317 320
320 321 320 320 316 316 313 313 311 311 311 310 310 309 309 309 308 308 308 308 307 306 305 304 304 304 303 302 303 306 309 311 312 313 313 312 311 311 309 306 306 307 315
320 319 318 314 313 312 311 311 310 309 309 308 308 307 307 307 306 307 308 307 306 306 305 305 304 303 302 301 301 302 303 305 307 310 312 313 312 312 311 309 305 306 307
314 312 312 312 310 309 309 308 308 307 307 306 306 305 305 305 305 306 307 306 305 304 303 302 300 298 297 297 297 298 299 301 304 306 308 310 313 315 314 311 309 306 306
312 312 311 309 308 308 307 307 307 307 307 306 305 304 304 303 303 304 306 304 302 302 301 300 299 299 297 295 294 294 294 295 296 299 303 307 310 312 315 314 311 309 305
311 309 308 308 307 307 307 306 306 306 305 304 303 301 301 301 303 303 302 302 302 301 299 299 299 298 297 297 296 297 294 293 294 294 295 299 305 309 313 315 315 311 307
309 307 307 307 307 306 306 305 303 302 302 302 302 301 300 300 300 301 300 299 299 299 299 298 297 296 296 296 296 294 296 296 292 293 294 294 296 302 307 312 315 313 312
307 306 306 305 303 303 302 302 302 302 301 301 299 299 300 299 298 298 298 297 298 297 296 295 295 294 295 295 295 296 296 294 292 293 293 293 294 296 299 306 311 314 312
305 305 303 299 299 300 301 301 300 299 298 298 297 297 297 297 296 296 296 296 294 294 294 293 294 293 293 292 292 294 294 293 292 293 293 294 294 298 297 300 304 311 313
305 304 303 301 301 301 301 300 299 297 297 297 297 296 294 294 293 293 293 293 292 292 291 291 291 291 291 291 290 292 292 291 291 293 293 293 294 298 301 303 304 304 310
300 300 301 302 301 300 301 299 297 297 297 295 293 293 292 292 292 291 291 291 291 291 291 291 290 290 290 290 290 289 290 290 290 292 293 293 294 297 300 300 303 303 306
297 297 297 299 300 299 299 298 297 297 294 293 292 292 291 291 291 291 291 291 291 290 290 290 290 290 289 289 289 289 289 287 288 291 291 293 294 296 299 299 303 306 309
296 296 297 298 299 299 298 297 297 296 294 293 292 292 291 291 291 290 290 290 290 290 289 289 289 289 288 288 288 287 288 288 289 290 291 293 294 295 297 298 301 304 308
295 296 298 298 298 299 297 297 296 295 294 293 292 292 291 291 291 290 290 289 289 289 289 288 288 287 287 287 286 286 287 288 288 290 291 292 293 294 295 297 299 301 302
294 295 296 297 298 298 297 296 295 295 293 292 291 291 291 290 290 289 289 289 288 288 287 287 287 286 286 286 286 287 287 287 287 289 290 291 293 292 293 294 296 297 299
294 294 294 296 296 296 295 295 294 294 293 291 291 291 291 290 289 288 288 288 287 287 286 286 286 286 286 286 286 286 287 288 288 290 290 290 289 291 291 291 292 295 297
294 294 294 294 294 294 294 294 295 293 291 291 291 290 290 289 288 288 287 287 287 286 285 285 285 285 285 285 285 286 286 287 288 290 290 290 289 288 289 290 290 291 295
293 294 294 294 294 294 293 294 292 291 290 290 290 289 288 288 287 287 286 285 285 284 284 284 284 283 284 284 285 285 286 287 289 290 289 288 288 289 289 289 290 290 291
293 293 294 294 294 292 292 291 291 290 290 289 289 288 287 286 285 284 283 284 283 283 283 283 283 283 284 284 285 285 286 287 288 289 288 287 287 287 286 287 288 289 292
293 293 293 293 293 292 291 291 290 290 289 289 288 286 284 283 282 281 281 282 282 282 282 282 283 283 284 284 284 284 284 285 286 288 288 287 287 288 289 289 290 289 292
292 292 292 293 293 292 291 291 288 288 288 287 285 284 283 282 282 281 280 280 280 281 281 282 283 283 283 283 284 284 284 285 285 286 287 287 287 287 287 288 289 288 290
292 292 292 292 291 290 289 288 288 287 286 285 284 283 283 282 282 281 281 280 281 281 281 281 281 282 282 283 283 283 283 284 284 285 285 286 286 286 287 287 286 287 289
292 292 291 291 290 289 288 288 287 286 285 283 283 282 282 282 281 280 280 280 281 281 281 281 281 281 281 281 282 282 282 283 283 284 284 285 285 286 286 287 286 287 290
291 291 290 290 290 288 288 287 286 285 284 283 282 282 281 280 280 279 279 280 280 280 280 280 279 279 279 279 280 281 281 282 283 284 284 284 285 285 286 286 287 286 289
290 289 289 289 289 288 287 287 286 284 283 282 282 281 280 279 279 278 278 278 279 279 279 279 279 280 280 281 281 281 281 282 283 284 285 284 284 285 285 286 287 287 287

GFSMA_850_thetae_021.txt.gz
Theta_e
321 317 321 323 323 322 322 321 320 318 316 315 315 314 314 313 312 312 312 311 311 310 308 307 306 306 306 307 309 311 313 313 312 311 312 311 311 311 309 307 308 316 319
317 321 319 323 322 321 320 318 316 315 315 314 313 312 312 311 311 311 311 311 310 309 308 307 305 304 304 303 303 303 305 309 311 312 311 312 312 311 311 310 308 307 312
322 320 322 321 320 317 316 315 315 313 313 312 311 310 310 309 309 309 308 309 310 309 308 307 306 305 305 303 302 302 302 302 303 307 310 312 313 313 312 311 311 307 306
322 321 319 318 317 313 313 313 312 311 311 310 310 309 308 307 307 308 307 308 310 309 308 307 304 304 301 299 298 298 298 299 300 302 303 306 310 313 313 313 312 311 308
317 317 316 315 311 312 312 311 311 311 310 310 308 307 307 305 306 305 305 306 309 307 306 304 302 301 300 299 298 297 298 301 297 297 299 301 303 307 311 314 315 312 311
312 313 313 311 310 311 311 311 311 310 309 307 305 306 304 304 303 303 305 307 305 304 304 303 301 301 300 299 298 298 300 301 301 301 297 295 297 301 306 310 314 316 312
311 311 311 311 311 311 310 309 309 308 304 303 304 304 303 303 302 303 303 303 304 302 302 301 301 300 299 298 298 298 298 299 300 298 295 293 294 295 298 304 310 315 316
311 310 310 310 309 308 307 306 305 304 303 302 303 302 301 300 301 301 301 301 300 300 300 300 299 298 297 296 296 295 297 297 296 295 293 292 292 293 294 295 301 309 315
310 309 309 308 307 305 303 303 304 304 302 301 301 300 299 299 299 299 298 298 298 299 298 297 296 295 295 294 294 294 293 294 293 292 291 292 293 292 293 294 295 300 308
309 308 306 305 304 303 303 303 302 302 300 300 300 299 300 299 298 297 296 295 296 296 295 295 294 293 293 293 293 293 292 291 291 291 289 291 294 296 295 294 296 295 300
303 302 301 302 304 303 303 302 302 301 299 300 299 298 297 296 295 295 294 294 294 294 294 293 293 293 292 292 292 292 291 290 289 289 288 289 292 296 298 299 301 302 304
299 299 299 299 300 301 302 302 301 300 299 299 296 296 295 294 293 293 293 293 293 293 293 293 292 292 292 291 291 291 290 290 290 289 288 290 291 295 297 298 300 302 303
298 298 298 298 299 300 301 300 300 299 299 297 295 295 294 294 294 293 292 292 292 292 292 292 291 291 291 290 290 289 289 288 288 288 289 289 290 293 294 294 297 300 302
297 297 297 298 300 300 300 298 298 298 297 296 295 294 294 294 293 292 292 292 291 291 291 291 291 290 290 289 288 288 288 288 288 287 288 289 289 291 293 294 295 298 300
296 296 297 297 298 299 299 299 299 298 297 296 295 295 294 293 293 292 292 291 291 291 290 290 289 289 288 288 288 288 288 288 288 288 287 288 288 289 292 293 294 296 298
296 296 296 296 296 297 297 298 298 297 296 296 295 294 293 293 293 292 291 290 290 290 290 289 289 288 287 287 287 287 287 288 287 288 289 287 288 289 290 293 293 294 294
296 295 295 296 296 296 296 296 296 296 296 295 294 293 293 292 292 291 290 289 289 289 289 288 288 287 287 287 286 286 286 287 287 288 288 289 288 290 290 292 291 291 292
296 295 295 295 295 295 295 295 295 295 295 294 293 293 292 291 290 290 289 289 288 288 287 287 286 286 286 286 285 285 286 286 287 287 288 289 290 290 290 291 290 291 290
295 295 295 295 295 295 294 294 293 293 293 293 292 291 291 290 289 288 287 287 286 286 286 285 285 285 285 285 285 285 285 286 286 287 288 289 289 287 287 288 289 290 290
295 294 295 294 295 294 294 293 292 292 292 292 291 290 290 288 287 286 284 284 284 284 284 283 283 284 284 284 285 285 285 285 286 287 287 289 289 288 287 287 288 289 290
295 294 294 294 294 294 293 292 292 292 291 291 290 289 287 286 285 283 282 282 282 282 282 283 283 283 284 284 285 284 285 285 285 286 287 287 289 288 289 289 289 290 290
294 294 294 293 294 294 293 290 290 289 289 289 288 287 286 285 284 283 283 282 281 281 282 282 283 282 282 283 283 284 284 284 284 285 286 286 288 289 289 289 289 289 289
294 294 293 293 293 293 291 289 288 288 288 288 286 285 285 284 284 284 283 281 281 282 282 282 282 282 283 282 282 283 283 284 284 284 285 285 286 287 287 288 287 287 287
294 293 293 292 292 291 290 289 288 287 287 286 285 285 284 284 283 282 280 280 281 281 282 282 281 281 281 281 280 281 282 283 283 283 284 284 285 285 286 287 287 287 286
294 293 292 292 291 291 290 288 287 287 286 286 285 284 283 282 282 279 279 280 280 281 281 280 280 280 280 280 280 281 281 282 282 283 284 285 285 285 286 286 286 286 287
293 292 291 291 291 290 289 288 287 286 285 285 285 284 283 282 281 278 277 277 279 280 278 278 279 280 281 282 282 282 282 282 283 283 284 285 286 285 286 286 286 286 287

GFSMA_850_thetae_024.txt.gz
Theta_e
326 321 317 320 318 322 322 321 320 319 317 315 315 313 312 312 311 311 311 311 311 310 310 309 308 307 305 303 303 304 304 306 309 311 312 312 312 311 310 310 309 308 307
318 319 318 320 321 322 321 319 316 315 314 313 312 312 311 310 309 309 310 309 308 309 310 308 307 306 306 305 304 303 303 303 303 304 307 310 312 313 312 311 311 310 308
323 322 322 321 321 320 318 314 314 313 312 311 310 310 310 309 308 307 307 308 307 307 310 309 307 306 305 304 301 300 300 299 299 301 302 303 306 309 313 313 312 311 311
322 322 320 319 318 315 313 312 311 311 311 311 310 308 308 307 307 305 306 306 305 309 309 308 306 305 303 302 300 301 302 303 302 299 298 299 301 303 306 310 314 313 312
318 318 317 315 312 311 312 312 312 311 310 309 308 306 305 305 304 304 304 303 304 308 307 305 304 303 302 301 300 300 301 302 303 303 303 300 296 298 301 302 306 313 314
312 313 314 312 312 312 312 311 310 309 308 307 303 302 304 304 303 302 304 304 304 304 304 303 302 301 301 300 299 299 300 300 301 302 301 300 299 295 294 296 299 304 311
312 311 312 312 311 311 310 309 306 304 304 303 303 303 303 302 301 301 302 301 301 302 301 301 300 300 298 297 297 297 297 299 299 298 298 297 297 296 293 293 294 296 301
312 311 311 310 310 309 306 303 303 303 304 303 302 301 302 301 300 300 300 299 298 298 298 299 299 297 296 295 295 295 295 293 293 295 295 295 295 296 296 294 293 294 295
311 310 309 307 304 304 304 303 303 303 303 302 300 300 300 300 300 299 298 298 297 296 296 295 295 295 294 294 293 293 293 292 292 291 291 292 293 294 296 297 298 295 294
309 307 304 303 303 303 304 303 303 303 302 301 300 300 299 298 297 296 296 295 294 294 294 294 293 293 293 293 292 292 292 292 291 291 290 291 292 292 294 296 298 299 299
304 301 301 300 299 298 300 301 302 302 302 300 299 299 297 296 296 295 294 294 293 293 293 293 293 293 292 292 292 291 291 290 290 290 290 290 291 291 293 295 297 299 299
300 299 298 297 295 298 299 300 301 301 301 300 299 298 296 295 294 294 294 293 293 293 292 292 292 292 292 291 291 290 290 289 289 289 289 289 289 291 292 293 296 298 299
298 297 296 295 296 297 299 300 301 301 299 298 298 296 295 294 294 294 293 293 293 292 292 291 291 291 291 290 290 289 289 288 288 288 288 288 289 289 291 291 294 295 296
296 296 296 295 295 297 299 300 300 298 298 298 297 296 295 294 294 294 293 293 292 291 291 291 291 290 289 289 290 288 288 288 288 287 287 287 288 289 289 290 292 293 293
296 296 296 295 296 296 297 298 296 298 298 297 297 296 295 294 294 293 293 292 291 291 290 290 290 290 289 289 288 288 287 287 287 287 287 286 287 288 289 289 288 291 293
296 296 296 296 296 296 295 296 297 297 296 296 296 296 295 294 293 293 292 291 290 290 290 289 289 289 289 288 287 287 287 286 286 285 286 287 287 288 288 288 289 290 292
297 296 296 295 295 296 296 296 296 295 295 295 295 295 294 293 292 292 291 290 289 289 288 288 287 287 287 286 285 285 285 285 285 286 287 287 287 288 289 288 289 290 291
297 296 295 295 295 295 295 294 293 294 293 294 293 293 293 292 291 290 289 288 288 287 287 286 286 285 285 284 284 284 285 285 285 286 286 287 287 288 289 289 290 290 290
297 296 295 295 295 295 295 295 294 293 293 293 292 292 291 291 290 289 288 287 286 284 284 284 284 283 283 283 283 284 285 285 285 285 286 286 287 287 289 289 288 288 289
297 296 295 294 294 294 294 294 294 293 292 292 292 291 290 289 288 287 286 285 283 283 282 282 282 282 282 282 283 283 283 284 283 284 285 285 286 287 289 288 287 287 287
296 295 295 294 294 294 294 294 293 291 291 291 290 290 289 287 286 285 284 284 283 282 281 281 281 282 282 283 282 282 283 283 283 284 284 284 286 286 288 287 288 289 289
295 295 295 294 294 293 294 293 292 289 289 289 289 288 287 286 285 284 284 284 283 282 281 282 282 282 282 282 282 282 281 281 282 283 284 284 284 285 288 288 288 289 288
295 295 294 294 293 293 293 292 290 288 287 287 287 287 286 285 285 284 284 283 280 281 281 281 282 282 282 281 281 280 280 280 280 281 282 282 283 284 285 286 287 288 287
294 294 294 293 293 292 292 291 290 288 287 287 287 286 285 284 284 283 282 279 279 279 280 281 281 280 280 280 280 280 280 280 281 281 281 283 283 284 284 285 285 286 286
293 294 294 293 292 291 291 291 290 288 287 286 286 285 285 284 283 283 281 279 278 278 280 280 279 279 280 280 281 282 282 281 281 281 282 282 283 285 285 284 285 285 285
293 293 293 292 291 291 290 290 289 288 286 285 285 284 284 284 283 283 280 279 279 279 278 278 279 280 280 281 282 283 283 282 282 282 282 283 283 284 285 285 286 286 286

GFSMA_850_thetae_030.txt.gz
Theta_e
324 325 324 323 319 319 322 322 321 320 319 318 315 313 312 311 310 308 308 307 307 306 306 307 307 308 308 308 308 308 307 306 304 303 302 302 303 303 305 309 311 312 312
326 325 323 320 318 320 320 321 320 318 314 312 311 311 309 307 305 308 307 307 306 305 304 305 307 308 306 305 305 305 304 305 304 301 299 301 300 300 302 302 304 309 311
322 320 319 322 321 320 319 317 313 311 311 310 310 310 305 303 306 305 305 305 304 303 304 307 307 306 304 304 304 303 303 303 302 301 300 299 299 298 298 298 299 300 303
321 323 323 322 319 314 311 311 311 310 310 310 309 302 300 300 302 302 302 302 303 303 307 306 303 303 302 302 302 303 303 303 302 302 301 300 298 296 296 295 296 298 297
322 322 320 317 313 311 311 311 310 310 310 308 302 300 299 301 304 303 302 301 301 301 303 304 303 301 301 300 300 300 301 301 301 302 300 300 298 295 294 295 296 296 296
318 313 312 312 311 311 311 310 310 309 304 300 299 298 300 300 302 301 299 300 300 299 298 299 298 297 297 297 297 297 298 298 299 297 296 295 296 296 296 296 294 295 295
311 311 311 311 311 311 310 308 304 300 298 297 299 301 300 299 299 300 299 299 299 298 297 296 295 294 294 294 294 294 295 295 296 295 295 295 295 295 295 295 295 295 295
311 312 312 311 310 309 306 301 299 298 298 298 301 302 300 299 299 298 296 297 297 295 295 295 294 293 293 293 292 292 293 293 294 294 293 293 293 293 294 294 294 295 295
312 312 311 311 311 305 300 300 299 300 300 300 302 302 300 299 298 297 296 295 295 294 294 294 294 292 293 292 292 292 292 292 292 291 291 292 293 293 293 293 293 293 294
312 312 311 311 308 302 300 299 296 296 298 300 301 301 301 300 299 298 296 296 295 294 293 293 292 291 291 291 291 291 291 291 291 291 290 291 292 292 292 292 292 292 293
313 310 312 308 302 299 297 294 294 295 298 301 301 301 300 299 298 297 295 295 294 294 294 293 292 292 291 290 290 290 290 289 289 289 289 290 291 291 291 291 291 291 292
308 307 302 302 298 295 294 293 293 297 299 300 300 298 298 297 297 296 295 295 294 294 293 293 292 291 290 290 289 289 289 289 289 289 289 289 289 289 289 290 290 291 291
308 308 300 296 295 294 293 293 294 295 298 298 297 297 298 297 297 296 295 295 294 293 293 292 292 291 290 289 289 289 289 289 289 289 288 288 288 288 288 288 289 290 291
300 298 295 295 294 293 293 293 293 294 296 297 297 296 296 295 295 295 296 296 295 294 293 292 291 290 290 289 289 288 289 289 288 288 287 287 285 286 287 288 289 289 290
299 296 296 294 294 293 292 292 293 295 295 295 296 295 295 294 294 295 295 294 293 291 291 290 290 289 288 288 287 287 287 287 286 285 284 284 285 286 287 287 288 289 289
298 299 297 295 294 294 293 293 294 295 295 295 294 293 293 292 293 294 293 293 291 290 290 289 288 287 286 285 284 283 283 283 283 283 283 284 284 284 286 286 287 287 287
301 300 298 297 296 296 294 293 294 294 294 294 294 293 293 293 293 292 292 291 290 289 288 287 286 285 283 283 283 283 282 282 282 282 283 283 284 284 285 285 285 285 286
300 299 299 298 296 296 294 293 294 294 295 294 294 293 292 292 292 291 290 290 288 287 286 285 284 283 282 282 282 282 282 282 282 282 282 282 282 283 284 284 284 286 285
299 299 298 297 296 295 294 294 293 293 294 294 294 292 292 292 291 290 289 288 287 286 285 284 283 282 281 282 281 281 282 282 282 281 281 281 281 283 284 284 284 284 286
299 298 297 295 295 295 295 294 294 294 293 293 292 291 291 290 290 289 287 287 286 284 284 283 282 280 280 281 281 281 281 281 280 280 280 280 280 281 283 283 283 284 287
298 297 295 294 294 295 295 294 294 293 292 292 291 289 289 289 288 287 286 285 284 284 283 282 280 279 280 280 280 280 280 280 280 281 281 281 281 281 282 282 282 283 286
296 294 295 293 294 295 294 294 293 293 292 291 290 288 287 286 285 286 285 284 284 283 282 280 279 279 280 280 280 280 279 279 281 281 282 282 281 281 281 282 282 283 285
296 295 293 294 294 293 293 293 293 293 292 291 291 289 288 286 285 285 284 284 283 282 281 279 279 279 279 279 279 279 280 281 281 282 282 282 282 282 282 282 282 283 285
295 293 293 293 293 293 293 293 292 292 291 291 290 289 287 285 285 284 284 283 283 282 281 280 280 279 279 279 279 280 281 281 281 281 282 282 283 282 282 283 285 285 284
293 292 292 292 292 293 293 293 292 291 291 290 289 287 286 285 284 284 283 282 282 281 280 280 280 279 278 279 280 280 280 280 280 281 282 283 283 283 283 283 284 284 285
292 291 291 292 292 293 293 292 292 291 290 289 288 287 286 284 284 283 282 282 281 281 280 280 280 280 278 278 279 279 280 280 280 281 283 282 283 283 283 282 283 283 285

GFSMA_850_thetae_033.txt.gz
Theta_e
320 324 324 323 322 319 320 321 320 320 319 316 314 313 312 311 308 306 305 307 307 306 305 307 306 307 307 307 307 306 306 305 304 304 303 301 300 300 301 303 303 304 305
324 325 324 323 321 319 320 321 321 319 315 312 311 310 310 306 302 304 306 306 306 305 304 306 308 307 306 305 305 304 304 304 303 302 302 302 301 299 298 298 298 299 301
325 324 323 321 321 321 320 318 314 311 311 310 310 309 304 300 299 299 300 300 301 301 303 306 307 305 304 305 304 304 304 304 303 303 302 301 300 299 299 298 297 297 296
323 322 320 321 321 319 314 311 311 310 310 310 307 301 299 298 300 301 302 302 300 302 304 306 304 304 303 302 301 303 303 302 302 302 302 301 299 297 296 296 295 294 294
323 323 323 322 320 312 311 311 310 310 309 304 299 298 298 300 301 303 302 302 300 301 305 304 303 301 299 298 298 299 300 300 300 301 300 298 296 295 294 294 295 295 296
321 322 321 317 311 311 311 310 309 305 301 299 297 296 298 299 299 300 299 299 299 299 299 299 299 298 296 295 296 297 297 297 298 298 297 297 296 296 295 295 296 296 296
320 317 312 311 311 311 310 308 305 300 299 297 296 297 298 298 299 298 299 298 297 298 297 295 295 295 294 294 293 293 295 295 295 296 296 295 294 294 294 295 295 295 295
313 311 311 311 311 310 309 307 302 299 297 296 296 297 300 299 299 298 298 297 296 295 295 294 293 294 293 292 292 292 292 292 293 294 294 293 293 294 294 294 294 294 294
312 311 311 311 310 310 309 308 301 298 295 295 297 299 300 299 299 298 297 297 295 295 295 294 293 293 292 291 291 291 291 291 291 291 292 292 293 293 293 294 293 293 294
312 311 312 310 310 307 306 301 297 295 294 295 298 301 301 300 299 298 298 297 296 296 294 294 293 293 292 291 291 290 289 289 289 290 291 291 292 292 292 292 292 292 292
312 312 311 308 304 304 302 296 294 293 294 296 299 300 300 299 298 297 297 296 295 294 295 294 293 293 292 291 291 290 290 289 289 289 289 290 291 291 291 291 291 291 291
313 312 308 305 303 303 295 295 293 293 294 297 298 298 297 297 297 297 296 296 295 295 295 294 294 293 292 291 290 289 289 288 288 289 289 288 289 289 289 289 289 289 290
313 308 304 302 306 299 298 294 293 292 293 295 297 296 296 296 295 295 295 295 295 295 294 293 293 292 291 290 289 289 288 288 288 288 288 288 288 288 288 287 288 289 290
308 303 301 304 300 295 294 293 292 293 293 295 295 295 295 295 294 294 294 295 294 293 292 292 291 290 290 289 288 288 287 287 286 286 286 286 285 285 286 287 288 288 289
304 305 307 297 297 295 294 293 292 292 293 295 295 295 294 293 293 293 292 294 293 292 291 290 290 289 288 287 286 284 284 283 283 283 283 283 285 285 286 286 287 288 288
309 308 299 300 298 296 294 294 293 292 294 294 294 293 294 293 293 292 292 292 292 292 290 290 289 287 286 285 283 282 282 282 282 282 282 283 283 284 285 285 285 286 287
307 300 303 300 298 295 295 295 293 293 293 293 294 294 293 293 292 291 291 291 290 290 289 288 287 286 284 283 282 282 282 282 282 282 282 282 282 282 282 282 283 284 285
301 302 300 299 298 295 295 294 294 294 293 293 294 293 293 292 292 291 291 290 289 288 286 286 286 284 283 282 280 281 282 282 281 281 281 281 280 281 281 281 283 284 284
302 301 299 298 296 295 294 294 294 295 294 293 293 292 292 292 290 291 290 289 287 287 286 284 284 283 282 281 280 280 281 281 281 280 280 280 280 280 281 281 283 284 284
301 299 298 297 295 295 294 295 295 294 294 293 292 292 292 289 289 289 288 287 286 285 284 284 283 282 281 280 280 280 281 280 279 280 281 281 282 281 281 281 281 283 283
298 297 296 295 296 294 294 295 294 294 293 293 292 291 290 288 287 286 285 285 285 284 284 283 282 281 280 279 279 279 279 279 280 281 281 282 282 282 282 281 281 282 282
296 295 299 299 296 294 294 294 293 293 293 293 292 291 290 289 289 287 285 284 284 284 283 282 281 280 279 279 279 279 279 280 280 281 281 281 282 283 282 282 282 282 282
299 299 299 296 293 293 293 293 293 293 293 292 291 291 290 289 288 286 285 284 284 283 283 282 280 280 280 279 278 278 279 280 281 280 280 281 282 283 283 283 282 284 284
299 300 295 293 292 291 291 293 293 293 292 292 291 290 290 288 286 285 284 284 283 283 282 280 280 280 279 279 278 279 279 280 280 280 280 281 283 283 283 283 282 284 284
298 294 292 291 291 290 291 292 292 292 292 291 291 290 289 287 286 284 284 283 283 282 281 280 280 280 279 279 279 278 279 279 279 280 281 281 282 283 283 283 283 284 282
293 291 291 290 290 289 289 290 292 292 292 291 290 289 288 287 287 285 283 283 282 281 281 280 280 280 279 279 279 278 278 279 279 280 281 281 282 282 283 283 282 282 282

GFSMA_850_thetae_036.txt.gz
Theta_e
322 322 322 323 323 322 319 320 320 320 319 317 314 311 310 310 309 305 301 302 305 306 305 308 308 307 307 306 305 305 304 305 303 302 303 303 302 302 301 300 299 298 298
322 322 324 324 322 320 319 320 320 319 316 311 310 310 309 307 301 299 298 299 301 302 303 307 308 308 307 305 304 303 304 303 303 302 302 301 301 301 299 299 299 299 299
323 325 324 323 323 320 321 319 317 312 310 310 310 308 303 299 298 299 300 300 300 299 300 304 307 307 305 305 304 304 304 304 303 302 302 302 301 299 297 296 296 296 297
323 325 324 322 320 321 319 313 310 310 310 309 306 300 298 298 299 300 301 301 300 299 302 305 306 305 304 303 302 303 302 303 302 301 301 300 300 299 298 297 295 296 296
324 325 322 321 322 319 312 311 310 310 307 302 299 297 297 298 298 299 299 298 298 299 301 304 304 303 302 301 298 299 300 300 300 300 300 298 298 297 297 296 295 296 297
320 323 323 322 319 312 311 310 309 304 300 299 297 297 297 297 298 299 298 298 298 297 296 298 297 296 296 295 295 295 297 297 298 298 298 297 297 296 295 295 295 295 296
320 322 321 317 312 311 310 308 304 300 299 297 296 296 297 298 298 298 298 298 298 297 296 294 294 294 293 293 293 293 293 295 295 296 296 296 295 294 295 295 295 295 295
320 319 316 312 311 310 308 306 303 300 297 296 295 296 297 298 299 298 298 298 297 297 296 296 295 294 293 293 292 292 291 291 292 293 293 293 294 294 294 294 294 295 295
316 314 312 311 311 308 307 305 300 296 297 296 294 296 298 299 299 298 298 297 297 296 295 295 295 294 293 293 292 291 291 290 290 290 292 292 293 293 293 293 294 294 294
313 311 311 311 309 307 305 304 299 300 301 296 294 295 297 299 300 299 297 297 297 296 296 295 294 295 294 293 292 291 291 290 289 289 291 291 292 292 292 292 293 293 293
313 312 311 310 308 307 306 307 306 308 304 294 293 295 297 298 297 297 297 296 295 295 295 295 295 294 293 292 292 291 290 290 289 289 288 289 290 291 291 291 291 291 292
315 313 311 309 305 305 308 310 312 299 294 293 293 294 296 296 296 296 295 294 294 294 294 294 294 293 292 292 291 290 290 289 289 288 288 288 288 289 289 290 290 290 290
316 313 311 310 304 305 311 307 296 295 293 292 293 295 295 295 294 294 294 294 294 293 293 292 292 293 292 291 290 289 289 288 287 286 286 286 287 287 287 288 288 288 289
316 313 311 305 307 311 309 300 295 294 292 292 294 295 295 294 294 293 293 294 293 293 293 291 291 291 291 290 288 288 287 285 284 284 283 283 283 283 285 286 287 287 288
316 314 310 309 308 306 301 296 294 293 292 292 293 294 293 293 293 293 292 293 293 292 291 291 290 290 288 287 286 285 284 283 283 282 283 283 283 284 285 285 286 287 287
316 311 308 310 303 301 298 295 295 294 293 292 293 293 294 293 292 293 292 292 291 291 291 290 289 288 286 285 284 283 282 282 282 282 282 282 282 283 283 284 284 284 285
313 307 309 305 302 299 296 295 296 294 294 294 293 292 293 292 292 292 291 291 291 290 290 289 288 286 285 284 283 282 281 281 281 282 281 281 281 281 281 281 282 282 283
308 307 302 301 299 298 295 297 296 294 294 294 294 293 292 292 291 292 290 289 289 289 288 287 286 285 284 283 282 281 281 281 281 281 280 280 280 280 280 281 281 281 281
305 301 301 300 298 296 296 297 294 294 294 294 294 293 292 291 291 289 288 289 288 288 286 286 284 284 283 282 281 281 281 281 281 280 280 280 281 282 282 281 281 281 281
304 300 300 299 297 296 299 295 294 294 295 294 293 293 292 291 290 289 288 287 286 286 285 284 284 283 282 281 280 280 281 280 279 280 281 281 281 281 282 282 282 282 281
300 299 297 296 296 299 299 297 294 295 294 293 293 293 292 291 290 289 287 287 285 284 284 283 283 282 282 280 280 280 279 279 280 281 281 281 281 282 283 283 282 282 281
299 298 296 297 299 299 295 294 294 294 293 293 293 292 292 291 290 289 288 287 285 284 284 283 283 282 281 280 280 279 279 279 279 280 280 281 281 282 283 283 283 282 282
298 296 297 299 298 298 294 293 293 292 292 293 293 292 291 291 290 289 287 285 284 284 283 283 282 281 280 280 279 279 278 278 279 279 279 280 281 282 283 283 283 283 282
297 298 299 299 296 293 291 291 291 291 292 292 292 292 291 290 290 288 286 285 284 284 283 282 281 280 280 280 279 279 279 278 278 279 279 280 281 282 283 283 283 282 283
299 299 298 294 292 291 290 289 289 290 291 292 292 291 291 290 289 288 286 285 284 283 283 281 280 280 280 279 279 279 279 278 278 278 280 280 280 282 283 283 283 283 283
298 293 292 291 291 290 289 289 289 289 290 292 291 291 291 290 289 288 287 286 284 283 282 281 280 280 280 279 279 279 278 278 278 277 279 279 280 281 281 283 283 283 282

GFSMA_850_thetae_039.txt.gz
Theta_e
314 320 322 323 323 322 320 320 319 320 320 318 313 310 310 309 306 302 299 299 300 302 304 307 307 306 307 306 306 305 304 302 304 303 301 300 301 300 300 299 298 298 297
322 322 322 323 323 321 320 319 320 320 318 311 310 310 308 303 300 299 298 298 299 299 300 305 307 309 307 306 305 303 303 303 304 302 302 302 301 300 299 298 297 296 294
322 322 323 324 322 321 320 320 319 314 310 310 310 306 300 299 298 298 298 298 299 298 298 301 308 308 307 306 305 304 304 304 303 302 302 302 301 300 299 299 298 296 298
321 322 324 323 322 320 320 319 312 310 310 309 303 299 298 297 297 298 298 299 297 298 301 304 307 306 305 304 303 303 303 302 301 301 302 301 300 299 298 298 297 297 298
323 324 324 323 320 320 319 312 310 310 308 302 300 298 297 297 298 299 299 298 298 298 299 301 304 303 303 302 300 298 300 300 300 300 300 300 299 298 298 297 296 296 296
323 323 324 322 322 320 314 311 310 308 303 300 297 297 296 297 298 298 298 298 297 298 297 296 296 297 296 294 294 294 297 297 298 298 298 298 298 298 297 296 296 296 296
320 320 322 322 321 317 311 310 308 306 302 298 297 298 298 297 298 298 298 298 298 298 296 296 295 296 295 294 293 293 293 295 295 295 295 295 295 295 295 295 295 296 296
320 320 321 321 318 311 311 308 308 303 298 298 299 300 300 299 298 298 298 299 297 297 296 295 295 296 295 294 293 293 292 291 292 293 293 294 294 294 294 295 295 295 295
320 320 320 317 312 311 309 308 305 303 304 301 300 299 299 300 297 298 298 297 297 296 296 296 295 295 294 294 293 293 292 291 291 290 291 293 293 293 294 294 294 294 294
319 318 316 313 311 310 308 305 307 304 307 306 305 297 295 295 299 299 298 297 295 294 294 295 295 293 294 294 293 292 291 291 291 290 290 292 292 292 293 293 293 293 293
318 316 313 311 311 309 306 306 309 310 310 306 296 295 294 294 295 297 296 296 295 295 295 294 294 295 294 294 292 291 292 292 290 289 289 289 289 291 291 291 292 292 292
317 315 312 312 311 308 305 307 310 312 304 298 297 294 294 296 297 297 296 296 295 294 294 293 293 292 292 292 292 292 291 290 290 289 288 288 287 287 289 289 290 290 291
318 316 314 313 310 307 305 309 311 307 298 295 295 294 293 294 294 295 295 295 295 294 294 293 293 291 291 292 292 291 290 289 288 287 285 284 284 284 284 287 287 288 289
320 316 314 311 308 305 307 309 306 301 294 297 294 292 293 293 293 293 294 294 294 294 294 292 292 290 290 291 289 288 287 286 285 284 284 283 283 283 283 286 286 287 287
319 316 313 310 306 305 309 306 300 295 297 298 295 293 292 293 293 292 293 293 294 294 293 292 291 290 289 288 287 286 285 284 284 283 282 282 282 282 283 284 285 286 286
318 316 312 308 304 308 307 304 296 296 300 296 293 292 292 293 293 292 292 292 292 291 292 291 290 289 288 287 285 284 284 283 282 282 282 282 282 282 282 283 284 284 284
317 315 310 304 306 304 299 296 296 299 298 294 294 294 293 293 293 291 291 292 292 291 290 290 289 288 286 285 284 283 282 282 282 282 282 281 282 281 281 281 280 281 282
318 312 305 304 304 300 298 297 297 300 295 294 294 294 293 293 292 291 291 291 290 290 289 289 288 286 285 284 283 282 281 281 281 281 281 281 281 280 281 281 282 282 282
315 310 303 303 304 299 297 296 298 299 295 295 294 294 294 293 292 292 290 289 289 288 288 287 286 285 284 283 282 281 281 281 281 281 281 281 281 281 281 281 282 282 282
310 304 302 301 299 297 297 296 299 299 295 295 295 294 293 293 292 291 290 289 289 288 287 286 285 284 284 283 282 281 281 281 281 281 281 281 281 281 281 282 282 283 283
301 301 300 299 297 297 296 299 299 295 294 294 295 294 293 293 292 291 290 290 288 287 286 285 285 284 284 283 281 281 281 281 281 281 281 282 282 282 282 282 283 283 283
301 299 297 296 296 299 299 298 297 294 293 293 294 293 293 293 292 291 290 289 289 287 285 285 284 284 283 282 280 281 281 281 281 281 281 281 282 282 282 283 283 283 283
298 297 298 300 300 299 298 297 293 292 292 291 292 292 293 293 292 291 290 290 289 286 285 284 284 283 283 281 280 280 281 281 281 281 280 281 281 282 283 283 283 283 283
298 301 300 299 298 298 296 292 291 290 290 290 290 292 292 292 292 291 290 289 288 286 285 284 283 283 281 280 280 280 280 280 280 280 280 280 281 282 282 283 283 283 283
299 298 299 299 297 293 291 291 290 289 289 289 289 290 292 291 291 291 290 289 288 287 286 284 283 282 281 280 280 280 280 280 280 280 280 280 281 281 282 283 284 283 284
299 296 294 292 291 291 290 289 289 289 289 289 288 288 291 291 290 290 290 289 288 287 286 284 283 282 281 280 280 280 280 280 280 280 280 280 280 281 281 283 284 284 284

GFSMA_850_thetae_042.txt.gz
Theta_e
314 317 318 322 322 322 322 320 319 319 319 318 311 310 310 306 301 303 305 301 299 300 303 311 310 309 308 307 305 305 303 303 303 302 302 302 301 301 300 299 298 297 294
313 319 321 322 323 322 320 319 318 318 317 312 310 310 304 301 300 299 304 306 300 299 299 302 308 309 308 306 306 305 303 303 303 302 302 302 302 301 300 299 299 296 298
319 321 322 323 323 322 321 320 320 318 312 310 310 306 303 301 299 298 302 305 305 302 297 299 304 308 308 307 305 305 305 305 304 303 303 302 301 301 300 299 298 298 298
322 322 323 323 323 322 320 320 317 312 311 310 306 304 302 301 298 299 301 301 303 304 306 300 305 305 306 306 306 304 304 303 302 302 302 302 301 300 300 299 298 297 297
322 323 323 323 323 321 320 319 314 311 310 307 305 304 303 303 301 301 301 302 301 302 303 302 299 303 304 304 303 301 301 300 300 300 300 300 300 300 299 299 297 297 297
323 323 324 324 323 320 320 317 311 310 308 306 303 304 305 303 302 302 301 300 300 299 299 299 299 299 298 297 296 295 295 297 298 298 299 299 298 299 298 297 297 296 297
323 323 323 323 322 320 318 315 311 309 308 304 307 307 306 304 303 302 301 300 300 299 299 298 298 298 298 297 296 295 295 296 296 296 295 296 296 296 296 296 296 296 297
324 321 321 321 322 320 318 311 310 308 305 309 308 307 310 306 303 302 302 301 300 299 298 297 297 297 297 297 297 295 294 294 294 293 294 294 294 294 295 295 295 295 296
324 321 321 321 321 319 314 311 309 308 307 308 309 306 306 306 304 303 302 302 300 299 298 297 297 297 296 296 296 295 295 294 294 292 292 294 294 294 295 295 295 295 295
322 321 321 321 320 317 312 311 310 308 310 311 311 308 301 302 302 303 303 301 300 299 298 298 297 297 296 295 295 294 294 293 292 292 291 291 292 292 293 293 293 294 294
321 320 320 319 317 314 312 310 309 308 312 312 308 303 303 302 302 301 300 300 299 299 298 297 297 296 296 295 294 294 293 292 292 292 291 290 290 291 291 292 292 292 293
321 320 317 316 314 312 311 309 306 308 311 307 302 301 301 302 301 300 300 300 299 298 297 297 296 296 295 294 293 292 292 292 292 291 290 288 287 286 286 288 289 290 290
322 320 317 315 312 311 310 307 306 309 306 303 299 301 301 300 299 299 298 298 298 297 297 297 296 295 294 293 293 292 291 290 289 288 286 284 284 284 284 284 287 288 288
322 321 318 316 313 311 308 305 306 308 300 295 299 299 299 300 299 298 297 297 297 296 296 296 295 294 293 293 292 290 289 288 286 284 284 284 283 283 283 283 284 286 287
323 321 319 316 314 312 306 304 306 299 295 298 300 299 299 298 297 297 296 296 296 296 296 295 294 293 292 292 291 289 287 287 285 284 283 283 283 282 282 282 284 285 286
323 321 319 316 313 308 305 305 306 297 298 300 300 299 298 297 296 296 296 295 295 295 295 294 293 292 292 291 290 287 287 286 284 283 283 282 282 282 282 282 283 284 284
321 321 319 315 313 308 304 305 298 298 299 300 299 297 296 296 296 296 295 295 294 294 294 293 292 291 291 290 288 287 287 285 284 283 283 282 282 282 282 281 281 281 282
321 321 318 315 310 304 304 302 297 296 298 300 298 297 297 296 296 295 295 294 294 293 293 292 292 291 290 289 287 287 286 285 284 284 283 282 282 282 281 281 282 282 282
320 319 314 309 302 302 300 298 298 296 300 298 298 297 297 296 296 295 294 294 293 292 292 291 291 290 289 288 287 286 285 284 284 283 283 282 282 282 282 281 281 282 282
318 317 311 305 302 300 300 297 297 299 300 299 297 296 296 296 296 295 294 294 293 292 291 291 290 289 288 287 286 286 285 284 284 284 284 284 283 283 283 283 282 282 283
313 312 309 303 301 300 298 301 299 299 299 297 297 296 296 296 295 294 293 293 292 292 291 290 289 288 288 287 286 286 284 284 284 284 284 284 284 284 284 284 284 284 284
306 302 304 300 303 298 299 301 299 299 298 295 295 295 295 295 294 293 293 292 291 291 291 290 289 288 287 287 286 285 284 284 284 284 284 283 283 284 284 285 284 284 283
302 303 300 302 299 298 300 299 298 297 294 294 294 294 294 293 293 293 293 293 291 291 290 289 288 287 287 286 285 283 283 284 284 283 283 283 283 283 284 285 284 284 283
302 300 298 298 300 299 299 298 297 293 292 292 292 292 293 293 293 293 292 292 291 290 289 289 287 287 286 285 284 283 283 283 283 283 283 283 283 283 284 284 284 284 284
299 299 299 299 298 297 295 292 291 291 291 291 291 291 291 292 292 292 292 292 291 290 290 289 288 286 285 284 282 282 283 283 283 283 283 283 283 283 283 284 285 285 284
298 295 294 294 294 291 291 290 290 290 291 291 291 291 291 290 289 289 291 291 291 290 290 289 287 287 286 284 283 281 282 283 283 283 283 282 282 282 282 283 284 284 285

GFSMA_850_thetae_045.txt.gz
Theta_e
323 324 325 325 325 324 323 321 320 319 320 317 314 313 310 308 306 306 308 306 301 299 301 306 310 311 309 308 306 306 305 303 304 303 302 304 302 302 301 300 299 297 295
323 324 325 325 324 323 323 321 320 319 318 315 313 311 309 306 306 303 306 308 306 301 298 300 309 309 310 309 306 305 305 304 304 303 305 303 302 302 302 300 300 299 297
323 325 326 325 324 323 322 321 320 319 317 314 312 310 307 306 306 303 305 307 307 306 301 298 304 309 310 309 307 306 305 305 304 304 303 303 303 303 302 300 300 299 298
326 325 326 325 324 323 322 321 320 319 315 314 311 309 308 307 306 305 306 305 306 306 307 305 300 305 306 308 308 305 305 305 304 303 302 302 302 302 301 300 300 299 298
325 324 326 325 323 322 322 321 320 317 315 311 310 308 309 308 306 305 305 305 304 304 305 305 301 299 301 305 306 306 304 302 301 301 301 301 301 301 300 300 300 299 298
322 322 325 324 323 322 322 320 318 315 312 310 308 307 309 309 307 306 305 304 303 302 302 302 301 302 300 299 298 299 298 297 298 299 299 299 298 298 298 298 298 297 297
324 324 325 324 323 322 321 319 317 313 311 309 310 313 312 310 309 306 305 304 303 302 301 301 300 300 300 299 299 298 297 296 297 297 297 297 297 296 296 296 296 297 298
326 324 325 324 322 321 320 318 315 313 312 309 312 313 314 312 309 307 305 304 304 303 302 301 300 299 299 299 299 297 296 296 295 294 295 296 296 296 296 296 297 297 297
326 325 325 323 322 320 318 318 316 312 311 311 311 313 311 311 308 308 306 306 305 303 302 301 300 299 299 298 298 297 297 296 295 294 293 293 293 294 295 295 296 296 296
326 325 324 322 320 319 318 316 314 311 310 311 312 312 310 307 306 307 307 306 304 303 302 301 300 299 299 298 298 297 296 295 294 292 292 292 292 293 293 294 294 294 294
325 323 322 320 320 319 316 315 311 310 310 309 312 310 307 307 306 306 306 305 304 302 302 300 300 299 298 298 297 296 295 295 293 292 292 291 291 291 290 291 291 291 292
322 322 321 321 321 319 315 313 310 309 308 308 310 306 306 305 306 305 304 303 303 302 301 300 299 298 298 297 296 295 294 293 291 290 289 289 288 286 285 287 289 289 289
322 321 321 322 320 319 314 312 310 309 306 307 306 305 304 304 304 303 302 302 301 301 300 300 299 298 297 296 295 294 293 293 292 289 287 286 285 284 284 284 285 287 288
323 321 320 322 320 316 314 311 310 306 306 308 302 302 303 303 302 302 301 300 299 300 299 298 298 297 297 296 294 293 293 291 290 289 287 286 284 283 283 283 283 285 287
322 322 321 321 318 315 312 311 307 305 306 303 302 302 302 302 301 301 300 299 298 298 298 298 297 296 295 295 294 293 292 291 289 288 286 285 284 283 282 282 282 283 285
322 323 322 320 318 314 311 310 304 305 304 300 301 301 301 302 300 299 299 298 297 297 297 296 296 295 294 294 293 292 291 289 288 288 286 285 284 283 282 282 282 282 283
322 322 321 318 314 312 312 304 303 302 300 300 300 301 300 299 299 298 298 298 297 296 296 295 295 295 294 293 293 292 291 289 288 287 286 285 284 283 282 283 282 282 282
321 320 321 319 313 313 308 303 302 299 299 299 301 301 299 299 298 298 298 297 296 296 295 295 294 294 293 293 292 291 290 289 288 287 286 285 284 283 283 283 283 283 282
321 320 318 314 312 309 304 301 302 299 300 302 301 300 299 299 298 298 297 297 296 295 295 294 294 293 293 292 291 290 289 289 288 286 285 285 284 284 284 284 284 284 283
318 316 315 313 308 306 301 302 300 301 301 300 300 299 298 298 298 297 297 297 296 295 295 294 293 293 292 291 290 289 289 288 288 286 286 286 285 285 285 285 285 285 285
316 315 313 309 306 305 303 303 302 298 299 300 299 299 298 297 298 297 297 296 295 294 294 294 293 292 292 291 290 289 289 288 287 286 286 286 286 285 285 285 285 286 285
310 309 308 307 305 303 301 302 299 299 299 299 298 297 297 296 296 295 295 294 294 294 293 293 293 292 291 291 290 289 288 288 286 286 286 286 285 285 285 285 285 285 285
303 301 302 301 300 300 299 298 298 299 299 298 297 295 295 294 294 294 294 294 294 293 293 293 292 291 291 290 289 289 288 287 285 285 285 285 285 285 285 285 285 285 285
303 303 301 299 299 299 299 299 299 297 295 294 294 294 294 293 293 293 293 294 294 293 293 292 292 291 290 290 289 288 287 285 285 285 285 285 285 284 285 284 284 284 284
301 301 301 300 299 298 296 295 292 291 293 293 293 293 293 293 293 292 292 292 292 292 292 292 291 290 290 289 288 287 286 284 284 285 285 285 285 284 284 284 284 284 285
297 296 297 297 296 295 295 294 292 292 291 291 292 292 292 292 292 292 291 291 290 290 291 291 291 290 290 289 288 287 285 283 284 284 285 285 284 283 283 283 284 283 284

GFSMA_850_thetae_051.txt.gz
Theta_e
318 317 317 318 320 321 320 321 321 321 320 319 311 312 311 310 308 307 308 308 308 307 302 302 309 312 312 309 310 307 304 303 303 303 304 303 303 302 303 302 301 301 300
319 318 322 323 323 323 323 322 322 321 320 317 311 312 311 310 307 309 309 308 308 308 306 300 306 311 312 311 310 308 305 304 304 304 304 304 303 302 302 302 300 300 300
321 324 324 324 325 324 324 323 322 320 319 318 314 312 311 310 312 312 311 310 308 308 306 306 302 307 312 311 310 308 305 305 304 304 304 303 303 302 302 302 301 301 301
322 323 324 324 323 324 324 323 321 321 319 318 314 313 311 311 312 311 310 309 307 307 306 306 305 302 307 310 309 307 306 306 305 304 303 302 302 302 302 301 300 300 300
324 323 324 324 324 324 323 323 322 321 320 316 314 313 311 310 309 312 313 311 307 306 304 304 305 303 302 303 305 305 304 304 305 304 302 301 300 300 300 299 299 299 298
322 322 323 322 324 323 323 323 322 321 320 317 315 312 311 307 311 313 313 311 309 306 304 304 303 302 302 301 301 300 299 299 300 300 300 299 299 299 298 298 298 297 298
316 319 322 323 324 321 322 322 322 321 320 317 315 312 308 309 313 314 312 311 308 306 305 304 304 303 301 301 300 299 299 299 299 298 297 297 296 295 297 297 297 298 297
321 322 320 321 323 321 323 323 322 322 320 318 315 312 311 313 313 313 312 311 308 306 305 305 304 303 302 301 300 300 299 299 298 298 297 297 295 294 292 295 295 296 296
324 323 323 320 322 321 323 323 323 322 320 319 316 313 313 313 311 311 309 309 308 306 306 305 304 302 302 302 301 300 299 299 298 298 297 296 295 293 291 294 294 294 294
324 324 322 322 323 324 323 323 322 322 320 318 314 312 310 311 312 309 309 308 307 306 306 306 305 302 301 301 300 299 299 299 298 298 297 295 294 292 290 292 292 292 292
323 323 322 322 324 324 325 323 322 321 320 316 313 312 311 311 311 308 307 306 306 306 306 306 304 302 302 301 300 300 299 298 298 297 296 294 293 292 290 288 290 290 291
324 324 321 322 323 325 324 323 322 321 319 317 314 312 312 312 309 308 308 307 306 306 304 304 302 302 302 300 300 299 298 298 297 296 295 294 292 291 290 290 290 289 289
325 324 321 323 323 323 323 323 322 320 318 315 313 311 310 310 306 308 306 305 305 306 305 303 302 300 300 299 299 299 298 297 296 296 295 293 292 292 290 288 287 286 286
325 323 320 323 323 323 322 322 321 319 317 315 312 311 309 307 307 307 304 305 305 303 303 302 301 300 299 298 299 298 297 296 295 295 294 293 292 291 290 288 287 285 286
324 325 323 320 320 323 322 321 320 319 317 315 313 312 310 305 305 303 304 304 303 302 301 301 300 299 298 298 297 296 295 294 294 293 293 292 292 291 289 288 287 285 284
324 325 322 321 322 323 322 320 319 317 315 312 311 309 304 304 302 305 305 303 301 300 299 299 299 298 297 296 296 296 295 295 294 294 293 292 292 291 289 287 285 285 285
324 323 322 322 322 321 321 319 318 316 312 309 308 303 302 302 304 303 302 302 301 300 299 299 298 298 297 296 296 295 295 294 294 293 293 292 291 290 288 286 285 285 285
324 323 322 322 321 320 320 319 317 314 309 308 306 304 302 304 302 300 300 300 300 299 299 298 298 298 297 296 296 295 294 294 293 293 292 291 290 289 288 286 286 286 285
323 323 322 321 319 318 318 317 313 309 308 307 304 302 303 301 299 300 299 299 298 298 299 298 298 298 297 297 296 295 295 294 293 292 292 291 289 289 288 287 286 286 285
323 321 321 320 319 318 315 311 309 307 307 304 301 301 301 299 299 298 298 298 298 297 297 297 297 296 297 296 296 295 295 294 293 292 291 290 289 288 288 287 286 286 285
321 320 319 318 316 314 311 308 307 306 302 300 300 300 299 298 298 297 297 296 296 296 295 295 295 295 294 294 294 294 294 293 293 292 290 289 289 289 288 287 286 286 285
319 318 317 315 313 310 307 306 303 301 300 300 299 299 298 298 294 293 294 294 294 294 294 294 294 294 294 294 293 294 293 293 291 291 290 290 289 289 288 287 285 285 285
315 314 313 310 307 305 304 302 300 300 299 299 298 297 295 293 294 294 293 293 293 293 293 293 292 292 292 292 292 292 292 293 292 292 290 289 289 289 288 286 285 285 285
309 307 304 303 302 301 300 300 299 298 297 297 294 292 293 293 292 291 291 291 291 291 291 292 292 291 291 291 291 291 290 291 292 291 290 289 289 288 288 285 285 285 284
304 303 303 302 300 300 299 298 296 296 294 292 291 291 291 290 288 286 285 284 284 284 283 283 283 284 286 290 290 291 290 290 290 290 290 288 289 288 288 285 285 285 284
302 301 300 299 299 297 296 295 294 294 293 292 291 289 286 285 284 283 282 282 282 283 283 282 281 281 282 282 283 285 290 290 290 289 289 287 288 287 285 284 284 284 284

GFSMA_850_thetae_054.txt.gz
Theta_e
315 315 318 318 319 319 319 320 320 320 320 319 314 312 311 310 309 310 311 309 309 308 305 304 308 313 313 312 309 308 305 303 303 302 303 302 302 301 303 301 301 300 300
315 316 315 316 319 320 320 321 321 321 320 319 313 312 311 310 312 312 311 310 310 309 308 305 304 310 312 312 311 310 308 304 303 303 304 304 303 303 303 303 302 301 301
318 317 318 321 321 322 322 323 322 321 320 319 315 312 311 311 312 312 311 311 312 310 308 306 306 304 310 313 311 309 307 304 304 304 304 303 302 303 301 300 300 301 301
316 321 322 321 322 323 324 324 323 322 321 320 319 315 312 311 311 311 311 313 313 310 308 306 305 304 304 308 308 308 306 306 306 305 304 303 302 302 301 300 300 299 299
322 322 323 322 323 324 324 323 323 322 321 320 317 315 315 312 309 309 312 313 312 311 308 307 305 305 304 303 304 305 306 306 306 304 304 302 301 301 299 298 298 299 298
323 321 322 323 322 323 324 323 323 322 321 320 317 315 314 312 309 308 313 313 312 311 308 306 306 305 304 303 302 301 303 305 303 302 301 299 299 297 297 296 296 298 298
320 318 322 322 321 321 321 323 322 322 322 320 318 315 313 311 309 309 313 313 312 311 309 307 306 305 304 303 302 301 301 301 301 300 299 298 297 297 296 294 292 294 296
316 315 315 317 317 318 319 322 323 322 322 321 319 316 313 311 309 310 312 312 311 310 309 307 306 305 305 303 302 301 301 300 300 299 299 298 297 297 295 294 292 295 295
315 317 319 318 319 321 320 322 322 322 322 322 320 317 312 312 312 312 313 311 309 310 309 307 306 306 305 303 302 302 301 300 300 299 298 298 297 295 293 292 291 293 293
316 320 321 323 323 321 320 321 322 322 322 322 320 319 315 313 312 311 311 311 309 309 308 307 306 305 305 304 302 301 301 300 300 299 298 298 297 295 293 291 290 290 292
319 321 321 324 323 321 321 321 322 322 323 322 321 320 313 310 311 311 311 312 309 308 307 306 306 306 305 304 302 302 301 300 300 299 298 298 297 295 294 292 291 291 292
321 322 323 322 321 322 321 322 323 323 323 322 321 318 316 315 311 311 312 309 308 310 308 306 305 305 304 303 302 302 301 300 299 298 298 297 296 295 293 292 292 291 291
319 321 322 323 322 321 321 321 322 323 322 321 320 318 316 314 312 312 311 306 307 306 305 305 306 305 303 301 301 300 300 299 299 298 297 296 295 295 293 292 291 289 288
322 321 322 324 321 322 322 323 323 322 322 321 319 318 316 312 312 311 309 307 306 304 305 305 303 303 301 300 299 298 298 299 298 297 296 295 295 293 293 292 291 288 288
323 323 323 324 320 321 322 323 323 323 321 321 319 318 314 313 311 309 307 305 303 304 303 304 302 301 301 300 299 298 297 296 296 295 294 294 293 293 293 292 290 288 286
324 325 324 324 323 321 320 321 322 321 321 319 318 314 311 312 311 305 304 303 304 303 301 301 300 299 299 299 299 298 297 296 295 295 295 294 294 293 292 291 290 289 287
324 325 323 324 324 322 320 322 322 321 319 318 316 312 310 309 305 303 303 304 303 302 302 300 300 300 299 298 297 297 297 296 296 295 294 294 294 293 292 291 290 289 288
324 323 324 324 323 322 322 322 321 320 319 317 314 311 308 306 304 303 301 300 300 299 299 299 299 299 298 298 297 297 297 297 296 296 295 294 293 292 291 290 290 289 288
321 323 323 323 322 321 321 320 319 318 315 315 311 308 306 303 302 302 299 299 299 298 298 298 297 297 297 297 296 295 295 296 296 295 295 294 293 292 291 290 289 288 287
326 324 323 322 321 320 320 319 318 316 312 309 308 306 303 301 302 299 298 298 297 297 296 296 295 295 295 295 295 294 294 294 294 294 294 294 293 292 290 289 288 288 288
324 322 322 321 320 320 319 317 314 311 309 307 305 302 300 300 299 298 297 296 295 295 294 294 294 293 293 293 293 293 292 292 293 293 293 293 293 291 290 289 288 288 287
323 321 321 321 320 318 316 313 310 308 307 304 302 300 300 298 297 297 294 293 293 293 293 293 293 293 293 292 292 291 291 291 291 291 290 291 292 290 289 289 288 288 286
320 320 319 318 316 314 312 308 307 305 302 301 300 299 297 297 297 294 292 292 292 292 292 292 291 291 290 289 289 290 290 290 290 290 290 290 291 291 290 289 288 287 285
317 316 315 314 312 310 308 305 303 301 299 299 298 297 297 295 292 291 290 289 287 285 284 284 283 283 283 282 281 281 283 285 288 289 290 290 290 291 289 287 287 287 285
314 313 311 310 307 305 302 301 300 298 298 297 296 294 292 291 291 289 285 284 285 284 283 283 284 284 285 284 285 283 283 286 286 286 288 289 289 289 288 287 287 288 285
309 306 304 303 302 301 299 298 298 296 296 294 293 292 291 289 285 284 284 283 283 283 283 283 283 283 285 285 285 286 286 284 286 288 287 288 289 288 288 287 287 285 284

GFSMA_850_thetae_057.txt.gz
Theta_e
318 318 318 319 319 319 319 319 319 318 318 317 314 312 311 310 309 310 310 311 312 309 309 312 316 314 311 312 311 309 308 305 303 302 302 304 301 301 302 302 300 301 301
317 318 319 319 319 319 319 320 320 320 320 319 318 312 311 311 311 311 311 312 314 310 308 311 312 314 313 313 312 311 309 306 303 303 304 304 302 303 302 301 300 301 301
316 316 318 319 319 319 320 321 321 321 320 319 318 311 311 311 311 311 311 312 314 310 308 307 306 307 311 312 312 311 308 307 305 304 305 303 303 303 302 301 300 297 297
316 317 317 318 319 321 321 322 322 322 321 320 318 318 313 311 310 310 310 312 313 311 309 307 306 306 305 306 309 310 309 308 306 306 305 305 303 302 301 300 298 296 296
316 318 319 321 321 322 322 323 323 322 322 321 320 318 315 314 312 310 309 312 313 312 310 308 307 306 305 304 304 306 308 308 307 306 304 303 301 300 299 297 297 296 297
318 319 319 320 320 321 321 323 323 323 322 321 321 319 316 314 313 311 308 311 313 312 311 309 307 306 306 305 303 302 307 308 307 305 303 300 299 299 298 297 296 296 294
317 319 322 319 319 321 320 322 323 323 322 321 321 319 317 314 313 312 310 309 312 313 311 310 308 307 306 305 304 303 302 305 306 302 300 299 299 298 298 296 294 292 292
319 320 321 321 322 321 321 321 322 323 322 322 321 320 317 315 314 312 310 308 311 312 311 310 309 307 306 305 305 303 302 302 302 301 300 299 299 298 297 295 294 292 290
319 318 315 316 316 316 319 319 320 322 322 322 322 321 315 315 315 315 311 309 311 312 310 310 309 308 307 306 305 305 303 302 301 300 300 299 298 298 297 295 295 293 291
315 316 315 315 316 319 318 318 319 319 322 322 322 321 318 318 315 312 313 313 312 311 311 309 309 308 306 306 305 305 304 302 302 301 300 299 299 298 297 296 295 293 292
315 315 315 313 319 322 323 323 321 320 321 322 322 322 320 318 316 313 313 313 311 313 310 309 308 307 306 305 305 305 304 303 302 301 300 299 299 298 297 296 295 293 292
314 315 313 314 320 321 322 323 323 322 322 322 322 322 322 320 318 318 314 312 311 312 311 309 308 307 306 305 305 304 302 303 302 301 300 299 299 298 297 296 295 293 293
314 314 314 315 321 323 322 321 321 321 321 320 322 322 321 321 319 317 313 311 312 311 309 309 309 306 305 305 304 303 301 301 300 300 299 299 298 297 297 295 294 293 293
318 318 316 319 321 322 322 322 321 321 321 321 322 321 320 319 318 317 313 312 311 309 308 308 308 306 305 305 302 300 300 299 298 298 299 298 298 296 295 295 294 293 293
321 323 322 321 320 321 323 322 321 322 322 322 322 321 319 318 316 314 311 311 309 306 306 305 304 305 304 300 299 299 299 298 298 297 296 296 295 295 295 294 293 293 292
321 323 325 324 323 321 321 322 321 321 321 323 321 319 318 316 314 312 311 308 305 304 303 303 303 302 301 301 300 299 298 298 297 297 296 296 295 295 294 294 294 293 292
322 325 324 324 323 323 323 322 321 320 321 321 319 319 317 315 312 311 310 306 304 303 302 301 300 300 299 299 299 298 297 297 297 297 297 296 296 295 295 294 294 292 291
323 325 324 323 320 323 323 322 320 320 321 320 320 318 316 312 310 308 305 304 303 301 300 300 299 298 298 298 297 296 296 296 295 295 295 295 295 295 295 294 294 293 292
319 320 326 322 323 323 323 321 321 321 319 319 319 316 311 310 308 306 303 303 302 301 299 298 298 297 297 296 294 294 294 293 293 293 293 293 293 293 293 294 294 293 292
325 321 321 324 323 323 322 320 321 320 319 318 315 313 310 307 305 303 302 302 301 298 296 296 295 294 293 293 293 293 292 292 292 292 292 292 292 292 292 292 293 293 292
323 324 325 325 324 322 321 321 319 319 318 315 311 310 306 304 302 301 301 300 297 295 294 293 292 292 291 290 291 291 291 291 290 289 289 288 289 289 289 290 292 292 291
326 323 322 324 322 321 320 319 319 318 315 312 310 308 303 301 300 300 298 296 296 293 292 292 291 290 289 288 286 283 283 283 284 284 287 287 289 290 289 289 290 291 290
326 323 323 321 321 320 320 318 317 314 311 308 307 303 301 300 299 298 296 296 293 292 291 290 288 285 284 283 283 284 283 283 283 283 282 282 283 285 287 289 289 290 289
324 324 324 321 320 318 316 315 312 310 307 304 301 300 300 299 297 295 296 292 291 289 286 284 284 284 284 284 284 285 285 285 285 285 284 285 285 286 286 288 289 290 289
324 322 320 318 317 315 313 310 307 305 302 301 300 299 298 297 296 293 291 290 287 285 285 284 284 283 283 282 282 285 285 285 285 285 285 284 284 287 288 288 288 288 287
320 317 315 313 312 310 307 304 302 301 300 298 298 297 295 293 292 291 287 285 284 284 284 284 283 283 282 281 281 281 284 284 285 285 285 285 287 288 287 288 288 288 286

GFSMA_850_thetae_060.txt.gz
Theta_e
318 318 316 314 312 312 312 313 314 313 313 312 311 311 310 309 310 311 311 312 313 310 310 313 315 314 313 312 311 310 308 306 303 302 302 302 302 302 301 301 300 299 301
318 318 318 318 317 316 318 319 319 318 319 319 316 311 311 309 310 311 311 311 313 310 308 311 314 314 314 312 311 310 308 307 305 304 304 304 303 303 301 301 300 298 296
318 318 319 319 319 319 319 319 320 320 320 319 318 312 311 310 310 311 311 311 313 311 308 307 307 312 313 312 312 311 307 308 306 306 305 305 303 301 300 299 298 297 297
318 318 318 318 319 319 319 320 321 321 321 320 319 316 313 311 310 310 310 311 313 312 310 308 306 308 310 311 311 312 311 308 307 307 306 305 301 300 299 299 298 298 297
317 318 317 316 319 320 319 320 321 322 322 321 320 319 318 315 313 312 310 309 312 313 312 310 308 306 306 305 305 309 309 309 309 308 307 304 302 300 299 298 298 297 295
316 317 317 318 320 321 321 321 321 321 322 322 321 320 320 317 315 315 313 310 309 312 312 311 310 307 306 306 305 304 305 310 310 308 306 303 301 299 299 298 297 295 294
317 318 319 316 320 320 320 320 320 321 322 322 321 321 320 319 316 315 314 313 311 310 312 312 311 309 307 306 306 305 304 303 308 307 306 302 300 299 298 298 297 296 295
319 317 317 317 319 319 319 318 319 321 322 322 321 321 320 320 319 318 316 315 312 309 310 311 311 310 309 307 306 305 305 305 303 306 304 301 300 300 299 298 297 296 295
319 319 317 319 320 322 319 319 319 319 320 322 322 321 319 319 318 318 316 315 313 309 309 312 311 310 309 308 306 306 305 305 304 302 302 301 300 300 299 298 297 296 295
319 317 318 316 315 315 315 315 316 318 319 320 321 321 321 320 318 317 318 316 313 314 312 311 313 311 309 308 307 306 305 304 304 304 302 301 301 300 299 299 298 297 296
316 317 317 317 316 315 316 316 320 320 320 322 322 322 322 320 320 317 316 316 316 314 311 312 312 311 309 308 306 306 305 304 304 304 303 302 302 302 301 299 298 297 296
315 316 315 315 315 315 314 316 320 321 322 322 321 321 320 319 319 319 318 317 316 315 312 312 312 310 309 308 307 305 305 304 303 302 302 302 301 300 300 300 300 299 297
315 316 315 315 315 315 313 315 320 321 321 321 322 321 318 319 321 320 316 317 316 314 312 312 311 309 308 307 305 305 304 302 301 300 300 300 299 299 299 299 299 298 297
316 316 315 314 314 315 314 315 320 321 322 322 321 321 320 321 320 321 316 315 316 313 312 312 310 310 308 306 305 304 301 300 300 299 299 298 297 298 298 298 297 296 296
316 315 315 314 316 321 321 318 320 321 322 322 321 321 321 321 321 318 318 317 315 311 309 309 309 308 306 306 305 302 300 300 299 298 297 297 297 296 296 296 296 296 295
314 315 315 317 319 322 322 322 322 320 321 322 321 321 320 321 319 318 317 316 312 311 309 307 306 307 305 304 301 300 299 299 298 298 297 297 297 297 297 296 295 295 295
315 316 318 320 322 323 322 323 323 322 322 322 321 320 321 318 318 318 316 313 311 309 306 305 304 304 301 300 299 297 297 297 296 295 295 295 295 295 296 296 296 296 295
316 317 318 318 321 323 319 321 321 321 323 322 320 320 321 319 319 316 313 311 309 307 305 303 302 301 301 299 297 296 295 293 293 292 292 292 292 292 293 293 293 293 293
316 317 321 321 322 323 322 322 322 323 322 322 320 320 319 318 317 313 311 307 306 304 303 301 300 299 296 294 293 292 291 290 289 288 288 287 287 287 289 290 291 291 291
319 321 320 319 322 322 321 323 322 323 322 320 321 319 318 316 313 310 308 305 303 303 302 300 297 294 293 291 290 289 288 288 288 288 287 286 286 285 285 285 287 289 289
324 324 323 323 323 324 321 324 323 323 321 319 319 319 316 311 308 306 304 303 302 302 300 297 294 292 291 290 288 287 286 286 286 287 286 286 285 285 284 283 285 289 289
325 324 324 325 325 324 324 324 323 321 320 319 319 315 310 307 306 304 302 301 300 299 297 294 292 291 289 286 285 285 285 285 284 286 285 285 284 285 285 285 283 285 286
325 325 324 326 324 323 324 323 321 320 320 318 313 310 308 305 303 302 300 300 298 296 294 292 291 287 285 285 285 284 284 284 284 284 284 284 284 285 285 284 284 285 288
325 325 324 322 322 322 323 320 321 319 314 311 309 307 305 303 301 300 299 297 296 294 291 289 285 285 284 284 283 283 283 282 283 283 283 284 285 285 285 286 286 288 288
322 324 321 321 322 323 321 320 315 313 310 307 305 303 301 300 299 298 297 296 293 290 287 284 284 284 283 283 282 281 281 281 282 282 282 284 284 285 285 285 286 287 288
322 322 321 320 319 317 315 312 310 309 307 304 302 300 299 298 297 296 293 291 288 285 284 284 283 283 283 282 281 281 281 281 281 281 283 283 284 285 285 286 286 287 287

GFSMA_850_thetae_066.txt.gz
Theta_e
319 319 324 324 324 324 323 322 321 318 317 316 314 313 317 318 319 319 318 312 312 315 316 316 313 310 309 308 308 308 307 307 305 305 304 303 302 301 300 300 299 299 298
317 318 319 321 322 324 323 322 320 318 318 317 314 313 313 316 316 319 319 313 311 314 317 316 316 315 314 312 309 308 308 307 306 307 305 304 303 301 301 301 300 300 299
313 318 318 318 320 321 320 320 318 318 317 316 312 311 310 310 313 313 318 319 313 310 313 315 315 315 315 313 311 311 310 308 308 308 307 307 305 302 301 302 301 301 300
315 318 317 318 319 315 317 314 317 319 318 317 314 311 311 310 310 311 312 315 317 317 309 309 314 315 315 314 311 311 311 310 309 309 309 309 307 302 302 301 301 301 300
313 313 313 314 313 314 316 317 318 319 318 317 316 314 313 312 310 310 310 310 310 312 314 311 308 308 312 313 311 311 312 311 309 309 310 310 307 304 302 301 301 301 300
316 315 313 312 314 316 321 320 320 320 320 318 316 318 319 318 316 314 311 312 310 310 312 312 311 309 308 308 309 310 311 311 311 311 311 310 307 305 303 302 301 301 300
316 315 315 314 314 319 321 320 320 321 321 320 319 320 321 320 320 319 317 315 315 312 310 310 312 312 312 310 308 307 310 312 311 310 308 307 308 306 304 303 302 301 300
316 318 318 318 318 318 319 319 320 320 321 320 321 322 322 320 321 321 320 321 318 314 313 311 310 310 312 313 312 309 307 307 307 306 308 308 309 307 305 304 302 301 300
316 317 318 318 319 319 319 320 320 319 322 321 321 321 322 321 322 320 320 319 318 319 315 316 312 309 309 311 311 310 308 308 307 306 305 307 307 308 307 305 304 304 303
320 317 317 318 318 318 319 320 320 320 320 321 321 320 321 321 320 320 319 319 319 319 318 316 318 314 312 312 310 310 310 308 307 306 304 304 304 306 307 307 306 305 304
320 317 317 317 317 318 319 319 321 320 317 317 321 320 320 321 321 321 320 321 319 319 319 319 318 316 311 312 311 312 309 308 307 306 305 304 303 303 304 306 306 306 305
318 317 317 316 319 317 317 317 318 318 317 317 318 322 322 322 322 322 320 321 320 319 319 319 317 315 315 314 312 312 311 308 308 308 307 306 305 305 304 304 304 306 306
316 316 317 318 317 317 316 317 317 316 316 316 316 317 317 320 321 320 320 319 318 318 318 319 316 316 316 313 312 312 310 308 309 308 308 307 306 305 304 303 302 302 302
318 318 317 318 317 315 316 317 317 319 316 316 319 317 317 317 314 318 319 318 319 317 319 318 317 316 311 313 311 311 310 309 308 307 307 305 303 302 301 301 301 300 300
317 317 318 316 316 315 315 317 319 320 319 319 318 318 321 319 318 320 321 320 319 318 317 316 314 316 314 312 311 311 310 308 307 305 303 302 302 301 300 299 297 295 295
318 319 318 316 317 316 317 319 319 320 320 320 319 319 321 322 320 320 321 321 321 320 317 316 316 312 313 312 311 309 307 306 305 303 300 297 297 296 294 293 292 291 291
318 318 318 319 319 319 319 319 319 319 321 318 317 319 322 322 322 322 321 320 321 320 316 315 313 314 312 311 308 307 305 304 302 302 296 294 293 291 290 290 289 289 288
318 319 317 318 319 318 318 318 318 318 316 315 319 320 321 320 321 319 318 317 320 320 317 315 313 312 311 308 307 304 303 301 299 296 293 291 290 290 289 289 289 289 288
319 319 320 319 318 318 317 317 317 316 315 315 320 319 319 320 321 319 318 318 320 316 317 315 312 311 309 307 306 304 303 297 295 292 291 290 289 289 289 289 289 288 288
318 317 318 319 319 319 319 319 317 315 314 317 318 320 321 321 322 321 319 319 319 318 315 313 311 308 307 304 303 301 296 294 292 290 289 289 289 289 290 290 289 289 288
318 318 318 317 316 316 316 316 316 315 315 315 319 320 322 321 321 321 321 320 319 316 313 310 307 306 304 302 301 296 292 291 290 289 289 289 288 288 289 289 289 289 287
316 316 317 318 317 317 315 315 315 317 318 322 319 321 322 322 321 320 320 319 316 315 311 308 305 304 302 299 295 291 290 290 290 290 289 288 287 288 289 289 288 287 286
319 318 318 318 318 318 317 317 319 322 323 323 322 322 322 322 321 320 319 316 311 308 305 305 304 301 297 294 291 289 288 289 289 288 287 287 288 289 289 288 287 286 285
321 321 320 320 320 320 321 322 323 323 323 322 321 320 321 319 318 320 315 310 305 304 303 300 298 297 294 291 288 285 285 285 284 286 287 287 288 288 287 287 287 287 285
323 323 323 323 323 324 324 323 322 322 321 320 320 319 319 316 313 307 304 302 301 300 298 298 296 293 290 286 284 284 284 285 286 286 286 286 287 287 286 285 286 287 287
324 323 324 324 324 323 322 322 322 321 321 319 315 314 309 308 306 303 301 300 299 297 296 294 291 287 284 284 284 283 283 283 284 285 286 285 286 284 285 286 286 287 287

GFSMA_850_thetae_069.txt.gz
Theta_e
321 321 321 320 319 322 320 320 322 321 320 319 319 320 321 322 322 321 315 313 314 313 314 312 310 309 308 308 307 307 307 306 306 305 304 304 303 302 302 302 301 301 301
322 323 324 324 323 323 323 322 322 321 320 319 318 319 320 321 321 321 318 313 313 316 316 315 314 313 312 311 309 308 307 306 307 307 306 305 303 302 302 302 302 302 302
321 324 325 324 323 324 323 323 322 320 320 319 318 318 319 320 320 321 320 316 312 313 317 316 316 315 315 312 311 311 310 309 309 309 309 308 306 303 303 303 302 302 302
317 323 324 324 324 324 324 322 321 319 319 319 318 317 317 317 318 318 320 320 318 316 311 315 316 316 316 315 313 311 311 311 310 309 309 310 308 306 303 303 303 303 303
319 317 321 322 322 322 322 321 320 320 320 319 317 316 315 315 315 315 316 317 319 319 317 313 310 313 316 316 314 312 314 314 311 310 310 311 310 307 305 304 303 303 303
320 320 320 321 321 321 320 320 320 321 321 320 318 317 315 315 314 313 313 312 312 311 315 315 313 310 309 313 314 312 313 314 314 312 311 311 310 308 307 305 305 304 302
320 317 318 317 318 319 320 320 321 322 321 321 319 318 318 318 317 316 315 315 314 314 311 311 313 312 312 311 309 311 312 314 314 313 312 311 310 308 309 307 305 304 304
318 315 315 315 316 314 322 322 323 323 323 321 321 321 321 320 319 320 317 317 316 315 314 314 313 312 314 314 313 311 310 311 313 312 310 310 310 310 310 309 307 306 305
320 317 318 316 314 316 323 322 323 323 321 322 321 322 321 322 323 322 320 319 318 318 315 314 315 313 312 311 311 313 313 311 308 308 308 307 307 308 308 308 307 307 306
317 316 317 317 315 319 323 323 321 322 320 320 321 321 321 323 323 322 322 320 319 318 319 317 316 317 317 314 311 313 313 312 310 307 306 306 305 305 305 307 307 307 307
317 316 317 317 318 319 320 320 320 320 320 319 319 320 323 322 322 322 321 321 320 319 318 319 319 318 319 318 316 314 313 311 311 309 308 307 306 305 304 304 306 306 307
317 318 316 316 318 318 318 318 319 319 319 319 319 321 322 322 322 322 322 322 322 321 320 319 319 319 318 318 316 314 314 311 312 310 309 308 307 307 306 306 305 304 304
316 315 319 318 318 318 318 317 319 317 318 317 319 319 319 320 319 321 319 320 320 317 318 318 318 318 319 317 315 316 314 312 312 312 310 309 308 307 308 307 306 304 303
315 315 317 320 318 317 317 318 318 318 317 316 318 319 318 320 320 320 320 318 315 316 319 317 317 318 319 317 316 316 314 312 312 312 311 309 309 308 307 304 303 302 302
318 316 318 318 318 317 317 318 319 318 316 316 317 321 320 320 318 318 320 320 317 319 319 317 318 318 318 316 314 315 314 312 312 312 310 309 307 306 303 301 302 301 300
315 316 318 318 318 317 317 317 317 318 318 318 318 319 321 321 321 320 320 322 320 320 319 319 319 318 316 314 314 314 312 311 312 309 308 307 305 303 300 296 296 294 292
316 317 320 319 317 317 317 318 317 318 319 320 320 320 320 321 319 319 322 322 321 321 320 319 319 317 315 312 310 313 312 311 309 308 307 306 304 300 295 293 292 291 290
320 320 320 320 319 319 319 319 319 319 319 320 320 321 320 320 317 320 321 320 320 318 316 316 317 318 314 314 313 312 311 307 307 304 302 304 300 293 292 290 290 290 290
322 321 321 320 320 320 320 321 321 320 321 320 320 320 320 319 317 317 319 319 319 320 318 317 317 315 314 312 310 308 309 307 304 302 301 297 294 292 290 290 290 290 290
322 322 321 320 320 320 320 320 321 321 320 320 320 320 320 317 315 316 318 319 319 321 319 318 317 314 314 312 312 309 306 304 302 299 295 292 291 290 290 289 289 289 291
322 322 322 321 321 321 321 321 321 321 320 320 320 320 319 317 315 315 318 320 322 321 320 318 314 313 311 311 307 306 303 302 297 295 293 292 291 290 290 290 290 290 291
321 321 320 321 321 321 320 320 319 321 321 321 321 320 318 316 318 319 318 322 321 320 319 317 314 313 311 307 305 303 300 297 294 293 291 292 291 290 289 289 290 290 290
322 321 321 321 321 320 319 318 318 320 321 321 321 319 318 321 323 323 321 319 317 314 313 312 312 308 305 302 301 299 295 293 291 291 291 290 288 288 290 290 290 289 289
322 322 321 321 321 320 320 320 320 320 320 319 318 317 320 322 323 321 320 317 313 309 305 305 304 302 299 298 296 294 291 289 289 288 286 286 289 289 289 289 289 289 288
323 323 323 322 322 321 321 321 321 321 321 320 320 320 320 320 319 319 318 315 309 302 300 300 301 300 299 295 292 290 287 285 287 287 288 287 288 287 288 288 288 287 287
323 323 323 323 323 321 322 322 322 322 322 321 321 319 318 316 313 311 308 306 304 301 300 298 297 296 294 289 285 286 287 285 284 286 288 287 287 287 286 286 286 287 286

GFSMA_850_thetae_072.txt.gz
Theta_e
325 323 321 314 315 314 312 315 320 318 314 319 321 321 322 321 321 313 313 312 313 313 312 309 308 308 308 307 307 307 307 306 305 305 305 305 304 303 303 303 303 303 303
321 320 316 315 317 316 313 322 322 320 319 319 320 321 322 321 321 316 313 313 312 312 311 311 310 310 310 309 308 308 308 307 307 306 307 306 304 304 304 304 304 303 303
318 321 317 317 320 318 316 322 322 321 320 319 319 320 321 322 321 320 314 313 313 314 314 314 314 313 312 311 311 311 311 309 309 309 309 309 307 305 304 304 304 304 304
321 319 319 319 323 323 321 323 321 320 319 319 318 319 320 321 322 321 319 316 312 312 314 316 316 315 315 314 313 312 312 312 311 310 310 310 310 308 306 305 305 304 304
321 322 321 322 323 323 323 323 321 320 320 319 318 318 318 319 319 320 321 321 318 315 313 312 313 315 315 316 316 314 312 312 312 312 311 310 311 309 307 306 306 306 305
320 316 321 324 325 324 324 322 320 319 319 319 318 317 316 316 315 314 316 319 320 319 317 316 315 312 312 313 315 316 316 315 314 315 313 312 311 310 309 308 307 306 305
316 322 324 324 323 322 322 322 320 320 321 321 319 317 315 315 314 314 313 313 313 313 315 316 315 313 312 312 311 312 314 316 315 316 315 314 313 312 309 309 310 308 307
320 322 321 321 322 322 321 321 320 321 321 321 319 317 318 318 316 315 315 316 316 316 315 313 312 313 313 313 314 314 313 311 314 316 316 315 313 312 311 310 310 310 308
321 320 321 321 320 319 318 319 319 320 321 321 319 319 321 321 321 320 319 318 317 317 318 319 318 315 314 313 314 314 313 312 312 312 314 314 312 310 309 309 310 310 308
314 316 319 317 316 314 315 318 319 320 322 320 321 321 321 321 321 320 322 320 318 317 317 316 316 317 317 315 314 315 312 311 313 314 311 309 309 308 308 308 308 307 308
320 320 319 318 315 315 315 315 319 321 320 320 319 319 320 320 319 319 320 321 321 320 319 319 318 318 319 319 317 316 314 311 312 313 313 310 310 307 307 306 305 305 305
319 319 320 319 315 316 313 314 319 321 320 320 319 319 319 318 320 320 320 319 321 320 320 320 320 319 318 318 318 318 318 315 315 314 313 311 311 309 309 307 307 305 305
319 318 319 318 318 317 315 316 319 321 320 319 318 318 319 319 320 320 320 319 318 318 319 320 319 316 318 318 318 318 318 318 316 314 313 311 311 310 309 308 308 307 308
319 318 315 316 317 317 317 318 319 319 318 318 318 317 319 319 319 318 318 318 319 319 319 318 317 316 318 317 318 318 319 317 316 316 315 312 312 310 309 309 309 308 306
315 317 318 315 316 316 316 318 318 317 317 317 318 317 317 317 317 318 319 319 319 320 320 319 319 320 320 319 317 318 319 318 317 316 314 312 311 311 310 309 307 306 304
318 316 317 317 316 318 318 317 318 318 317 317 318 318 318 317 317 317 318 320 320 319 320 318 320 320 320 319 318 319 319 317 316 314 314 312 311 310 308 307 306 304 300
322 321 318 316 315 315 316 319 318 318 317 318 319 319 319 317 317 318 318 319 320 319 320 321 318 319 320 319 318 318 317 316 315 314 313 312 310 308 307 306 304 301 295
321 321 320 318 317 317 316 316 317 317 317 318 318 319 319 319 320 320 320 320 320 318 319 321 317 319 319 317 318 316 315 315 315 312 311 310 308 307 306 304 297 294 292
322 321 320 317 316 316 316 317 319 318 317 318 318 319 319 320 321 321 321 320 319 319 318 318 317 319 318 318 316 316 315 314 311 310 308 306 306 307 305 302 295 292 290
323 322 321 321 318 315 315 319 320 318 318 318 319 320 320 321 321 321 321 320 320 319 318 317 318 318 318 318 317 316 315 313 308 306 304 303 302 300 299 295 291 289 289
323 323 323 322 322 321 321 322 322 322 321 321 321 321 321 321 321 321 320 320 320 319 318 316 316 317 316 317 318 316 313 309 306 304 300 297 294 294 293 292 290 290 289
324 324 324 323 323 323 322 322 321 321 321 321 321 321 321 322 321 321 320 320 319 319 316 316 316 314 315 315 315 311 306 303 301 300 296 295 297 292 291 291 290 289 290
324 324 324 324 324 323 322 322 322 322 322 322 322 322 322 321 321 321 321 320 318 318 318 317 316 313 312 310 305 303 301 302 300 298 296 294 292 291 291 289 288 290 290
325 324 323 323 323 323 323 323 323 323 323 322 322 321 321 322 321 321 321 321 318 317 315 313 311 309 307 305 303 301 300 299 296 295 293 291 290 289 288 289 291 290 289
325 325 325 324 324 323 323 323 323 323 322 322 321 320 320 320 320 320 320 319 315 312 309 305 303 301 299 299 298 298 295 292 288 287 287 290 290 288 288 289 288 288 289
325 325 325 324 324 324 323 323 323 322 321 321 321 321 320 320 320 319 316 312 308 304 299 299 298 297 296 294 294 293 289 287 289 288 286 286 287 288 288 288 287 287 287

GFSMA_850_thetae_075.txt.gz
Theta_e
323 324 310 308 308 307 308 309 309 319 321 322 322 323 323 321 320 311 311 311 311 310 309 308 308 307 307 306 306 306 306 305 305 305 306 306 306 305 304 304 304 304 304
325 322 312 308 308 310 310 309 309 319 320 320 322 322 322 321 320 312 312 311 310 309 309 309 309 308 308 308 308 308 307 307 306 306 307 307 305 305 305 305 305 305 305
322 317 315 311 311 311 315 318 314 314 319 319 321 322 322 320 321 314 312 311 311 311 310 310 310 310 310 310 310 309 308 308 308 308 309 308 307 307 306 306 305 305 305
323 323 314 314 314 313 321 321 320 319 319 318 321 321 322 321 321 319 316 312 312 313 313 313 313 313 313 312 312 312 312 312 311 310 310 310 310 308 307 307 306 306 305
321 323 313 315 316 315 322 323 321 320 319 318 320 320 321 321 321 320 320 315 315 312 312 313 313 314 314 315 315 314 314 312 313 312 311 310 310 310 308 308 307 307 307
320 320 315 316 318 318 320 323 321 319 319 319 318 318 319 320 320 320 318 317 317 317 315 314 313 312 313 313 314 315 314 314 315 314 314 313 313 312 311 309 308 308 308
320 319 317 319 323 321 320 323 321 319 320 320 318 318 317 317 317 317 320 318 318 317 316 315 315 315 315 313 312 313 314 318 317 316 316 316 315 314 313 312 310 310 309
320 319 319 323 322 323 322 322 320 319 319 319 318 317 316 315 315 314 314 315 316 317 316 314 314 314 315 314 314 313 313 314 316 317 317 317 317 316 314 312 311 310 310
320 320 322 320 321 321 320 321 320 319 321 320 320 318 317 316 316 315 315 315 315 315 314 314 314 314 315 315 315 315 315 315 313 313 313 316 316 316 315 312 310 310 310
318 319 318 322 323 322 320 321 321 320 321 319 320 319 318 320 321 321 319 318 318 317 318 318 316 316 317 318 318 318 317 315 314 313 312 313 314 313 314 312 310 310 310
318 321 322 322 322 321 321 321 321 319 320 320 320 320 319 320 321 320 319 318 321 320 319 319 319 319 319 318 318 318 318 317 315 314 312 312 314 312 310 310 310 308 308
319 320 322 321 321 319 319 317 317 319 319 320 321 319 319 320 319 319 319 319 318 318 320 320 320 320 319 319 319 317 318 318 317 317 315 314 312 313 312 310 310 308 306
319 319 318 318 318 318 318 315 315 319 320 320 319 318 319 318 318 319 319 319 320 320 319 320 319 317 317 318 319 317 317 318 317 317 318 317 313 313 313 311 310 308 307
318 320 320 319 317 317 317 314 316 315 316 318 317 320 319 318 318 318 319 320 319 319 318 317 317 317 317 318 319 319 317 318 318 318 318 318 317 314 313 311 310 310 308
314 317 318 318 318 318 318 317 316 316 318 319 318 319 319 318 317 317 318 318 318 319 318 318 318 318 317 317 318 318 320 319 317 317 318 318 316 314 312 310 311 310 309
314 317 319 319 320 318 319 318 317 317 318 318 319 318 318 317 317 317 317 317 317 317 319 319 318 319 318 317 317 317 317 319 318 319 319 318 316 315 313 310 310 311 309
318 316 316 317 317 316 316 316 317 316 317 317 318 318 317 317 317 317 318 318 318 317 318 318 318 317 319 317 317 317 317 319 318 318 318 317 316 315 312 310 310 310 307
322 321 320 318 315 315 316 316 317 317 317 317 317 318 318 318 318 318 318 318 318 317 318 318 319 319 318 318 318 318 318 317 318 317 317 316 316 314 310 308 308 306 305
321 321 321 320 321 319 318 316 316 316 316 316 317 318 318 318 318 318 318 318 318 318 319 321 321 320 320 319 319 317 317 318 318 316 316 315 314 310 308 307 304 303 301
322 321 321 321 321 320 321 320 317 316 316 315 315 315 316 318 318 318 318 318 319 319 320 321 320 320 319 318 317 317 316 317 318 317 316 314 310 308 306 303 300 300 300
323 322 322 321 322 321 321 319 318 317 316 317 316 316 317 319 318 317 318 319 320 321 321 321 320 319 319 318 318 316 316 316 316 314 310 308 306 304 300 297 298 298 294
322 322 322 322 322 322 322 321 320 319 317 315 315 316 319 319 319 319 320 320 321 321 321 321 320 319 319 317 317 316 314 313 308 307 304 304 304 302 300 300 299 294 292
324 323 323 323 324 323 323 322 322 321 321 321 321 321 321 321 321 321 321 322 322 322 322 321 321 320 319 316 315 315 312 308 305 304 302 301 300 300 299 297 292 291 290
325 325 325 325 324 324 324 323 324 323 322 322 322 322 322 321 321 321 321 322 322 321 321 321 321 319 316 312 310 308 306 304 301 300 299 298 296 295 295 293 290 289 289
326 325 325 325 325 324 324 324 324 323 322 322 322 322 321 321 321 321 321 321 321 322 321 321 317 315 309 304 303 302 300 299 297 295 294 295 295 293 292 291 290 289 288
326 326 326 326 325 325 325 324 324 323 322 322 322 323 323 322 322 321 321 320 321 317 310 306 304 301 301 299 299 296 296 295 295 293 291 291 290 289 287 287 288 288 288

GFSMA_850_thetae_078.txt.gz
Theta_e
327 326 317 312 310 310 310 312 321 321 321 322 322 321 321 321 318 308 309 310 309 308 308 307 307 306 306 306 306 305 305 305 304 304 304 304 305 305 305 304 304 304 304
327 321 312 309 309 308 308 311 320 321 321 322 322 322 322 321 318 310 310 311 310 309 309 308 308 307 307 307 306 306 306 306 305 305 306 306 305 305 305 305 304 304 304
324 317 310 308 308 308 307 310 319 320 322 322 322 322 322 321 319 312 312 311 310 309 308 309 309 309 308 308 308 308 307 307 306 306 306 306 305 305 306 306 305 305 305
321 318 310 308 308 307 308 309 320 320 321 321 321 322 322 320 320 313 312 311 311 310 310 310 310 310 311 310 310 311 310 309 308 308 308 309 308 308 308 307 307 307 306
324 319 310 308 308 309 309 314 319 319 319 320 321 321 321 321 320 318 313 312 312 312 312 312 312 312 312 313 312 312 312 313 312 311 310 310 311 311 310 309 309 308 308
321 318 311 309 310 310 314 312 316 315 315 317 320 321 321 321 321 319 317 316 314 313 312 312 312 313 314 314 314 314 315 314 313 312 313 312 313 313 312 312 311 310 310
323 320 314 312 312 314 319 319 320 320 318 318 320 319 320 320 320 320 320 319 317 317 316 315 314 314 313 313 313 313 314 315 317 316 315 315 315 314 314 313 312 312 312
323 321 316 314 314 321 322 322 321 320 319 318 318 318 319 319 319 319 318 317 317 317 317 316 316 315 315 315 315 314 313 313 317 318 318 318 317 317 317 316 314 312 311
323 319 317 315 318 316 319 322 321 320 319 319 319 318 317 316 317 316 316 314 314 315 314 314 315 314 315 315 315 315 315 314 313 313 317 317 316 316 317 317 316 314 311
322 319 318 315 321 322 321 321 321 319 320 319 319 318 317 316 316 316 315 315 314 315 315 316 316 316 316 317 317 317 317 317 316 314 314 314 314 314 315 316 316 315 313
320 320 318 318 320 323 322 322 321 320 319 319 319 318 317 317 319 320 320 318 317 318 317 317 318 319 318 318 318 318 318 318 317 316 315 314 314 313 313 314 314 313 312
321 321 321 321 322 321 321 321 320 320 319 320 319 320 318 318 319 320 320 320 319 318 318 318 319 320 319 319 319 318 317 318 318 317 317 316 314 314 313 314 314 314 311
321 320 319 320 320 321 322 319 319 319 320 319 320 320 319 319 319 319 320 319 318 318 319 318 319 318 318 318 317 316 316 317 318 319 317 317 317 315 314 315 314 313 313
321 319 319 322 322 322 322 321 321 321 320 320 319 319 321 319 318 317 319 318 318 319 319 318 318 318 317 317 317 317 317 317 317 318 319 318 318 317 315 314 314 313 312
320 319 318 321 322 321 321 320 320 319 315 316 317 320 320 319 318 318 318 318 318 318 319 318 318 317 317 317 318 319 319 318 317 317 316 319 318 317 317 315 315 314 312
321 320 318 318 319 319 318 318 317 316 316 315 317 318 319 317 317 318 318 318 317 317 318 317 317 317 317 317 317 317 317 318 318 318 317 316 318 318 318 317 316 312 312
321 320 318 317 318 318 317 315 316 315 316 315 317 316 318 317 318 317 318 317 317 317 317 317 317 317 317 317 317 317 318 318 318 318 318 317 317 318 318 318 317 314 313
320 319 318 318 318 319 319 317 317 319 319 317 317 317 317 317 318 318 318 317 317 317 317 317 318 318 317 317 318 319 319 318 318 317 318 316 316 318 317 318 316 313 311
322 322 320 318 315 315 318 318 317 317 319 318 318 317 317 316 317 317 318 318 317 317 317 318 318 318 317 318 318 318 317 317 317 318 317 316 316 317 318 316 315 312 308
321 321 322 322 320 315 316 317 317 317 316 316 316 316 316 316 316 317 317 318 318 318 317 318 318 318 318 319 319 320 319 319 319 318 317 317 316 317 316 314 311 309 305
321 321 321 322 322 321 321 320 320 319 320 319 318 318 317 316 316 315 315 315 315 316 318 318 319 319 320 320 319 320 319 319 318 318 317 316 315 315 314 309 306 303 302
320 322 322 322 322 321 321 321 321 321 321 320 320 320 319 318 317 316 316 317 316 317 318 318 319 319 319 320 320 319 319 318 317 316 315 313 311 310 308 306 303 300 299
324 323 322 321 322 322 322 322 322 321 322 321 321 320 320 319 318 317 316 316 317 319 319 319 319 320 320 321 320 320 319 319 316 313 311 308 305 304 303 301 300 298 297
325 325 325 324 324 323 322 322 322 322 322 322 321 321 321 321 321 321 321 321 321 321 321 321 321 321 320 320 319 317 315 312 309 307 304 301 300 299 298 297 296 295 294
325 325 325 325 325 325 324 324 324 324 323 322 322 322 322 322 322 321 321 321 321 321 321 321 321 321 320 319 314 309 307 305 302 297 297 297 295 295 294 294 294 292 290
325 325 325 325 325 325 325 325 325 325 324 324 324 324 323 323 322 322 321 321 321 321 320 316 312 313 308 303 301 300 300 299 298 294 293 293 293 293 292 292 292 290 289

GFSMA_850_thetae_084.txt.gz
Theta_e
325 326 324 324 325 324 324 325 326 324 322 322 321 321 314 309 308 309 309 312 315 316 315 310 309 307 306 306 305 305 304 304 304 304 304 304 305 305 306 306 305 305 305
327 324 325 325 324 324 324 325 325 322 321 321 321 320 319 318 309 308 309 309 315 317 317 312 309 307 306 305 305 305 304 304 304 305 305 305 306 306 306 306 305 305 305
325 325 326 327 326 323 325 325 322 321 321 322 321 320 320 319 314 308 308 308 311 313 313 313 309 307 306 306 306 306 305 305 305 305 305 306 307 306 306 306 306 306 306
325 326 326 324 326 323 325 324 321 321 321 321 321 320 320 320 316 310 310 310 311 310 310 309 307 307 307 307 307 307 307 306 306 306 307 307 307 307 308 308 307 307 307
326 325 325 325 326 321 325 323 321 321 321 321 321 321 320 320 316 312 311 311 312 311 309 308 307 308 308 308 308 309 309 309 308 308 308 309 309 309 309 309 308 308 308
325 325 324 324 326 320 325 323 320 321 321 321 321 321 321 320 318 314 312 312 312 311 310 309 309 309 310 310 311 311 312 312 312 312 312 312 311 311 311 310 310 310 311
326 326 326 325 326 317 325 324 320 320 320 321 321 321 320 320 319 316 315 312 312 312 311 311 310 310 311 312 312 313 314 314 314 315 314 314 314 314 313 313 313 313 313
326 327 326 326 324 315 323 321 319 319 320 322 322 321 320 319 319 319 319 317 318 314 314 313 312 312 312 312 313 313 314 314 317 318 317 318 318 318 318 317 316 315 315
326 326 327 327 321 312 318 318 318 319 320 321 321 321 320 320 320 320 320 320 319 319 317 316 314 315 315 314 314 315 315 315 315 317 317 317 317 317 317 317 317 318 317
327 327 327 325 316 311 311 313 317 319 320 320 320 320 320 319 320 320 320 320 318 316 315 313 313 314 314 315 315 315 315 315 315 315 315 315 315 315 315 315 315 315 315
325 326 324 319 311 309 309 309 314 319 319 320 320 319 319 319 317 316 316 316 317 313 316 316 313 313 314 315 316 317 317 317 317 317 316 316 316 316 316 315 315 315 315
327 324 324 317 309 308 308 308 309 317 319 319 317 315 316 318 318 316 315 315 316 317 317 317 315 315 316 318 319 319 319 319 318 318 318 317 317 317 317 317 317 316 317
326 320 321 320 319 308 309 310 309 315 319 317 318 318 317 317 317 316 316 317 317 317 316 319 318 318 318 318 317 317 317 317 317 317 317 317 317 317 317 317 318 318 317
325 323 325 322 321 315 312 311 317 317 319 320 320 320 319 318 318 318 318 317 318 319 317 317 318 318 318 318 318 318 318 317 318 318 317 317 316 318 318 318 317 317 317
325 324 323 321 322 321 317 315 315 318 319 319 321 321 320 319 319 319 319 318 318 319 319 318 318 317 317 317 318 317 318 318 318 317 317 317 317 317 317 317 318 318 317
325 325 325 324 323 321 320 317 320 319 318 317 319 320 320 319 319 319 319 318 318 319 319 318 317 317 316 317 317 318 318 317 317 317 318 317 317 317 317 317 318 318 318
321 322 322 323 323 321 321 320 319 319 321 322 320 320 320 318 318 316 319 319 319 319 319 318 317 317 316 316 317 317 318 318 318 317 317 317 317 317 317 317 317 318 318
322 321 322 322 323 321 321 320 320 320 320 321 320 320 319 318 318 318 318 317 317 317 318 318 317 316 316 317 317 317 318 318 318 317 317 316 316 317 317 317 317 317 318
321 321 321 322 321 321 321 321 320 320 320 321 321 321 320 320 319 318 318 317 316 315 315 316 317 317 317 317 317 317 317 316 316 316 315 315 316 317 317 317 318 318 318
321 321 321 321 321 321 320 319 319 319 319 320 320 320 320 319 318 318 317 317 317 318 317 317 318 318 318 317 317 317 316 316 315 316 316 316 318 317 317 317 318 318 318
320 321 321 321 321 321 321 321 320 319 319 319 318 318 318 319 318 318 318 317 318 318 317 318 318 317 317 316 316 317 316 316 316 316 316 317 317 317 317 317 318 318 317
321 321 320 320 320 320 320 320 320 320 321 321 321 320 320 320 319 317 316 315 317 318 318 318 317 317 317 317 316 316 316 316 315 316 316 317 318 317 317 318 317 317 316
323 323 322 322 322 321 321 320 320 320 320 320 319 320 321 321 321 321 321 321 321 320 320 320 318 317 317 318 317 317 316 316 316 317 317 318 317 315 314 311 307 305 303
322 323 323 323 323 322 322 322 322 322 321 322 322 322 322 322 321 321 321 321 321 321 320 320 319 318 317 317 317 316 316 315 315 315 313 310 307 304 301 299 297 296 295
322 321 321 321 321 321 321 322 322 322 322 322 321 320 320 320 319 320 320 320 318 317 317 318 318 318 317 315 315 314 313 311 307 305 302 301 299 297 294 293 292 293 292
320 319 319 320 320 320 321 321 321 321 320 320 320 318 320 317 318 318 318 316 315 312 312 310 305 303 302 305 304 303 304 303 301 297 295 294 292 291 291 290 290 290 290

GFSMA_850_thetae_087.txt.gz
Theta_e
328 328 326 326 327 326 324 326 327 326 325 325 323 321 320 318 314 313 315 321 320 320 319 319 318 315 309 307 306 304 304 304 304 304 304 304 304 305 305 306 305 305 305
328 328 326 326 326 326 324 325 326 325 325 324 322 321 317 311 310 312 315 320 320 320 321 320 320 317 309 308 305 304 304 304 304 304 304 305 305 306 306 306 306 306 306
328 328 325 326 326 324 323 325 325 325 325 323 321 320 317 314 310 312 313 318 319 319 319 318 319 318 315 309 305 305 305 305 305 305 305 306 306 306 306 306 307 307 307
329 327 325 326 325 324 324 325 324 325 322 322 321 320 319 319 313 313 313 316 317 318 319 319 319 318 313 306 305 306 306 306 306 306 306 306 307 307 307 307 307 307 307
327 327 327 326 324 324 324 324 326 324 321 322 321 320 320 319 316 312 311 313 314 316 316 317 317 316 309 307 307 307 307 307 308 308 307 308 308 308 308 309 308 309 309
327 326 326 326 326 323 324 325 325 322 321 322 321 320 320 319 318 314 311 312 314 314 312 312 311 310 308 308 308 309 310 310 311 311 311 311 311 311 311 310 310 310 311
327 326 326 325 323 323 324 324 325 322 321 321 321 320 320 320 318 316 313 313 313 313 312 310 309 309 309 310 311 311 312 313 313 314 314 313 313 313 313 313 312 312 313
326 326 326 325 320 325 324 325 324 321 321 321 321 320 319 319 318 318 315 313 313 312 312 311 311 311 311 312 312 313 313 314 315 315 316 316 317 318 318 317 317 316 315
325 325 325 325 324 325 324 324 323 321 321 321 321 321 320 322 320 318 318 317 314 315 313 313 313 313 312 312 312 312 313 314 314 318 319 318 318 318 317 317 317 317 317
326 325 327 325 325 325 326 323 324 323 320 320 321 321 321 320 321 321 319 319 319 319 318 316 313 312 313 314 313 314 315 315 315 316 316 316 316 316 316 316 315 315 315
325 325 325 326 326 326 326 321 325 323 320 320 321 321 321 320 319 318 320 319 319 318 316 315 314 313 312 312 313 314 314 315 315 316 316 316 316 316 316 316 316 316 317
324 325 326 325 326 327 324 317 323 322 319 319 320 321 321 320 319 318 316 316 316 315 312 313 314 316 316 314 314 316 316 317 317 317 317 317 317 317 317 317 317 317 317
325 325 326 326 325 323 317 313 317 320 318 319 320 320 320 320 319 316 316 316 314 315 316 316 316 317 318 316 317 318 318 318 317 318 318 318 317 317 317 317 317 317 317
322 321 324 324 318 313 311 309 310 312 314 313 317 319 320 319 316 317 318 317 316 317 317 317 317 316 316 318 318 317 318 318 318 318 318 318 318 318 317 317 317 317 318
325 322 323 320 321 319 319 312 308 309 310 313 314 317 317 317 319 318 318 318 318 318 319 318 318 318 318 317 317 317 317 317 317 317 318 318 318 318 318 318 318 317 317
325 325 324 322 321 321 321 317 310 310 311 311 312 318 318 317 319 320 319 318 318 317 318 319 318 318 318 318 318 317 317 317 317 318 318 318 318 318 318 317 317 317 317
324 325 325 323 324 322 321 321 316 312 315 315 314 317 318 317 319 320 320 318 318 319 318 319 318 318 318 318 317 317 317 317 317 316 317 317 317 318 318 317 317 317 316
322 322 322 323 323 322 322 322 320 313 313 315 317 317 318 317 318 318 318 319 318 318 317 317 316 317 317 315 316 316 316 316 316 317 317 316 316 317 316 316 315 315 316
321 321 321 321 322 323 322 321 322 320 318 317 318 319 320 321 321 320 319 318 317 317 318 318 318 318 317 317 316 316 316 317 317 317 316 315 316 315 315 316 316 316 317
321 321 321 321 321 322 321 322 322 321 321 321 320 319 320 320 321 321 320 320 320 319 319 318 318 317 317 317 318 318 318 317 317 316 318 319 318 317 316 316 317 317 317
320 320 321 321 321 321 321 321 321 321 320 320 319 319 319 319 319 319 319 319 319 319 319 319 318 318 317 317 317 318 318 318 318 318 317 317 316 316 316 317 317 317 317
320 320 320 320 320 320 320 320 320 320 319 320 320 320 320 320 320 319 318 318 318 318 319 318 317 317 317 318 319 319 318 317 317 317 317 316 316 316 316 316 316 316 316
321 321 321 321 321 321 321 320 320 320 319 319 319 319 319 319 319 320 320 320 321 321 320 318 318 317 317 317 316 316 316 317 316 316 316 316 314 312 310 309 309 309 308
321 321 321 322 321 322 322 322 322 322 322 321 320 319 319 319 318 319 319 320 319 319 319 318 317 317 316 316 315 314 313 313 311 310 307 307 307 305 304 302 300 299 298
321 321 321 321 320 320 321 321 321 321 320 321 320 320 319 319 319 318 318 318 317 316 313 313 313 312 312 311 311 310 308 309 307 306 304 301 300 298 295 294 293 293 293
319 318 318 318 318 317 317 318 319 319 319 318 318 318 319 317 317 316 315 314 312 311 311 308 306 306 305 304 302 301 301 301 299 297 295 295 292 291 291 290 289 290 290

GFSMA_850_thetae_090.txt.gz
Theta_e
329 328 326 327 326 327 328 328 327 327 328 327 327 327 327 325 324 322 322 320 321 321 321 321 319 316 313 314 313 308 305 304 304 304 304 304 304 305 305 305 305 305 305
330 328 327 328 326 327 328 326 325 326 326 328 327 326 325 324 322 321 320 320 320 320 320 320 319 318 317 316 309 305 304 304 304 304 304 304 305 305 305 305 306 305 305
330 329 328 328 327 327 327 326 324 326 327 327 326 325 324 322 320 320 320 320 319 320 319 320 320 319 316 314 308 305 304 304 304 304 304 305 306 306 306 306 306 307 306
330 328 328 327 327 326 327 325 325 326 326 326 325 325 322 320 320 320 320 320 319 320 319 319 319 318 317 314 308 305 305 305 305 304 305 305 306 307 307 307 307 307 307
329 327 327 328 327 326 327 324 324 326 326 325 324 324 322 322 320 319 319 320 321 320 319 319 319 318 318 313 307 306 306 306 306 306 306 306 307 307 307 307 308 308 308
326 327 328 328 327 326 326 323 325 325 326 324 323 323 323 322 321 319 319 319 320 320 318 318 318 317 312 310 307 308 309 309 308 308 308 308 309 310 310 310 310 310 310
327 327 328 327 327 326 325 322 324 325 325 324 323 323 322 323 322 320 319 319 319 319 319 319 318 317 311 308 309 310 311 312 313 312 312 312 312 312 313 312 312 312 313
329 328 327 327 327 326 325 322 324 324 324 323 322 322 321 321 321 321 319 319 320 319 319 318 319 318 318 312 311 311 312 313 314 315 315 315 315 315 315 315 316 316 317
327 326 327 326 326 325 325 323 324 325 324 322 323 322 322 322 322 322 321 319 319 319 319 318 318 318 318 317 312 312 312 313 313 314 315 316 318 318 318 318 318 317 317
326 326 325 326 326 325 323 323 324 324 324 323 323 322 322 321 322 322 322 321 320 319 319 319 319 314 313 312 311 312 312 313 314 314 315 316 317 317 317 316 316 316 316
326 324 325 325 326 322 323 324 324 324 323 323 323 323 324 324 323 321 321 321 321 320 320 316 317 313 311 311 312 313 312 313 314 315 315 315 316 316 316 316 316 316 316
325 325 324 325 325 323 322 325 324 324 323 323 322 323 323 323 322 321 320 321 321 321 321 320 317 314 313 313 313 314 313 313 315 315 315 316 316 316 316 316 316 316 316
325 326 325 326 326 325 325 325 325 324 323 323 322 322 322 322 321 321 320 318 319 320 322 320 318 313 313 315 316 316 316 314 316 317 318 318 317 318 317 317 317 317 317
325 324 323 325 324 324 325 325 325 323 324 324 322 320 320 321 322 322 321 319 319 319 320 320 315 315 316 317 318 317 317 318 317 317 317 318 318 318 318 318 318 318 317
324 323 323 324 325 326 325 324 321 318 322 323 323 319 319 320 320 321 321 319 319 319 318 319 319 318 317 316 316 317 316 316 317 317 317 317 317 318 318 318 318 318 317
324 323 323 324 324 321 317 314 313 312 311 316 319 318 316 313 320 320 319 317 318 319 319 319 319 321 319 318 318 318 317 317 316 317 317 317 317 317 318 318 318 318 318
324 321 322 321 321 320 317 320 321 319 312 309 311 315 313 313 315 317 318 315 316 317 318 318 320 321 320 319 318 317 317 316 316 316 316 316 317 317 317 317 317 317 316
324 324 321 320 322 320 320 322 321 320 314 310 315 315 313 312 311 317 318 317 318 319 317 318 318 316 317 317 317 317 317 319 318 317 316 315 316 316 316 317 317 316 315
323 323 323 324 323 322 322 322 322 322 321 315 312 311 311 311 315 317 317 316 318 317 318 320 318 318 319 319 319 320 319 319 319 319 318 318 317 317 317 318 318 318 318
322 322 322 322 322 322 322 322 322 322 321 320 316 313 315 316 316 318 318 319 319 321 320 320 319 319 319 319 320 319 319 319 319 319 320 320 319 319 318 318 318 317 317
321 321 321 321 322 322 322 322 321 322 322 321 320 318 316 316 319 320 320 320 321 321 320 320 320 319 319 320 320 319 320 318 318 319 319 319 319 319 319 318 317 317 317
320 321 321 321 321 321 321 321 321 322 322 322 322 321 321 320 320 320 320 319 319 320 320 320 320 320 319 319 319 318 318 318 318 318 318 318 318 318 317 317 316 316 316
320 319 319 319 320 320 320 320 320 320 320 320 320 319 319 319 319 319 319 319 319 319 319 318 319 319 318 317 317 317 317 317 316 315 314 314 313 311 311 310 311 310 309
321 321 321 321 321 321 321 320 320 319 319 319 320 320 320 320 320 320 320 320 319 319 319 318 318 316 316 315 314 314 313 313 313 310 310 306 306 306 305 303 301 299 297
321 321 320 320 320 320 321 321 321 321 320 319 318 318 317 317 317 318 317 317 316 315 315 314 312 313 312 310 311 308 307 306 304 303 302 301 299 297 295 294 294 293 293
318 317 316 316 317 317 318 319 319 318 318 317 316 316 315 314 315 314 314 313 313 311 309 303 308 300 303 302 300 300 300 300 300 298 297 296 293 292 291 290 291 291 290

GFSMA_850_thetae_093.txt.gz
Theta_e
333 334 333 332 331 327 326 327 327 326 327 327 326 328 327 327 327 326 325 324 321 321 321 321 319 317 313 311 312 309 307 305 304 303 303 303 304 305 305 306 306 305 305
334 332 331 331 327 326 327 326 327 327 326 325 327 327 328 325 325 323 324 319 320 320 319 320 318 318 317 314 311 306 305 304 304 303 303 304 304 305 306 306 306 306 305
333 332 330 329 326 327 327 327 326 327 326 324 326 327 326 324 323 322 323 321 321 320 320 320 319 318 317 316 311 305 305 304 304 304 304 304 305 305 306 306 306 306 306
332 332 331 328 328 328 327 327 327 326 325 326 328 325 324 323 322 321 322 321 321 320 318 319 319 319 319 317 309 305 305 305 304 304 304 305 305 306 306 306 306 307 307
331 329 331 330 327 327 327 328 326 325 325 326 325 324 323 321 321 321 323 321 320 321 320 319 319 319 318 318 309 306 305 305 305 305 305 306 306 307 307 307 308 308 308
330 329 329 329 328 328 326 327 326 324 325 325 325 323 322 322 320 320 321 322 318 320 320 321 319 318 316 314 310 306 307 307 306 307 307 307 308 309 309 310 309 310 310
330 329 328 327 327 327 327 326 326 324 324 325 323 322 322 322 322 320 321 321 321 322 320 321 319 318 313 308 308 308 309 310 310 310 310 310 311 311 312 312 312 312 312
328 328 327 328 327 327 327 326 324 323 324 325 323 323 323 321 321 322 320 320 321 321 321 322 321 320 319 313 308 309 311 312 313 314 314 314 313 313 313 314 314 314 315
328 328 326 327 327 327 327 326 325 322 323 324 322 322 322 322 322 322 322 320 321 320 320 320 320 320 319 320 315 311 311 312 313 314 315 315 316 316 317 318 318 318 318
327 328 327 328 328 327 326 326 325 322 322 323 323 322 321 320 322 323 321 321 321 321 321 320 320 320 320 319 320 314 311 311 311 312 313 314 315 316 317 318 318 317 317
326 327 327 327 327 324 325 325 323 321 322 323 323 323 321 323 322 323 322 322 321 321 321 321 321 320 320 320 317 311 311 311 312 313 314 315 315 315 316 316 316 317 316
326 326 326 326 325 325 326 325 323 321 323 324 323 321 322 322 323 323 322 322 322 322 321 321 321 320 320 318 312 311 312 312 313 313 314 315 315 315 316 316 316 316 316
326 325 326 325 324 325 325 325 321 324 324 324 323 323 323 323 323 322 321 321 322 321 323 322 322 321 319 316 312 312 313 314 315 316 315 315 316 317 317 317 317 317 317
325 325 325 325 324 324 325 324 323 324 323 323 323 322 321 322 322 322 321 321 320 320 319 322 322 322 320 316 313 313 315 317 317 317 317 317 317 317 317 317 318 318 318
325 324 325 325 324 325 324 321 323 324 324 323 323 323 322 321 320 322 323 321 320 319 320 320 320 319 317 317 317 315 317 318 316 317 317 317 316 316 317 317 317 317 318
324 323 324 324 324 324 324 322 323 324 324 323 323 323 322 320 320 320 322 321 322 321 319 319 320 321 320 320 319 318 317 316 317 317 318 317 318 317 317 317 317 317 317
322 322 322 321 322 323 324 324 324 324 323 319 320 319 317 318 320 319 318 318 315 320 318 318 317 316 316 320 320 319 319 318 318 317 317 317 316 315 316 316 316 316 317
322 323 322 322 322 322 321 320 318 315 314 319 320 316 316 320 319 318 315 314 316 316 319 317 315 315 316 317 317 317 319 318 317 317 318 318 318 318 317 318 318 317 317
323 323 322 322 321 320 318 319 319 320 321 322 321 314 312 313 317 316 312 313 313 313 317 317 316 317 318 318 319 319 319 318 318 319 320 319 319 320 320 320 320 319 319
323 323 322 321 322 321 321 321 320 320 322 322 320 316 316 318 314 313 313 313 312 314 315 316 318 318 319 320 320 319 319 320 320 320 321 321 321 320 320 320 320 319 319
323 323 323 322 323 322 322 322 322 322 322 322 321 319 318 316 315 313 312 312 313 316 318 318 319 320 320 320 321 321 321 321 320 320 320 320 319 319 320 320 320 318 319
322 323 322 322 322 322 322 322 322 323 322 322 322 321 319 319 318 315 314 315 315 320 322 322 322 322 321 321 321 320 320 320 319 319 318 318 317 317 315 315 315 314 315
321 321 323 323 323 323 322 322 322 322 322 322 322 322 323 322 321 321 321 320 320 320 321 321 320 319 319 318 318 318 316 315 315 314 313 314 314 314 312 311 310 309 308
321 320 320 320 321 321 322 321 321 321 322 321 321 320 320 320 320 320 320 320 320 319 319 319 319 318 317 316 316 314 313 313 311 311 309 306 307 306 305 303 301 300 298
322 321 320 320 320 320 320 320 320 320 320 319 319 320 320 320 319 319 319 318 317 316 316 315 314 310 309 310 307 306 306 305 304 304 303 302 301 300 299 298 297 295 294
320 319 319 318 318 318 319 320 320 319 319 318 317 316 316 316 317 316 313 313 311 309 307 305 304 301 302 299 300 300 300 299 299 298 297 296 296 295 292 293 292 291 291

GFSMA_850_thetae_096.txt.gz
Theta_e
335 335 334 334 333 333 332 329 328 328 325 325 327 326 328 328 327 327 326 325 324 321 319 321 317 312 312 309 311 311 307 306 304 303 303 303 304 304 305 305 305 305 305
335 335 334 334 333 333 331 328 327 327 326 325 326 325 328 327 328 328 326 324 323 319 319 322 317 316 311 313 312 308 306 305 304 303 303 304 304 305 305 305 305 306 306
334 333 333 333 332 332 331 328 326 327 327 326 325 325 326 326 326 326 325 322 320 319 319 321 320 316 313 311 311 306 305 304 304 304 304 304 305 305 306 306 306 306 306
332 333 332 333 332 331 329 326 327 327 327 326 322 325 326 325 324 324 323 322 317 320 317 319 319 318 316 315 310 305 304 304 304 304 304 305 305 306 306 307 307 307 307
330 331 332 331 331 329 327 327 327 327 328 325 322 325 326 324 322 322 322 321 317 319 319 319 319 318 318 319 310 306 305 305 305 305 305 305 306 307 307 307 307 308 309
326 329 331 331 330 329 328 328 327 327 326 324 323 325 325 323 322 321 321 321 318 319 317 319 319 319 318 318 312 306 306 306 306 306 306 306 307 308 308 309 310 310 311
328 328 332 330 330 329 329 327 327 327 325 324 325 324 322 321 320 321 322 321 319 318 319 320 319 317 317 316 312 309 307 308 307 307 308 308 309 310 310 311 312 312 312
330 328 327 329 329 328 328 328 325 327 325 324 325 323 323 321 320 320 320 321 321 321 321 318 316 315 315 314 308 308 307 310 310 310 311 311 312 313 313 313 313 314 314
333 326 327 329 329 328 326 325 327 326 324 324 324 322 322 321 321 320 320 320 321 321 320 319 320 320 318 318 314 308 309 311 313 314 314 314 314 315 315 315 316 317 317
327 326 326 328 328 327 327 326 326 325 324 324 324 322 321 321 320 322 321 320 320 320 321 320 320 321 320 319 320 316 310 312 312 312 312 313 314 315 315 317 317 318 318
327 326 328 327 327 327 326 327 326 327 324 324 324 323 320 320 319 319 322 321 321 320 319 320 320 320 319 320 319 318 313 312 311 311 311 312 313 314 314 315 315 316 316
325 325 328 327 327 327 327 328 326 325 323 323 324 323 320 322 322 321 319 320 321 320 320 319 319 321 320 319 319 318 314 311 311 311 312 313 314 315 315 316 316 317 316
326 327 326 326 327 326 327 326 326 324 324 322 322 322 320 321 323 324 323 321 319 320 320 320 320 320 320 320 318 316 313 312 312 312 313 314 314 314 315 316 317 317 318
327 326 325 326 324 325 326 325 324 325 325 321 323 322 322 320 322 323 322 323 323 323 322 322 321 321 320 320 318 315 314 312 312 314 315 316 316 316 317 317 317 317 317
326 326 325 325 325 325 325 324 324 325 324 322 323 322 322 324 322 323 322 321 321 321 320 321 322 321 319 319 318 318 317 316 314 313 317 316 317 317 317 317 317 317 317
325 325 325 325 325 325 324 324 324 325 322 323 323 321 323 322 320 319 321 322 321 322 320 320 320 320 322 321 320 320 320 319 318 317 317 317 317 317 317 317 317 317 317
324 324 324 323 325 325 325 324 324 323 321 323 323 322 322 322 321 321 317 314 320 322 321 319 319 319 319 319 318 318 319 317 318 318 318 318 317 318 317 318 317 316 317
323 322 322 322 323 324 324 324 324 324 324 324 324 323 322 322 322 320 317 317 316 318 318 317 315 315 317 317 316 316 315 316 317 318 318 318 319 318 320 320 320 318 319
321 321 321 321 321 323 324 324 323 321 322 323 324 322 320 318 319 317 316 318 319 318 316 314 315 314 314 316 317 318 317 319 319 319 319 320 320 321 320 320 320 319 320
323 322 322 322 321 322 322 322 322 321 320 316 315 318 320 321 318 316 315 317 318 318 315 313 313 312 312 314 317 318 319 320 320 321 321 321 321 321 321 321 320 319 318
323 322 322 322 321 321 320 319 319 319 319 319 321 322 322 317 316 315 314 314 313 313 315 313 312 312 314 318 320 320 321 321 322 322 321 321 320 320 320 319 319 318 318
323 323 323 322 322 321 321 321 321 320 320 320 320 321 322 318 317 317 318 317 316 314 315 317 316 316 320 321 320 321 321 321 320 319 319 319 318 317 317 316 314 313 312
323 323 323 323 322 322 321 322 322 321 321 321 321 321 320 320 320 319 318 317 316 315 315 315 316 318 321 320 319 319 318 318 317 316 315 315 314 314 311 309 308 306 304
322 323 322 323 323 323 322 322 322 321 321 321 321 321 321 321 321 321 321 320 319 319 320 320 320 319 319 318 318 317 316 314 312 312 310 308 308 307 305 303 301 299 298
321 321 321 320 320 321 321 321 321 321 321 320 320 320 320 321 321 320 320 320 320 318 316 316 316 315 312 313 312 310 310 307 306 305 304 302 302 300 299 298 297 295 294
319 318 318 318 319 319 319 320 320 319 319 319 318 318 319 318 318 317 316 314 312 310 310 311 308 305 305 302 302 302 302 301 301 299 298 296 295 294 292 293 292 293 291

GFSMA_850_thetae_102.txt.gz
Theta_e
326 329 332 333 334 334 333 333 332 330 326 326 326 325 324 325 327 327 327 326 325 325 323 318 322 315 310 309 313 313 307 308 306 304 304 304 304 305 305 306 306 306 306
324 326 329 330 331 332 333 333 332 331 326 326 326 325 325 325 326 327 327 326 325 324 323 316 317 316 313 309 313 313 307 308 305 304 304 304 304 305 306 306 306 306 306
323 323 328 329 330 331 333 333 332 331 328 327 326 326 325 325 326 327 327 326 324 324 323 319 320 321 320 313 314 310 308 307 305 304 304 304 305 306 306 307 307 307 307
324 325 327 330 332 332 333 333 332 331 330 328 327 327 326 326 326 326 327 326 325 324 322 319 320 322 320 313 317 310 307 306 305 304 303 304 305 305 306 307 306 307 307
327 327 327 330 333 333 332 334 331 329 329 329 327 327 326 325 326 325 327 327 325 322 320 319 321 320 320 318 319 312 310 306 304 304 304 304 304 305 306 306 307 307 307
332 331 330 331 333 333 332 333 330 329 329 328 326 326 327 325 325 325 326 327 323 321 319 317 320 320 318 320 318 315 311 307 305 304 304 304 304 305 306 306 307 307 308
333 333 332 333 333 332 330 329 329 327 328 327 326 326 325 327 325 327 326 325 322 320 318 316 317 318 318 315 317 314 315 312 307 306 304 304 305 305 306 307 308 309 310
337 336 334 334 333 330 330 329 328 329 329 327 327 326 325 325 325 326 326 323 321 320 318 316 316 318 317 315 316 316 313 313 311 308 305 305 305 306 307 309 310 311 312
335 333 333 332 331 329 329 328 327 328 327 326 327 326 324 323 324 323 323 322 321 320 320 317 316 317 318 316 314 316 315 310 315 312 306 306 307 307 309 310 311 312 313
332 332 332 331 331 329 328 327 326 326 327 327 326 326 324 324 323 322 322 321 321 320 319 316 315 315 317 317 316 314 311 309 307 309 309 308 309 310 311 312 313 314 314
332 332 330 330 329 328 327 327 325 326 327 327 326 326 323 322 323 322 322 322 322 320 319 316 316 317 316 316 315 313 313 311 309 308 310 312 313 313 314 314 315 315 316
331 330 330 329 328 328 327 327 326 326 326 326 326 326 323 321 321 321 321 321 321 320 321 320 320 319 318 318 318 316 316 317 313 309 310 312 313 313 312 313 313 313 314
330 330 329 328 327 327 327 326 325 327 325 326 324 326 324 322 321 320 320 320 319 321 321 320 319 320 319 319 319 319 318 317 317 316 312 311 311 311 311 312 313 313 314
331 329 329 327 326 325 324 324 325 325 325 324 326 325 323 322 321 320 320 319 320 320 319 319 319 320 320 319 319 318 319 319 317 316 316 315 314 313 312 313 314 315 315
331 329 326 326 325 324 324 325 326 326 324 324 325 326 324 323 321 321 320 320 319 320 320 320 320 320 320 319 318 319 319 319 317 317 317 315 313 312 313 314 315 316 316
329 327 326 326 325 325 324 324 325 324 325 324 325 325 325 323 321 320 320 320 319 318 319 319 319 319 319 319 319 319 320 320 320 321 319 317 317 316 317 317 316 316 316
328 326 327 326 324 326 324 324 325 326 326 325 324 325 325 324 321 321 319 321 320 322 322 320 320 319 320 319 320 321 320 321 320 317 317 317 317 316 317 317 317 318 318
325 326 325 324 324 324 325 325 324 325 326 325 325 325 325 324 322 319 323 322 322 322 322 321 320 321 321 320 319 319 318 319 316 317 316 316 317 317 317 318 318 318 319
323 322 322 322 323 323 324 324 324 325 325 325 324 325 324 324 323 321 322 322 322 321 321 318 321 321 321 319 319 319 319 317 317 317 315 315 316 317 319 319 319 320 319
321 322 321 321 321 321 322 323 323 324 324 324 323 324 324 324 323 320 322 320 322 320 319 318 318 318 318 317 317 317 315 314 315 313 314 318 319 319 319 319 319 319 320
321 321 321 321 321 321 321 321 324 324 323 323 324 323 324 324 324 320 319 319 321 321 320 319 317 316 317 316 316 316 315 313 313 314 316 319 320 319 319 319 319 318 318
322 321 321 321 321 321 321 321 322 324 323 324 324 324 323 322 321 320 320 320 319 320 319 317 316 317 317 315 319 317 315 314 316 317 318 319 319 317 316 316 315 314 312
322 322 321 321 321 321 321 320 320 321 321 323 323 322 322 321 321 320 320 320 318 316 317 318 317 316 317 317 315 315 315 317 316 318 316 315 314 312 312 312 309 307 306
322 322 321 321 321 321 321 320 320 319 319 320 320 320 320 320 319 319 320 318 318 317 317 317 317 317 317 316 315 317 317 316 316 314 312 310 309 308 306 303 302 300 299
321 318 319 319 320 320 321 321 319 318 319 319 319 319 319 319 318 319 319 318 317 318 319 319 318 319 318 317 317 316 315 313 311 309 308 305 304 301 299 300 296 294 293
319 316 315 315 317 318 320 320 319 318 318 317 317 317 318 318 318 318 317 316 317 316 316 316 315 315 315 314 313 310 308 308 307 304 303 301 299 299 295 293 291 290 290

GFSMA_850_thetae_105.txt.gz
Theta_e
329 330 334 335 335 334 334 333 332 331 330 326 325 325 325 325 325 325 327 328 327 326 325 325 324 324 318 310 314 313 308 312 308 306 305 304 305 305 305 306 306 305 305
327 327 329 332 333 334 333 333 333 332 329 326 326 325 325 325 325 325 326 327 326 325 325 324 322 324 318 309 318 314 309 311 309 307 304 304 304 305 305 306 306 306 306
325 326 327 329 330 332 333 333 333 333 331 329 325 325 325 324 325 325 327 327 326 325 325 323 321 323 320 318 316 316 312 311 310 306 305 304 304 305 305 306 306 306 306
324 327 327 327 328 330 332 333 333 333 331 328 325 325 326 325 325 326 325 327 327 325 324 323 321 317 320 321 318 319 316 313 311 307 305 304 304 305 306 306 306 306 306
325 328 329 328 329 330 331 333 333 331 330 328 326 326 326 327 326 326 325 327 327 325 324 323 320 321 319 320 318 319 317 312 312 306 304 304 304 305 306 306 306 306 307
325 328 331 330 331 332 332 333 331 330 329 328 327 327 327 327 326 326 326 326 327 325 324 321 319 320 320 320 319 319 318 315 309 308 305 304 304 305 305 306 306 307 307
328 329 331 333 334 334 333 333 330 329 328 329 328 327 327 326 326 326 326 325 326 326 323 320 319 319 321 319 319 319 320 320 313 314 312 304 304 304 305 306 306 307 307
334 332 332 334 335 335 334 333 330 328 327 329 327 326 325 326 326 327 326 325 326 326 322 320 318 316 313 317 319 319 319 320 318 309 312 305 304 304 305 306 307 308 309
335 334 335 334 334 333 332 330 329 328 327 327 325 326 325 324 324 325 325 325 326 325 322 320 318 316 314 315 314 317 319 319 318 318 311 311 305 305 305 307 309 310 311
335 335 334 334 333 332 331 330 329 328 327 326 327 327 326 324 323 324 325 323 326 324 321 319 318 316 314 315 316 315 317 315 314 319 315 313 307 306 307 308 310 311 312
334 334 334 333 332 331 330 330 328 327 327 326 326 325 326 326 325 323 323 323 324 322 320 320 319 317 315 316 317 316 315 314 312 311 315 316 313 308 309 309 310 312 313
334 331 333 331 331 330 329 329 328 327 327 326 325 325 326 325 324 324 324 323 323 321 320 320 319 317 315 314 315 315 315 315 312 311 310 310 316 315 311 312 313 314 314
333 332 331 331 330 329 329 328 328 327 327 327 325 325 325 326 325 324 323 323 322 321 321 320 319 317 316 316 315 316 315 313 315 314 311 309 310 312 313 313 312 312 312
331 333 330 330 329 329 329 328 328 328 328 325 325 326 326 325 325 322 322 323 321 321 321 320 319 320 319 319 318 318 318 318 316 317 317 316 312 311 311 311 311 312 313
329 329 329 329 329 328 327 326 325 326 326 324 324 325 324 326 325 322 322 322 322 320 320 319 318 319 318 319 319 319 319 319 319 318 318 317 316 316 315 313 313 314 315
330 330 331 330 328 327 325 324 324 324 324 324 324 325 326 325 324 324 322 321 321 320 319 318 318 318 317 319 320 320 319 319 320 319 319 319 318 317 316 316 317 318 318
329 328 328 328 326 324 324 323 323 323 324 324 325 325 324 325 325 323 321 321 321 319 319 319 318 319 318 319 319 319 319 319 319 320 320 319 319 318 318 318 317 317 318
328 327 327 326 324 323 323 322 323 325 325 325 325 325 324 324 324 325 322 321 320 320 320 319 316 320 319 319 319 319 320 320 320 320 320 317 316 316 316 316 316 316 317
325 325 325 324 324 323 323 322 323 324 324 325 325 325 325 324 325 324 323 321 320 318 320 320 318 320 320 320 320 320 320 320 319 320 319 316 316 316 316 316 316 316 318
323 322 320 321 323 321 322 321 321 322 323 323 323 325 325 325 324 324 323 321 319 320 322 321 321 321 320 320 321 320 319 317 317 319 317 318 317 315 313 316 318 318 318
321 320 320 322 322 320 320 321 321 321 322 323 324 325 325 325 324 324 324 321 322 323 321 321 321 320 319 320 320 318 318 318 318 316 315 315 314 313 315 315 318 318 317
320 320 319 319 321 320 320 320 320 321 322 323 324 324 324 324 323 323 324 322 322 321 321 320 319 319 319 318 317 316 316 316 316 316 315 314 313 314 315 317 317 316 315
320 321 322 321 321 321 320 320 320 320 320 322 323 323 323 323 323 323 321 321 322 321 321 320 320 319 319 317 317 317 317 316 317 316 315 314 315 314 312 311 309 309 308
321 321 321 321 321 321 321 321 320 320 319 319 319 321 323 322 321 322 322 321 320 320 320 319 318 318 318 317 317 316 316 317 316 315 315 315 312 309 306 305 302 302 302
317 317 318 319 320 320 320 320 320 319 318 319 319 318 318 318 321 321 320 320 320 320 319 319 318 318 317 317 317 317 317 316 314 314 311 311 307 304 301 299 297 296 295
302 304 312 312 316 319 319 318 316 318 317 318 318 318 317 318 319 319 318 318 317 316 317 317 317 316 317 317 317 316 313 314 313 309 305 302 301 299 296 294 293 292 292

GFSMA_850_thetae_108.txt.gz
Theta_e
328 333 335 336 336 335 335 333 333 332 331 329 327 326 325 326 326 325 324 326 329 329 330 327 326 324 324 320 309 311 311 319 316 309 305 305 306 306 305 305 305 305 305
324 331 334 335 335 335 334 334 333 332 331 330 329 326 325 325 325 325 324 324 327 329 328 326 326 324 323 322 312 315 315 316 315 309 305 305 305 305 305 305 305 305 305
321 326 331 334 334 335 334 334 333 333 332 330 330 326 325 325 325 325 324 321 325 328 326 325 326 325 320 321 315 318 316 318 317 315 305 304 304 305 305 306 306 306 306
321 323 329 330 333 334 334 334 333 333 332 331 329 326 325 325 325 324 324 325 325 327 326 325 325 324 322 321 320 320 318 315 318 318 307 304 304 305 305 305 306 306 306
322 322 327 330 331 332 333 333 333 333 332 331 328 327 326 325 325 325 325 325 326 327 326 325 323 322 320 320 321 319 319 318 318 317 315 305 304 305 305 306 306 306 306
323 323 325 330 330 332 332 333 333 333 331 330 329 327 326 325 326 326 326 326 325 326 327 325 323 322 320 319 319 319 320 319 318 318 318 309 304 305 305 306 306 306 306
324 324 325 328 331 331 331 331 332 331 330 329 328 327 326 327 326 326 326 326 326 325 327 325 324 321 320 318 319 319 319 320 319 319 319 315 306 304 305 305 306 307 307
328 326 325 326 330 331 332 332 332 331 329 328 328 328 327 327 327 326 326 325 326 326 326 325 324 320 319 318 319 319 319 319 318 318 318 311 304 304 304 305 306 306 307
332 329 329 328 328 330 332 333 332 330 329 327 327 327 326 325 325 324 325 326 325 326 327 326 324 320 319 317 317 317 318 318 318 318 318 318 309 304 304 305 306 306 307
334 332 332 332 331 331 332 332 331 330 329 327 326 327 327 325 324 324 324 326 326 325 325 326 324 321 319 317 314 314 318 318 318 317 318 318 311 305 305 305 306 306 308
334 332 332 334 332 332 333 332 331 329 328 327 327 327 326 326 325 323 324 325 325 325 325 326 324 321 318 317 315 314 314 314 317 317 319 318 316 311 306 306 306 308 309
333 330 331 333 332 332 332 331 330 329 329 328 327 327 327 324 325 325 324 323 324 324 325 325 323 320 319 318 315 315 315 315 315 315 314 314 319 317 312 310 309 309 310
330 327 328 333 333 330 332 330 329 329 329 327 327 327 327 325 325 324 325 324 323 323 323 325 323 320 319 318 316 315 316 316 315 315 314 313 312 315 318 317 311 312 313
331 327 327 329 332 329 330 329 329 329 328 328 328 327 327 326 324 323 325 324 322 322 322 323 322 320 319 317 313 313 314 316 316 316 314 313 311 310 311 313 313 313 312
332 329 329 332 332 329 329 329 328 328 328 327 327 327 327 328 324 323 324 324 324 322 322 323 322 321 319 317 314 316 316 315 317 314 316 317 315 314 312 311 311 312 313
327 330 329 331 331 329 328 329 328 327 327 326 324 326 327 324 322 325 324 324 324 323 322 323 323 322 320 318 318 318 318 318 319 318 317 317 317 317 317 316 316 316 316
329 329 327 328 329 328 327 326 325 324 323 322 324 323 323 323 323 324 324 324 323 322 322 322 321 319 318 316 318 318 319 319 319 319 319 319 319 318 318 318 318 318 318
329 328 329 328 328 327 325 324 322 323 323 323 322 323 324 323 324 324 323 324 324 323 321 320 320 318 319 319 318 317 319 320 320 319 320 320 319 319 320 319 317 317 316
328 330 328 327 326 324 323 322 322 322 322 324 325 323 325 324 323 324 325 324 324 323 321 321 320 319 319 320 319 319 319 320 320 319 319 320 320 319 318 316 315 316 316
326 325 324 324 323 321 321 321 320 320 321 321 322 321 323 324 324 324 324 324 323 323 321 321 320 319 318 317 319 320 319 320 320 319 320 320 320 317 316 316 317 317 315
322 322 320 319 318 319 321 320 320 320 320 320 321 321 322 323 321 324 324 324 323 323 320 321 320 319 319 316 317 320 320 320 320 320 318 319 318 316 316 316 317 315 314
321 320 319 319 319 318 320 319 319 320 320 319 321 323 323 322 322 325 324 325 324 323 321 321 320 319 320 318 318 321 320 320 319 318 318 317 317 316 317 315 314 313 314
320 319 318 318 317 318 319 319 318 320 320 320 319 319 323 323 323 323 324 323 323 323 322 322 318 320 320 320 320 319 318 319 318 317 317 316 316 315 314 313 312 312 310
316 315 313 317 316 317 319 319 320 320 320 319 319 318 319 322 322 323 323 323 322 321 320 320 320 321 320 321 319 319 319 318 317 317 317 316 315 313 311 308 306 304 302
308 309 309 308 311 314 316 319 319 319 319 318 318 318 317 318 318 322 322 322 319 320 319 320 320 319 320 319 319 319 318 317 317 315 314 314 312 308 303 299 298 297 297
301 301 298 296 301 307 304 308 312 313 315 315 316 317 317 318 316 314 314 315 316 317 318 319 318 318 318 318 318 317 317 316 316 313 308 308 306 304 295 293 292 292 292

GFSMA_850_thetae_111.txt.gz
Theta_e
328 330 332 334 335 335 334 334 332 331 331 330 329 327 326 325 326 324 327 326 327 329 330 331 328 327 325 323 319 310 309 309 313 312 315 311 307 306 306 305 305 305 305
325 327 330 333 335 335 335 334 333 332 332 331 330 328 327 326 326 326 326 325 325 327 329 331 329 328 324 323 322 311 310 316 315 309 315 313 309 305 305 305 305 305 305
324 326 328 331 332 335 335 334 334 333 332 332 331 329 327 327 327 326 325 324 325 325 328 331 328 325 325 322 320 314 314 318 318 312 310 315 307 306 305 305 305 305 305
322 323 326 329 332 332 335 335 334 334 333 332 332 330 328 328 327 325 325 324 323 322 323 324 327 326 326 324 320 316 318 319 319 314 311 313 309 305 305 306 305 305 306
322 321 322 327 331 332 333 335 335 334 333 333 333 331 329 327 326 325 325 325 325 325 322 323 327 325 324 323 320 319 318 319 318 316 310 310 310 305 305 306 306 306 306
323 322 322 323 328 330 333 333 335 334 334 333 332 329 328 327 326 326 325 325 325 326 326 326 327 326 323 322 321 320 319 319 318 317 316 309 309 305 305 306 306 306 306
328 323 323 322 326 328 328 331 333 333 335 331 331 329 329 329 327 326 325 325 326 326 326 324 326 326 324 322 321 319 319 319 318 318 317 316 306 304 305 306 306 306 306
334 326 324 323 323 327 328 329 331 332 334 331 329 330 329 328 328 326 326 326 326 326 326 326 324 325 324 321 319 319 319 319 318 318 317 317 311 304 305 305 306 306 306
332 332 325 325 324 325 326 327 328 329 332 330 329 329 327 326 326 326 326 325 326 324 325 326 326 325 324 320 320 318 319 319 319 318 318 317 313 307 304 305 305 306 306
328 333 331 328 326 326 327 327 328 329 331 330 329 328 327 326 326 325 325 325 325 325 324 325 326 326 324 321 319 318 317 318 318 318 318 318 316 311 304 304 305 305 306
326 327 333 331 329 328 327 327 329 331 330 329 328 328 326 326 326 325 325 324 324 324 324 325 325 325 325 322 319 318 316 316 318 318 318 318 318 316 306 305 304 305 306
326 328 331 333 332 332 331 331 331 332 330 330 329 328 327 326 326 327 326 324 323 323 324 325 325 325 325 323 320 318 314 313 317 318 318 318 318 317 314 310 306 305 307
328 323 327 332 332 331 330 332 332 331 331 330 329 328 327 327 327 326 326 324 323 324 323 324 324 325 325 324 321 318 315 314 313 314 315 318 318 318 317 317 313 310 309
326 326 325 330 328 327 327 332 332 330 330 329 328 328 328 326 326 327 326 325 324 323 323 324 323 323 324 325 321 319 318 315 314 315 315 316 316 315 316 318 318 315 312
328 327 327 327 327 326 328 333 331 330 330 329 328 328 328 328 328 327 327 326 324 323 322 323 323 323 323 324 321 319 318 314 314 316 316 316 315 314 313 313 314 316 317
331 330 332 330 327 326 331 333 329 329 328 328 328 328 328 327 327 325 325 326 324 323 323 323 323 324 323 324 322 319 316 312 313 315 317 317 316 315 314 313 311 311 311
332 332 332 330 329 329 334 332 329 327 328 329 328 327 325 323 325 324 323 323 323 322 322 323 323 323 323 323 322 320 318 314 315 315 317 317 315 316 317 317 317 316 316
333 332 330 329 327 329 331 329 328 327 326 325 324 323 322 322 324 324 323 324 323 323 322 322 323 323 322 323 323 322 319 318 318 318 318 319 318 318 318 318 318 318 318
330 328 328 328 329 329 328 328 326 324 323 323 324 325 323 323 323 322 325 324 324 323 323 323 322 322 323 322 320 319 319 319 319 319 319 319 319 319 319 319 319 319 319
329 328 328 328 328 327 326 324 323 322 321 321 321 321 321 322 323 323 324 323 323 323 323 323 321 323 322 320 319 319 318 319 319 319 320 320 319 319 319 319 319 319 318
324 324 323 323 323 323 322 321 320 320 320 320 319 319 320 320 321 321 322 322 323 323 322 323 320 320 320 319 319 319 319 317 319 319 319 320 320 319 320 320 319 318 316
321 321 320 320 319 318 319 319 319 318 320 320 320 320 319 319 320 323 322 322 323 323 322 321 322 320 320 321 319 320 319 319 319 319 320 320 319 319 320 319 318 316 315
319 320 318 318 316 316 317 318 318 318 317 317 319 320 320 319 318 322 322 322 323 323 323 322 322 321 320 320 319 318 317 317 319 319 318 319 318 318 318 317 317 316 316
312 312 314 314 313 315 317 318 317 317 316 317 318 319 319 318 318 320 321 320 322 322 322 323 323 321 320 320 321 319 318 316 318 319 319 318 316 313 313 313 312 312 312
302 303 302 304 307 310 311 311 314 312 313 313 314 316 317 318 318 318 319 319 318 321 320 321 320 320 320 319 319 319 318 317 318 316 316 316 315 308 304 302 300 300 300
298 298 298 298 299 300 300 303 307 306 306 308 309 310 313 314 316 314 314 314 314 314 314 315 319 319 319 319 318 319 319 319 319 317 315 314 310 306 295 293 294 294 294

GFSMA_850_thetae_114.txt.gz
Theta_e
332 334 339 340 340 339 339 338 337 336 335 336 337 336 334 334 334 334 334 329 329 328 330 331 332 329 327 325 322 318 316 314 314 315 308 308 307 306 306 306 305 305 306
330 329 336 339 339 339 339 339 337 336 334 336 335 335 335 335 333 333 333 329 326 326 327 327 328 330 328 326 323 321 312 312 313 315 309 306 306 309 306 306 305 305 306
331 327 328 336 339 339 338 337 339 337 335 335 334 336 334 333 333 333 333 332 328 325 325 326 330 326 329 325 323 322 315 313 315 314 314 309 309 310 306 306 305 305 306
326 329 327 328 336 338 338 336 336 336 334 335 334 333 333 333 333 332 332 331 329 324 324 323 325 327 327 325 322 319 319 319 318 316 311 309 308 308 306 306 305 305 306
322 326 331 328 330 333 333 337 335 335 335 335 334 334 333 332 331 331 331 330 327 324 323 325 323 323 325 326 325 320 320 320 320 318 313 313 307 306 306 306 306 305 306
325 325 335 332 327 331 333 334 336 336 335 335 333 333 333 332 330 330 329 328 327 325 325 325 325 323 322 326 324 322 321 320 318 318 316 315 310 305 305 306 306 305 306
330 328 330 325 322 323 329 333 335 336 335 334 333 332 331 330 328 329 330 329 327 325 325 325 325 324 324 326 324 322 321 319 318 317 317 318 313 309 305 306 306 306 306
332 331 331 330 324 323 330 331 332 335 335 334 333 333 332 330 328 328 327 328 327 325 325 325 323 325 326 326 324 323 321 320 319 319 317 317 314 312 305 305 306 306 306
332 328 329 332 328 324 324 332 332 333 335 334 333 331 331 329 330 331 328 328 328 327 326 325 324 325 324 325 325 323 320 320 320 319 319 317 315 308 306 305 306 306 306
333 329 328 330 333 326 324 325 330 331 332 332 333 332 330 330 330 329 328 325 326 327 325 325 325 325 325 325 324 324 320 319 320 320 318 318 317 315 312 309 306 306 306
327 335 328 331 332 331 325 325 331 331 330 331 330 332 330 331 330 328 329 329 325 325 325 324 324 324 324 326 325 324 321 318 320 320 319 317 317 317 317 314 310 306 305
317 323 334 334 332 332 329 327 328 330 330 330 329 331 330 330 330 328 328 327 328 328 325 324 324 324 324 324 326 325 322 319 317 318 318 319 318 318 317 317 312 306 305
332 325 331 333 332 332 332 330 329 330 329 330 332 332 331 330 329 329 328 328 328 327 326 324 324 324 324 324 324 324 322 320 318 315 317 318 318 318 317 317 316 313 307
335 334 328 331 331 331 332 331 331 330 330 331 332 332 330 329 329 330 328 329 327 326 326 325 324 323 323 324 323 324 324 320 318 315 314 317 318 318 318 317 317 317 315
333 336 336 334 331 329 330 329 328 330 330 329 331 332 331 329 329 328 328 327 327 327 325 324 324 324 324 323 323 324 325 322 319 317 313 313 316 317 318 318 317 317 317
334 333 332 331 332 327 329 329 329 328 331 331 332 331 330 328 329 329 329 328 328 327 326 325 325 325 323 324 323 324 325 324 320 318 315 313 314 315 316 316 315 316 317
333 335 332 332 333 334 332 329 328 328 330 330 330 330 328 329 328 328 329 327 327 326 325 325 324 324 323 323 323 323 324 324 321 319 317 314 315 315 315 316 316 315 314
334 335 335 331 333 336 334 330 328 331 332 330 328 328 328 329 327 325 324 323 325 324 324 327 323 324 323 323 323 323 323 323 322 320 316 314 315 316 317 316 316 315 315
331 330 332 331 331 332 331 328 328 332 330 328 327 327 326 326 324 324 324 325 326 325 326 324 324 323 323 322 323 322 322 323 322 321 320 314 314 315 317 317 316 317 318
328 329 327 327 329 329 328 329 329 329 328 326 325 324 323 322 323 323 323 323 323 324 324 324 324 323 323 323 322 323 321 322 321 321 320 316 316 316 318 317 317 318 318
326 326 327 328 327 328 327 326 325 325 324 323 321 321 321 321 320 320 320 321 323 323 321 323 323 322 322 321 323 323 321 321 321 321 320 318 319 319 319 319 319 319 319
322 323 324 322 321 322 323 323 322 321 321 320 320 320 320 320 320 320 319 319 321 321 322 323 321 322 322 321 321 322 321 320 319 319 319 319 319 319 320 320 320 320 319
311 313 314 315 316 316 318 318 319 319 318 318 318 318 319 319 319 319 318 318 319 323 322 321 322 322 321 322 322 321 320 321 318 317 318 319 318 318 319 319 319 320 320
302 304 306 306 310 310 316 315 317 317 317 317 317 317 317 317 318 319 318 318 320 321 321 320 321 321 321 322 322 322 322 319 317 316 317 317 315 315 313 315 315 315 316
300 301 302 301 303 301 303 305 307 311 310 310 312 313 314 316 317 317 318 316 316 316 316 319 320 319 320 320 320 320 319 317 315 315 315 316 310 306 304 306 308 302 307
296 295 297 296 296 297 299 301 302 302 302 302 302 305 307 309 312 314 315 313 312 311 311 312 312 313 316 318 319 319 319 318 315 312 310 314 311 304 294 294 294 297 295

GFSMA_850_thetae_117.txt.gz
Theta_e
340 342 340 340 339 340 339 340 337 337 337 337 337 335 335 335 334 333 335 331 326 329 330 330 332 332 331 327 325 323 321 318 315 312 311 309 306 306 306 306 305 305 305
340 342 340 339 340 338 340 341 339 338 337 340 337 337 335 335 334 333 334 333 327 327 327 328 330 330 329 327 326 324 321 317 315 312 312 311 308 307 306 306 305 305 306
339 339 338 339 338 339 339 341 339 338 337 336 337 336 336 335 334 333 333 333 332 328 326 326 327 327 330 328 327 324 321 316 316 316 317 312 311 307 306 306 305 305 306
335 339 333 334 339 338 340 339 339 338 337 336 336 337 335 335 334 334 334 331 333 332 328 324 325 325 324 323 327 325 323 320 319 318 317 313 314 310 307 306 305 305 306
323 334 337 329 332 340 339 338 338 339 337 338 337 336 336 337 335 335 333 332 331 330 330 326 324 324 324 323 325 325 322 319 319 319 317 317 317 314 308 306 306 305 306
324 326 338 335 328 333 339 338 337 338 337 339 336 337 336 334 335 334 334 332 331 330 328 327 324 325 325 323 322 326 324 321 319 319 318 318 318 315 309 306 306 305 306
339 336 336 336 331 326 328 336 337 338 336 337 337 336 335 334 334 334 334 332 330 331 329 328 327 325 325 324 322 324 325 323 320 319 318 318 316 314 308 306 306 306 306
339 339 338 338 339 333 328 339 336 337 336 335 336 334 334 333 334 333 332 332 332 331 329 328 328 325 325 324 322 322 324 323 322 319 319 318 317 315 309 305 306 306 306
341 340 338 335 338 334 331 333 333 339 336 335 335 334 333 331 332 332 331 331 331 329 329 328 328 326 326 325 324 324 325 324 322 320 319 318 318 317 311 307 305 306 306
339 339 340 339 338 334 333 331 327 329 338 337 334 333 332 330 331 331 332 331 331 330 329 328 325 326 326 325 324 324 325 324 322 321 319 320 317 317 316 311 306 306 306
336 338 339 339 339 337 331 330 330 329 333 337 334 333 333 333 333 333 331 331 331 329 327 327 326 324 324 324 324 325 324 325 322 321 320 319 319 318 316 313 305 305 306
333 335 337 337 337 337 334 331 331 328 330 332 335 332 331 332 333 332 331 331 330 330 329 329 327 323 323 324 324 324 325 324 324 320 320 320 319 317 317 315 312 307 308
333 332 335 340 337 336 331 331 332 330 332 330 336 332 332 331 332 332 331 331 330 329 328 329 327 326 324 324 324 324 324 325 324 322 319 320 320 318 318 317 316 314 313
332 334 333 334 339 335 335 333 333 331 331 329 331 328 333 331 332 331 330 330 330 329 329 329 328 326 325 324 324 323 324 324 324 323 319 318 319 319 318 318 317 316 314
333 334 334 333 330 336 335 334 333 331 331 330 330 331 331 332 332 331 330 329 330 330 329 328 328 328 326 324 324 323 323 323 324 324 320 318 317 318 318 318 317 317 317
333 332 334 332 332 333 336 336 333 331 332 331 328 329 332 333 333 332 330 330 329 329 329 329 328 327 326 326 325 323 324 323 324 324 318 319 317 317 317 318 318 317 317
330 332 333 332 331 331 333 337 334 330 334 332 330 331 330 332 331 331 329 329 329 329 328 328 327 327 325 326 325 323 323 323 323 324 324 321 319 316 315 316 318 317 317
330 331 333 332 331 330 332 332 335 335 330 331 330 327 330 330 331 330 329 329 328 329 327 326 325 325 324 324 324 322 323 323 323 323 324 324 320 318 314 314 315 316 318
329 331 332 331 332 332 331 332 333 331 333 330 326 327 331 329 328 328 329 327 326 326 327 325 325 324 324 325 324 323 322 323 323 323 323 324 323 320 317 315 315 314 316
330 330 331 332 331 331 332 331 331 333 330 327 330 329 328 327 327 326 326 325 324 325 323 326 325 323 323 324 323 324 323 323 323 322 322 323 323 320 319 316 315 316 316
324 324 325 328 329 329 328 329 328 329 329 329 328 326 325 324 324 323 322 322 322 322 322 324 324 323 323 323 323 323 323 323 323 322 322 322 323 321 318 316 317 317 318
311 314 318 321 323 324 324 324 326 325 326 326 325 324 323 322 321 321 320 319 319 319 320 319 320 322 323 321 323 322 322 321 321 321 322 321 322 321 320 317 316 315 317
302 304 305 309 314 319 318 320 319 319 319 320 319 319 319 319 319 318 319 319 318 318 318 318 318 320 321 321 322 322 321 321 321 321 321 321 321 321 320 318 317 316 318
298 300 299 300 303 303 307 309 312 310 313 308 314 316 317 318 318 318 318 318 317 317 317 317 318 319 321 321 320 320 321 321 320 319 320 319 318 318 318 318 318 318 319
296 297 296 297 297 299 301 301 305 304 303 303 305 307 306 309 310 311 312 314 313 313 313 314 315 316 316 319 319 319 319 319 319 318 317 317 315 312 311 311 311 316 318
293 294 294 293 295 296 300 298 300 300 300 301 299 300 302 303 303 305 307 308 308 308 309 310 310 310 310 313 315 318 316 318 319 315 314 312 313 310 299 299 301 303 304

GFSMA_850_thetae_120.txt.gz
Theta_e
333 340 338 339 338 338 337 336 336 334 331 334 336 336 334 332 334 333 332 332 331 327 328 329 330 332 331 329 330 325 324 324 320 317 316 314 308 313 309 306 305 305 304
337 338 337 341 338 337 336 336 337 337 335 335 335 336 335 334 335 334 334 332 332 327 327 327 329 330 331 331 330 326 325 323 321 318 316 313 309 307 310 306 305 305 304
339 341 337 341 340 340 336 338 337 338 336 336 337 336 335 335 334 334 334 332 332 331 328 326 326 327 329 330 330 327 324 325 322 320 317 314 308 306 308 306 305 305 305
338 342 340 340 338 341 341 339 335 339 337 336 336 336 336 334 335 334 334 332 333 332 331 330 327 325 326 326 325 324 322 325 323 321 319 316 314 310 306 306 306 305 306
336 340 337 336 336 340 337 340 337 337 337 336 336 335 335 336 334 333 333 332 333 332 330 329 329 325 324 324 324 324 325 323 324 321 320 319 317 315 306 306 306 305 306
336 335 340 338 334 339 339 340 339 336 336 337 336 336 336 335 333 335 333 332 332 331 331 330 329 327 324 324 325 325 322 323 322 321 320 319 318 317 308 306 306 305 305
338 333 332 338 333 332 337 340 339 337 335 336 336 336 334 334 335 333 333 333 331 331 330 330 329 328 326 324 325 325 323 324 323 321 319 318 319 318 313 308 306 306 305
339 337 335 334 328 328 330 339 340 336 335 335 335 334 335 335 334 333 332 332 332 331 330 329 330 328 327 327 325 324 323 326 325 324 321 319 318 318 316 311 306 306 306
340 338 338 337 335 328 327 328 335 335 335 335 335 335 334 333 333 333 331 332 332 331 331 330 329 328 327 327 325 325 324 323 323 324 323 320 318 317 316 316 311 306 306
335 340 339 339 339 338 337 335 331 329 334 336 336 335 333 330 330 333 333 332 330 330 329 330 329 329 328 327 327 326 324 323 323 323 324 322 319 318 317 314 310 306 307
334 334 333 337 340 339 340 337 336 332 330 333 336 335 335 333 331 332 331 332 332 330 329 328 328 327 326 325 325 325 324 323 323 324 324 323 321 318 317 316 310 306 305
329 333 330 334 333 338 336 340 337 334 331 331 335 335 333 334 334 331 332 331 330 331 330 329 328 327 327 325 323 324 324 324 323 323 325 323 322 319 319 317 315 311 306
323 332 331 331 332 337 339 337 336 332 333 332 332 332 333 333 333 332 331 331 331 331 329 330 328 328 328 326 323 323 323 324 324 324 324 324 321 321 320 319 317 315 312
312 324 330 329 330 332 333 337 335 336 335 336 335 332 332 331 329 327 328 330 330 330 329 329 329 329 328 327 326 325 324 324 324 324 324 324 323 320 320 319 318 317 316
312 314 326 330 329 331 334 336 336 336 338 334 335 333 333 328 331 326 330 329 330 329 329 328 328 327 328 327 327 326 323 323 324 324 324 325 324 321 319 320 318 318 317
313 315 325 327 328 330 330 333 334 332 334 336 332 331 332 330 330 329 330 331 330 329 329 329 329 329 328 328 326 326 325 324 323 324 324 324 324 322 319 319 320 318 318
317 316 324 325 320 324 329 330 332 332 332 334 332 330 334 331 331 332 330 331 330 330 329 328 328 327 327 328 327 326 325 324 323 323 323 323 324 322 320 319 319 318 319
319 327 326 325 316 328 331 330 329 331 331 331 335 334 334 330 331 332 328 328 328 328 328 327 327 327 328 327 326 325 323 323 323 323 323 323 324 322 318 318 316 317 318
323 324 324 325 329 330 332 331 330 332 331 331 331 333 334 334 331 331 330 331 328 328 327 327 326 325 327 324 325 325 324 324 324 323 323 323 323 324 320 321 319 317 316
319 319 321 324 326 327 330 331 331 330 331 332 330 330 331 332 330 328 329 328 327 328 327 326 324 325 323 325 325 323 324 324 325 322 323 323 323 323 323 324 322 319 317
315 311 315 320 322 324 325 329 330 331 330 330 329 328 327 327 329 328 328 323 322 325 325 324 323 322 321 322 322 322 322 323 323 322 323 323 323 323 322 323 323 322 319
301 300 307 310 314 313 314 319 327 328 328 327 327 326 325 326 325 325 325 324 324 322 320 320 319 319 319 318 320 321 320 322 322 322 322 322 321 323 322 322 322 323 321
298 300 300 299 299 300 303 309 315 316 315 318 317 318 319 319 319 320 319 320 320 319 319 318 318 317 317 315 316 319 321 321 321 322 322 321 321 321 322 322 322 323 322
297 297 298 297 298 297 298 300 304 307 301 308 308 311 308 310 312 312 315 315 317 317 316 314 313 314 314 315 316 318 320 320 320 319 320 321 320 320 320 321 321 322 321
294 296 296 298 294 298 297 301 301 300 299 302 299 301 305 305 305 306 307 307 309 311 311 310 308 307 307 311 314 314 315 316 318 318 317 319 319 319 317 315 316 318 319
292 294 292 295 293 294 293 296 296 299 299 300 300 299 301 299 298 300 303 302 302 303 304 304 304 305 305 305 305 308 312 313 314 312 315 315 316 316 307 306 307 309 311

GFSMA_850_thetae_126.txt.gz
Theta_e
331 332 333 333 332 332 332 332 331 330 330 330 330 328 325 322 324 332 332 333 333 332 331 329 328 330 330 330 329 328 327 325 325 324 321 317 312 309 308 314 313 313 309
332 332 331 333 333 333 331 331 332 331 331 331 331 329 331 328 329 333 333 333 333 330 330 328 327 329 330 330 330 329 325 324 326 325 324 321 316 312 308 307 307 306 305
334 333 332 331 331 333 333 334 333 333 332 332 331 330 331 334 332 331 332 332 333 331 331 329 327 328 328 329 331 330 330 329 328 326 325 323 320 315 311 307 308 306 305
335 334 333 333 332 336 335 337 337 334 334 333 334 331 331 333 333 331 331 333 333 333 332 330 328 326 326 327 328 329 329 328 328 326 326 324 322 319 314 309 307 306 306
327 334 334 334 334 338 338 337 336 335 333 334 335 332 333 333 334 334 332 331 332 332 332 331 330 329 328 327 326 326 328 326 326 326 325 324 323 321 318 312 310 307 305
334 330 334 332 336 335 337 336 339 337 335 334 334 334 333 334 334 334 334 333 331 333 332 332 331 331 330 329 328 326 325 325 324 324 324 323 324 322 319 315 314 312 306
332 334 334 331 328 333 334 336 337 338 339 337 335 336 335 335 334 335 334 334 333 332 332 333 331 331 330 330 329 328 326 324 324 324 324 325 325 323 320 315 317 315 310
322 329 332 334 322 327 329 334 334 334 335 334 336 337 336 335 334 334 334 333 334 333 329 331 331 331 329 328 328 328 328 326 324 324 325 325 325 323 320 318 317 315 314
318 320 328 332 333 326 323 331 332 332 330 331 331 335 336 335 334 334 333 334 334 332 332 331 330 330 329 329 328 328 329 327 325 325 325 325 324 322 321 319 316 316 315
309 316 320 325 332 333 332 332 329 327 331 331 330 331 332 332 333 335 334 333 334 333 333 331 330 330 330 330 329 328 328 328 327 326 326 325 325 323 321 319 318 315 316
308 308 316 320 325 331 332 326 324 324 331 332 332 330 329 333 331 329 331 332 332 331 332 332 329 330 330 330 329 329 328 327 327 327 325 325 324 325 324 320 318 317 315
308 308 308 313 320 325 330 332 331 330 329 332 331 332 331 331 332 331 328 329 327 328 330 331 330 330 330 329 328 327 327 326 326 324 325 325 324 325 324 324 321 319 317
306 307 308 308 312 321 326 328 331 330 328 328 331 329 332 330 331 332 331 330 328 327 327 328 330 329 329 328 327 327 327 326 325 323 323 324 324 323 323 325 324 322 319
304 306 309 310 309 310 317 321 327 331 331 330 331 331 329 328 331 331 331 331 331 330 330 328 327 327 329 328 328 328 327 326 325 323 322 323 324 324 323 324 324 324 322
302 306 309 311 311 310 309 313 318 327 330 329 329 329 327 322 322 328 331 330 330 329 329 329 327 326 326 327 328 328 328 327 326 325 325 324 323 323 323 323 324 324 324
302 304 308 311 312 312 312 311 312 319 328 328 328 328 326 324 322 324 328 329 331 328 328 328 328 328 327 326 328 328 328 327 326 326 325 324 323 323 323 323 323 323 324
302 305 311 313 314 315 315 313 312 314 319 326 328 327 327 326 322 323 323 325 329 331 330 327 328 327 328 327 328 328 328 327 327 327 326 325 324 323 323 323 323 323 324
302 306 311 313 312 313 315 315 314 317 319 321 324 326 326 329 326 326 322 321 329 329 330 327 327 327 327 326 326 327 324 326 326 325 326 325 325 323 323 323 323 323 323
301 304 308 310 310 311 313 317 315 318 324 323 323 325 323 321 319 325 327 329 329 327 330 328 327 327 327 325 323 322 321 321 325 326 324 324 324 324 323 323 323 322 322
297 300 301 304 308 310 312 316 319 319 319 319 321 322 317 322 320 322 322 327 327 328 329 329 328 327 326 324 324 324 324 324 324 324 323 324 324 323 322 323 323 323 322
295 295 296 298 302 309 309 312 315 317 317 319 319 321 323 320 325 329 329 328 328 328 327 328 327 327 325 326 325 325 324 324 323 322 322 323 322 321 321 322 322 321 322
294 295 295 293 296 298 300 303 305 306 308 308 310 311 312 318 321 322 328 329 330 328 328 327 326 325 325 324 324 324 323 323 322 321 320 321 320 320 319 319 320 321 322
294 293 294 293 292 294 300 301 300 301 301 301 301 302 304 304 309 309 311 309 315 320 324 325 324 324 323 322 322 321 321 319 318 317 318 318 319 319 319 319 320 320 320
293 293 292 292 292 293 295 297 299 299 299 297 298 300 300 300 302 306 307 307 306 303 309 307 314 316 316 316 315 315 315 314 314 314 314 314 316 317 318 318 319 319 318
284 285 286 286 289 290 293 295 296 295 292 295 295 297 298 298 299 301 304 302 302 301 302 300 301 301 304 309 307 308 309 308 309 311 310 310 314 314 316 317 317 317 317
282 283 283 283 282 283 283 286 289 291 292 292 292 292 294 295 296 298 300 298 302 300 301 300 296 299 297 301 302 304 304 304 304 305 306 305 309 309 311 312 313 313 314

GFSMA_850_thetae_129.txt.gz
Theta_e
332 333 334 335 334 335 336 333 331 329 330 332 331 329 326 322 320 327 331 331 331 332 331 330 329 329 330 330 329 327 324 323 324 323 322 320 315 311 311 312 317 320 320
335 333 332 333 334 334 335 335 333 331 330 330 331 330 327 324 322 328 332 331 332 332 330 330 330 328 329 330 330 329 327 326 326 325 324 324 321 316 312 310 313 317 321
338 335 334 334 333 335 336 336 335 333 332 331 331 331 329 326 323 323 328 331 331 331 330 330 329 326 328 329 330 330 329 329 326 326 326 325 324 322 319 313 308 310 311
332 335 337 335 333 332 333 335 335 334 334 333 332 331 330 329 326 324 331 332 332 331 329 330 330 326 327 328 329 329 330 330 330 329 327 326 325 323 321 318 313 308 306
321 326 331 335 333 333 333 331 331 333 336 335 333 332 331 330 332 332 331 331 330 332 331 330 329 329 327 326 326 327 328 329 329 329 328 326 325 325 323 321 317 310 310
312 319 328 329 327 322 334 332 331 332 333 335 335 334 334 332 331 333 332 332 331 332 332 331 329 327 329 328 328 326 326 326 326 328 326 325 325 323 323 322 321 315 312
306 308 320 324 325 327 327 329 333 334 334 333 334 334 335 334 331 334 334 334 333 332 333 332 331 330 330 329 329 328 328 327 326 326 325 324 325 325 324 323 321 318 315
307 307 309 318 324 329 327 326 332 334 334 333 332 334 335 335 333 333 334 334 334 333 333 332 332 332 332 330 328 328 329 328 327 326 325 325 326 325 325 323 321 319 315
306 307 307 310 319 327 328 323 325 326 333 333 332 332 333 333 334 333 334 334 334 334 334 333 333 331 331 330 330 327 327 327 328 327 326 325 324 325 325 323 322 319 317
306 306 307 307 312 321 325 326 324 324 326 328 330 330 330 328 332 332 333 332 334 333 333 333 333 331 330 330 329 328 328 328 328 328 327 326 325 325 325 325 322 320 319
304 305 306 306 307 312 320 327 325 324 324 325 325 331 329 328 327 329 331 330 331 332 333 333 333 332 331 331 330 329 329 329 328 328 328 327 326 326 325 323 322 321 319
303 304 305 305 306 307 312 323 326 326 324 328 327 331 329 330 329 329 329 330 329 329 331 332 333 332 332 331 330 330 330 329 329 328 328 327 326 327 325 324 324 321 320
299 301 304 304 305 306 308 314 325 325 326 330 329 327 327 328 330 330 329 328 328 328 327 329 330 330 330 331 330 330 328 327 328 328 327 326 324 325 325 325 324 324 322
298 300 301 302 305 306 308 308 313 322 324 326 329 330 330 329 329 330 329 329 327 327 328 327 327 326 327 328 329 329 328 327 327 328 326 324 323 323 325 325 324 324 324
297 298 300 301 303 306 309 309 308 312 317 323 326 329 330 330 329 324 323 323 320 325 326 329 329 327 325 325 327 328 327 326 327 327 326 325 323 323 323 324 324 323 323
297 299 300 304 307 307 309 310 311 310 311 313 318 326 328 327 326 325 324 323 322 325 328 328 328 329 328 327 326 326 325 326 327 327 327 326 325 325 324 323 323 323 323
297 299 302 306 307 307 309 311 313 313 312 311 312 320 326 325 324 326 324 324 323 324 327 327 325 328 327 328 328 328 326 326 328 328 327 326 325 325 325 323 323 323 323
295 298 302 305 308 309 309 310 312 315 315 317 318 320 324 324 325 325 325 322 323 324 325 325 323 327 328 327 327 327 327 327 328 328 327 326 326 325 325 325 323 323 323
294 297 301 304 306 308 309 310 310 311 317 316 318 325 322 321 326 326 326 325 322 323 324 322 323 325 326 327 327 326 327 326 326 325 326 325 325 325 324 325 323 323 323
292 292 293 295 299 301 305 307 310 313 313 316 318 322 324 325 325 326 327 324 322 321 320 321 321 326 327 327 327 326 326 325 323 323 323 323 324 325 324 324 324 323 323
293 293 294 295 294 294 299 302 303 307 311 311 313 314 317 318 320 320 319 320 324 324 322 325 328 327 326 328 327 327 326 324 323 323 323 324 323 323 322 324 324 323 322
293 295 296 295 294 292 295 295 298 300 304 304 304 304 307 308 311 317 317 317 319 323 325 327 327 326 325 325 326 326 326 325 325 324 324 323 323 322 322 322 322 321 320
294 294 293 291 292 293 294 294 294 295 297 297 298 299 301 301 301 304 306 307 308 317 318 322 323 320 321 321 323 324 323 323 324 323 323 322 322 321 319 319 318 319 319
285 285 285 287 289 289 292 294 295 294 295 294 294 294 295 297 298 301 302 305 305 307 308 306 307 308 304 306 306 314 312 318 321 319 317 315 317 316 317 317 316 316 317
283 283 283 283 283 283 285 289 293 293 292 292 293 292 294 292 293 298 299 301 300 300 299 302 303 302 305 305 303 305 306 307 310 310 308 309 311 311 312 313 314 315 315
282 282 282 281 281 281 282 283 284 285 286 288 289 290 290 290 292 294 296 295 295 295 296 299 300 300 300 301 301 305 300 301 303 302 302 302 306 306 307 310 311 312 313

GFSMA_850_thetae_132.txt.gz
Theta_e
335 335 334 335 336 336 335 334 334 333 331 331 330 330 329 326 325 323 329 331 332 331 331 330 327 328 329 330 329 328 325 322 322 321 321 319 317 313 310 311 317 320 320
336 335 336 334 334 335 334 335 334 334 333 331 330 331 330 328 325 323 324 330 331 331 331 331 330 329 328 329 329 329 327 324 323 324 324 323 322 318 315 311 310 320 320
326 334 335 335 336 334 335 335 335 333 333 332 331 331 331 330 327 324 322 330 331 331 331 332 329 330 328 328 329 329 329 327 325 326 325 325 324 323 321 319 314 312 319
317 318 320 316 323 330 335 335 333 335 333 331 333 331 331 331 330 326 323 324 332 330 332 331 329 329 326 325 328 329 329 329 328 328 328 327 325 325 325 322 320 314 311
308 309 311 315 315 312 316 333 333 332 332 333 332 332 331 331 331 328 326 323 324 330 332 331 328 329 327 325 326 327 327 328 329 329 329 329 327 326 325 324 322 320 315
306 306 306 306 313 318 313 314 324 331 333 332 330 330 330 331 331 330 329 325 324 331 332 331 331 330 329 327 326 326 326 326 326 327 328 328 328 326 324 324 323 322 321
306 306 307 307 306 310 321 323 321 326 325 329 332 330 329 330 331 331 330 332 331 330 331 331 332 332 331 329 328 327 327 327 326 328 328 326 326 325 325 325 324 322 322
306 306 306 307 307 307 317 323 325 326 323 321 331 331 331 332 330 332 332 331 332 332 331 331 332 332 331 330 329 329 329 329 328 328 328 326 325 325 325 325 324 324 321
306 306 305 306 307 306 309 322 325 326 324 323 326 328 330 330 331 331 332 332 332 333 333 333 332 332 333 332 330 330 330 329 329 328 328 328 327 326 325 325 325 324 321
305 305 305 305 306 306 306 311 324 328 328 325 324 330 331 330 329 330 331 332 331 332 331 331 333 333 333 332 332 331 331 329 327 327 327 327 327 326 325 324 325 324 323
303 304 303 304 305 305 306 307 315 326 328 324 325 326 326 327 328 330 329 330 331 331 331 332 331 331 333 333 332 331 329 329 328 328 327 327 328 327 326 325 325 324 323
301 301 301 303 304 305 305 305 307 316 326 326 323 324 325 323 322 328 329 328 327 327 328 328 329 330 330 332 332 332 330 330 329 329 328 328 328 327 326 324 325 325 322
296 299 299 299 301 304 304 304 305 313 323 326 325 323 323 324 324 326 328 328 328 327 328 328 327 327 328 329 329 332 331 330 329 329 329 328 328 328 326 324 324 325 324
294 296 298 298 299 301 302 303 304 307 319 324 326 325 324 324 324 326 328 328 329 328 327 325 326 326 326 327 327 328 329 329 327 328 327 328 327 327 326 324 324 325 324
293 295 297 298 299 300 301 303 304 305 309 318 321 324 324 325 322 326 326 327 328 326 322 320 320 322 325 325 328 327 327 328 326 327 326 327 327 327 325 323 323 324 324
293 295 297 299 300 304 305 304 305 307 308 308 311 315 321 323 325 326 327 328 329 323 323 324 321 321 321 324 327 328 326 324 325 326 325 327 327 326 324 324 323 323 323
292 293 296 300 302 304 303 305 306 308 310 311 310 310 312 318 323 326 325 324 326 324 323 322 322 320 321 324 326 327 327 327 326 325 325 327 327 326 326 325 324 324 323
289 291 294 298 301 304 305 306 307 308 309 311 315 313 315 312 315 322 323 323 325 324 323 323 322 322 320 322 325 323 326 326 327 327 326 326 327 327 326 325 325 325 324
288 289 292 294 298 301 304 305 307 309 310 311 313 315 318 320 323 325 323 323 324 324 323 324 323 322 321 324 323 323 323 326 326 327 327 326 327 326 326 326 326 325 325
288 288 289 290 293 296 300 301 302 304 306 308 310 312 315 317 318 319 323 322 323 323 323 322 323 324 323 323 323 322 323 324 326 326 327 326 326 325 326 325 325 325 325
291 292 291 291 291 293 294 296 298 298 299 301 302 302 309 311 315 317 318 319 322 322 322 321 322 322 322 322 321 321 321 322 325 326 327 325 324 324 325 324 325 325 324
289 291 292 292 292 291 293 295 297 296 295 296 297 298 301 304 305 310 314 316 316 317 319 321 320 321 322 322 323 322 323 325 325 325 326 325 323 323 323 324 324 323 323
283 284 287 289 289 290 292 293 295 296 295 293 293 294 295 297 299 301 302 304 307 311 313 312 313 315 319 317 322 322 323 324 323 323 324 324 322 322 323 323 323 322 322
283 283 283 283 283 283 286 290 293 294 294 294 292 292 293 293 294 295 296 297 298 300 300 300 300 302 304 306 309 308 310 313 315 315 319 320 321 321 320 320 320 319 318
282 282 282 282 283 282 282 283 284 284 285 287 288 290 290 291 292 294 295 293 292 292 291 291 293 295 298 299 305 303 303 307 307 306 305 309 308 313 315 315 315 316 315
281 281 281 282 282 282 282 282 283 283 283 283 282 283 284 287 289 290 292 290 291 289 292 293 293 293 295 295 297 298 298 300 301 300 300 300 301 303 307 308 310 310 310

GFSMA_850_thetae_135.txt.gz
Theta_e
331 333 335 335 335 337 337 336 334 333 333 331 330 332 332 330 328 326 325 330 332 329 329 327 327 328 330 330 330 328 325 322 320 319 318 317 316 314 312 311 316 319 319
328 331 324 336 337 337 338 337 337 336 334 333 331 330 331 331 330 327 326 325 331 331 332 330 330 327 327 329 330 329 328 326 322 321 322 322 321 319 316 312 311 313 316
319 320 326 320 319 332 335 335 335 336 336 333 333 331 330 330 330 330 327 325 325 330 332 331 330 330 330 329 329 329 329 328 326 324 323 324 324 323 321 320 318 314 316
312 314 314 316 322 317 314 310 330 328 332 334 333 332 331 330 330 330 330 327 324 325 331 332 332 330 329 330 328 329 329 329 328 327 325 327 325 325 324 324 323 320 313
308 309 309 308 308 311 315 313 311 315 323 328 332 333 331 331 331 330 330 330 327 323 329 331 330 332 329 329 328 327 329 329 329 328 328 328 328 328 326 325 324 323 320
306 306 307 307 306 306 307 310 314 318 314 321 326 332 332 331 331 331 330 330 329 326 323 330 331 331 329 328 328 326 328 329 329 329 329 328 329 329 328 326 325 324 322
306 306 306 306 306 306 306 307 308 311 317 325 328 325 329 330 330 329 329 329 331 329 326 323 328 332 332 330 329 326 326 328 327 327 328 329 329 328 328 327 324 323 323
305 306 306 306 306 306 306 306 307 315 320 321 327 329 329 328 328 329 329 328 329 330 329 325 326 332 331 331 331 330 328 327 327 327 327 327 328 327 326 326 326 324 325
303 304 305 305 305 306 306 306 306 310 321 324 325 324 325 326 327 327 329 329 328 330 330 330 330 330 331 331 331 331 330 329 328 328 328 328 328 328 327 326 325 325 325
302 303 303 304 305 305 306 306 305 306 317 326 326 326 325 325 327 326 327 329 330 329 330 330 330 331 331 332 332 331 331 331 330 329 329 329 329 328 328 327 326 326 325
298 298 301 303 303 303 304 305 306 305 307 321 325 325 325 324 324 325 327 328 331 331 330 331 331 331 332 332 332 332 332 331 331 331 329 329 328 328 328 327 326 326 325
294 295 296 299 300 301 303 305 305 305 305 311 322 325 325 325 325 324 324 324 327 330 331 332 331 331 331 330 330 330 330 331 328 329 330 330 328 327 327 327 327 326 325
292 294 294 296 297 300 300 303 304 304 304 306 317 321 325 326 325 324 323 324 324 324 327 329 330 331 330 330 329 328 330 331 328 328 329 330 329 329 327 327 327 326 326
291 292 293 295 296 298 300 300 300 302 302 304 310 319 322 325 324 324 325 325 324 324 324 328 328 328 327 326 326 326 326 327 330 329 327 328 328 329 329 327 327 326 325
289 291 292 294 296 299 299 299 300 301 303 303 307 316 320 323 324 324 325 325 325 324 325 326 327 327 326 326 324 324 322 324 327 328 330 327 327 328 327 327 327 326 326
288 290 292 294 297 298 300 302 301 302 304 305 305 311 316 320 321 325 324 323 324 324 325 324 324 324 324 321 323 321 321 321 326 328 328 328 327 328 327 326 327 325 325
288 289 291 293 295 298 301 302 302 303 305 307 309 308 309 313 314 321 320 324 323 323 322 323 323 320 322 321 321 320 321 322 326 327 327 326 326 328 327 326 326 325 324
287 288 289 292 294 297 300 302 304 305 306 307 308 310 312 310 313 314 317 323 325 326 325 324 324 323 322 321 321 322 322 322 325 325 326 326 325 327 326 327 326 325 325
288 288 288 290 293 295 296 298 301 304 305 306 307 309 311 313 314 316 318 320 323 323 323 324 325 324 324 323 324 323 321 323 324 324 324 325 326 327 326 327 327 326 326
290 289 290 289 291 293 295 295 297 298 299 301 302 305 307 310 312 315 317 318 319 320 322 324 323 323 324 324 323 324 322 322 323 323 322 323 326 327 327 326 327 327 327
290 290 291 292 292 292 293 295 295 296 296 297 298 297 298 299 304 310 312 315 317 317 319 319 322 322 322 323 323 323 324 323 323 322 322 322 323 326 326 326 326 326 326
285 288 290 291 292 291 293 295 295 295 295 296 296 296 296 296 298 299 300 307 310 314 315 314 314 317 316 317 318 320 322 322 322 323 322 322 322 323 326 326 325 325 325
283 283 283 282 283 285 288 290 293 296 296 293 293 294 294 294 295 296 297 299 302 305 304 303 304 305 309 307 313 315 316 314 318 319 321 321 322 324 325 325 325 325 325
281 281 281 281 281 280 281 282 283 284 285 288 289 290 292 292 293 295 296 297 297 297 296 294 293 292 294 298 302 303 306 306 311 305 311 319 320 322 321 321 322 322 322
281 281 281 280 280 279 280 281 282 282 282 282 283 283 283 285 287 291 294 294 293 292 292 292 293 293 294 295 297 298 300 300 302 302 303 306 306 308 308 311 310 318 317
280 280 280 280 279 280 280 280 281 281 281 282 281 281 280 281 282 283 284 285 288 288 290 293 293 293 293 295 295 295 292 294 294 296 296 298 299 300 302 303 303 304 307